[[{"header":{"parameterUnit":"m.s-1","parameterCategory":1,"la1":30.6,"la2":29.2853,"lo1":-89.7004,"lo2":-87.6739,"dy":0.0162,"dx":0.0183,"nx":112,"ny":82,"refTime":"2025-02-03T06:00:00:Z","depth":0,"parameterNumber":2,"parameterNumberName":"U-component_of_WINDS"},"data":[0.0,0.0,0.0,0.0,0.0,0.0,0.0,0.0,0.0,0.0,0.0,0.0,0.0,0.0,0.0,0.0,0.0,0.0,0.0,0.0,0.0,0.0,0.0,0.0,0.0,0.0,0.0,0.0,0.0,0.0,0.0,0.0,0.0,0.0,0.0,0.0,0.0,0.0,0.0,0.0,0.0,0.0,0.0,0.0,0.0,0.0,0.0,0.0,0.0,0.0,0.0,0.0,0.0,0.0,0.0,0.0,0.0,0.0,0.0,0.0,0.0,0.0,0.0,0.0,0.0,0.0,0.0,0.0,0.0,0.0,0.0,0.0,0.0,0.0,0.0,0.0,0.0,0.0,0.0,0.0,0.0,0.0,0.0,0.0,0.0,0.0,0.0,0.0,0.0,0.0,-2.3325,-2.5449,-2.6845,-2.7368,-2.6745,-2.5952,-2.4037,-2.0614,0.0,0.0,0.0,0.0,0.0,0.0,0.0,0.0,0.0,0.0,0.0,0.0,0.0,0.0,0.0,0.0,0.0,0.0,0.0,0.0,0.0,0.0,0.0,0.0,0.0,0.0,0.0,0.0,0.0,0.0,0.0,0.0,0.0,0.0,0.0,0.0,0.0,0.0,0.0,0.0,0.0,0.0,0.0,0.0,0.0,0.0,0.0,0.0,0.0,0.0,0.0,0.0,0.0,0.0,0.0,0.0,0.0,0.0,0.0,0.0,0.0,0.0,0.0,0.0,0.0,0.0,0.0,0.0,0.0,0.0,0.0,0.0,0.0,0.0,0.0,0.0,0.0,0.0,0.0,0.0,0.0,0.0,0.0,0.0,0.0,0.0,0.0,0.0,0.0,0.0,0.0,0.0,0.0,0.0,0.0,0.0,0.0,0.0,0.0,0.0,0.0,0.0,0.0,0.0,-2.2258,-2.6107,-2.6126,-2.6107,-2.6644,-2.5952,-2.4037,-2.0614,0.0,0.0,0.0,0.0,0.0,0.0,0.0,0.0,0.0,0.0,0.0,0.0,0.0,0.0,0.0,0.0,0.0,0.0,0.0,0.0,0.0,0.0,0.0,0.0,0.0,0.0,0.0,0.0,0.0,0.0,0.0,0.0,0.0,0.0,0.0,0.0,0.0,0.0,0.0,0.0,0.0,0.0,0.0,0.0,0.0,0.0,0.0,0.0,0.0,0.0,0.0,0.0,0.0,0.0,0.0,0.0,0.0,0.0,0.0,0.0,0.0,0.0,0.0,0.0,0.0,0.0,0.0,0.0,0.0,0.0,0.0,0.0,0.0,0.0,0.0,0.0,0.0,0.0,0.0,0.0,0.0,0.0,0.0,0.0,0.0,0.0,0.0,0.0,0.0,0.0,0.0,0.0,0.0,0.0,0.0,0.0,0.0,0.0,0.0,0.0,0.0,0.0,0.0,-2.1449,-2.338,-2.5797,-2.6107,-2.6126,-2.6068,-2.57,-2.4037,-2.0614,-1.9145,0.0,0.0,0.0,0.0,0.0,0.0,0.0,0.0,0.0,0.0,0.0,0.0,0.0,0.0,0.0,0.0,0.0,0.0,0.0,0.0,0.0,0.0,0.0,0.0,0.0,0.0,0.0,0.0,0.0,0.0,0.0,0.0,0.0,0.0,0.0,0.0,0.0,0.0,0.0,0.0,0.0,0.0,0.0,0.0,0.0,0.0,0.0,0.0,0.0,0.0,0.0,0.0,0.0,0.0,0.0,0.0,0.0,0.0,0.0,0.0,0.0,0.0,0.0,0.0,0.0,0.0,0.0,0.0,0.0,0.0,0.0,0.0,0.0,0.0,0.0,0.0,0.0,0.0,0.0,0.0,0.0,0.0,0.0,0.0,0.0,0.0,0.0,0.0,0.0,0.0,0.0,0.0,0.0,0.0,0.0,0.0,0.0,0.0,0.0,0.0,0.0,0.0,-2.3596,-2.4757,-2.543,-2.6048,-2.6165,-2.5546,-2.5124,-2.3593,-2.0595,-1.8393,0.0,0.0,0.0,0.0,0.0,0.0,0.0,0.0,0.0,0.0,0.0,0.0,0.0,0.0,0.0,0.0,0.0,0.0,0.0,0.0,0.0,0.0,0.0,0.0,0.0,0.0,0.0,0.0,0.0,0.0,0.0,0.0,0.0,0.0,0.0,0.0,0.0,0.0,0.0,0.0,0.0,0.0,0.0,0.0,0.0,0.0,0.0,0.0,0.0,0.0,0.0,0.0,0.0,0.0,0.0,0.0,0.0,0.0,0.0,0.0,0.0,0.0,0.0,0.0,0.0,0.0,0.0,0.0,0.0,0.0,0.0,0.0,0.0,0.0,0.0,0.0,0.0,0.0,0.0,0.0,0.0,0.0,0.0,0.0,0.0,0.0,0.0,0.0,0.0,0.0,0.0,0.0,0.0,0.0,0.0,0.0,0.0,0.0,0.0,0.0,0.0,0.0,-2.3399,-2.543,-2.5488,-2.5546,-2.5565,-2.5507,-2.4002,-2.232,-2.0518,-1.7294,0.0,0.0,0.0,0.0,0.0,0.0,0.0,0.0,0.0,0.0,0.0,0.0,0.0,0.0,0.0,0.0,0.0,0.0,0.0,0.0,0.0,0.0,0.0,0.0,0.0,0.0,0.0,0.0,0.0,0.0,0.0,0.0,0.0,0.0,0.0,0.0,0.0,0.0,0.0,0.0,0.0,0.0,0.0,0.0,0.0,0.0,0.0,0.0,0.0,0.0,0.0,0.0,0.0,0.0,0.0,0.0,0.0,0.0,0.0,0.0,0.0,0.0,0.0,0.0,0.0,0.0,0.0,0.0,0.0,0.0,0.0,0.0,0.0,0.0,0.0,0.0,0.0,0.0,0.0,0.0,0.0,0.0,0.0,0.0,0.0,0.0,0.0,0.0,0.0,0.0,0.0,0.0,0.0,0.0,0.0,0.0,0.0,0.0,0.0,0.0,0.0,0.0,-2.2436,-2.4292,-2.5372,-2.5507,-2.5507,-2.5507,-2.4409,-2.2765,-2.0537,0.0,0.0,0.0,0.0,0.0,0.0,0.0,0.0,0.0,0.0,0.0,0.0,0.0,0.0,0.0,0.0,0.0,0.0,0.0,0.0,0.0,0.0,0.0,0.0,0.0,0.0,0.0,0.0,0.0,0.0,0.0,0.0,0.0,0.0,0.0,0.0,0.0,0.0,0.0,0.0,0.0,0.0,0.0,0.0,0.0,0.0,0.0,0.0,0.0,0.0,0.0,0.0,0.0,0.0,0.0,0.0,0.0,0.0,0.0,0.0,0.0,0.0,0.0,0.0,0.0,0.0,0.0,0.0,0.0,0.0,0.0,0.0,0.0,0.0,0.0,0.0,0.0,0.0,0.0,0.0,0.0,0.0,0.0,0.0,0.0,0.0,0.0,0.0,0.0,0.0,0.0,0.0,0.0,0.0,0.0,0.0,0.0,0.0,0.0,0.0,0.0,0.0,-2.0034,-2.2358,-2.4176,-2.5372,-2.5507,-2.5507,-2.5507,-2.4215,-2.2436,-2.0131,0.0,0.0,0.0,0.0,0.0,0.0,0.0,0.0,0.0,0.0,0.0,0.0,0.0,0.0,0.0,0.0,0.0,0.0,0.0,0.0,0.0,0.0,0.0,0.0,0.0,0.0,0.0,0.0,0.0,0.0,0.0,0.0,0.0,0.0,0.0,0.0,0.0,0.0,0.0,0.0,0.0,0.0,0.0,0.0,0.0,0.0,0.0,0.0,0.0,0.0,0.0,0.0,0.0,0.0,0.0,0.0,0.0,0.0,0.0,0.0,0.0,0.0,0.0,0.0,0.0,0.0,0.0,0.0,0.0,0.0,0.0,0.0,0.0,0.0,0.0,0.0,0.0,0.0,0.0,0.0,0.0,0.0,0.0,0.0,0.0,0.0,0.0,0.0,0.0,0.0,0.0,0.0,0.0,0.0,0.0,0.0,0.0,0.0,0.0,0.0,0.0,0.0,-2.0189,-2.338,-2.5507,-2.5507,-2.5507,-2.5507,-2.5507,-2.3174,-2.0969,0.0,0.0,0.0,0.0,0.0,0.0,0.0,0.0,0.0,0.0,0.0,0.0,0.0,0.0,0.0,0.0,0.0,0.0,0.0,0.0,0.0,0.0,0.0,0.0,0.0,0.0,0.0,0.0,0.0,0.0,0.0,0.0,0.0,0.0,0.0,0.0,0.0,0.0,0.0,0.0,0.0,0.0,0.0,0.0,0.0,0.0,0.0,0.0,0.0,0.0,0.0,0.0,0.0,0.0,0.0,0.0,0.0,0.0,0.0,0.0,0.0,0.0,0.0,0.0,0.0,0.0,0.0,0.0,0.0,0.0,0.0,0.0,0.0,0.0,0.0,0.0,0.0,0.0,0.0,0.0,0.0,0.0,0.0,0.0,0.0,0.0,0.0,0.0,0.0,0.0,0.0,0.0,0.0,0.0,0.0,0.0,0.0,0.0,0.0,0.0,0.0,0.0,0.0,-2.0189,-2.338,-2.5507,-2.5507,-2.5507,-2.5507,-2.5507,-2.3674,-2.1569,-1.9241,0.0,0.0,0.0,0.0,0.0,0.0,0.0,0.0,0.0,0.0,0.0,0.0,0.0,0.0,0.0,0.0,0.0,0.0,0.0,0.0,0.0,0.0,0.0,0.0,0.0,0.0,0.0,0.0,0.0,0.0,0.0,0.0,0.0,0.0,0.0,0.0,0.0,0.0,0.0,0.0,0.0,0.0,0.0,0.0,0.0,0.0,0.0,0.0,0.0,0.0,0.0,0.0,0.0,0.0,0.0,0.0,0.0,0.0,0.0,0.0,0.0,0.0,0.0,0.0,0.0,0.0,0.0,0.0,0.0,0.0,0.0,0.0,0.0,0.0,0.0,0.0,0.0,0.0,0.0,0.0,0.0,0.0,0.0,0.0,0.0,0.0,0.0,0.0,0.0,0.0,0.0,0.0,0.0,0.0,0.0,0.0,0.0,0.0,0.0,0.0,0.0,0.0,-2.0189,-2.338,-2.5507,-2.5507,-2.5507,-2.5507,-2.5507,-2.3906,-2.1817,-1.9261,0.0,0.0,0.0,0.0,0.0,0.0,0.0,0.0,0.0,0.0,0.0,0.0,0.0,0.0,0.0,0.0,0.0,0.0,0.0,0.0,0.0,0.0,0.0,0.0,0.0,0.0,0.0,0.0,0.0,0.0,0.0,0.0,0.0,0.0,0.0,0.0,0.0,0.0,0.0,0.0,0.0,0.0,0.0,0.0,0.0,0.0,0.0,0.0,0.0,0.0,0.0,0.0,0.0,0.0,0.0,0.0,0.0,0.0,0.0,0.0,0.0,0.0,0.0,0.0,0.0,0.0,0.0,0.0,0.0,0.0,0.0,0.0,0.0,0.0,0.0,0.0,0.0,0.0,0.0,0.0,0.0,0.0,0.0,0.0,0.0,0.0,0.0,0.0,0.0,0.0,0.0,0.0,0.0,0.0,0.0,0.0,0.0,0.0,0.0,0.0,0.0,0.0,-2.0189,-2.338,-2.5507,-2.5507,-2.5507,-2.5507,-2.5507,-2.3983,-2.1933,-1.9377,0.0,0.0,0.0,0.0,0.0,0.0,0.0,0.0,0.0,0.0,0.0,0.0,0.0,0.0,0.0,0.0,0.0,0.0,0.0,0.0,0.0,0.0,0.0,0.0,0.0,0.0,0.0,0.0,0.0,0.0,0.0,0.0,0.0,0.0,0.0,0.0,0.0,0.0,0.0,0.0,0.0,0.0,0.0,0.0,0.0,0.0,0.0,0.0,0.0,0.0,0.0,0.0,0.0,0.0,0.0,0.0,0.0,0.0,0.0,0.0,-2.0827,-1.9783,0.0,0.0,0.0,0.0,0.0,0.0,0.0,0.0,0.0,0.0,0.0,0.0,0.0,0.0,0.0,0.0,0.0,0.0,0.0,0.0,0.0,0.0,0.0,0.0,0.0,0.0,0.0,0.0,0.0,0.0,0.0,0.0,0.0,0.0,0.0,0.0,0.0,0.0,0.0,0.0,-2.0189,-2.338,-2.5507,-2.5507,-2.5507,-2.5507,-2.5507,-2.4525,-2.2842,-2.0286,-1.8335,0.0,0.0,0.0,0.0,0.0,0.0,0.0,0.0,0.0,0.0,0.0,0.0,0.0,0.0,0.0,0.0,0.0,0.0,0.0,0.0,0.0,0.0,0.0,0.0,0.0,0.0,0.0,0.0,0.0,0.0,0.0,0.0,0.0,0.0,0.0,0.0,0.0,0.0,0.0,0.0,0.0,0.0,0.0,0.0,0.0,0.0,0.0,0.0,0.0,0.0,0.0,0.0,0.0,0.0,0.0,0.0,0.0,0.0,0.0,-2.3712,-2.2452,0.0,0.0,0.0,0.0,0.0,0.0,0.0,0.0,0.0,0.0,0.0,0.0,0.0,0.0,0.0,0.0,0.0,0.0,0.0,0.0,0.0,0.0,0.0,0.0,0.0,0.0,0.0,0.0,0.0,0.0,0.0,0.0,0.0,0.0,0.0,0.0,0.0,0.0,0.0,0.0,-2.0753,-2.3635,-2.5507,-2.5507,-2.5507,-2.5507,-2.5507,-2.4699,-2.3287,-2.1159,-1.9399,0.0,0.0,0.0,0.0,0.0,0.0,0.0,0.0,0.0,0.0,0.0,0.0,0.0,0.0,0.0,0.0,0.0,0.0,0.0,0.0,0.0,0.0,0.0,0.0,0.0,0.0,0.0,0.0,0.0,0.0,0.0,0.0,0.0,0.0,0.0,0.0,0.0,0.0,0.0,0.0,0.0,0.0,0.0,0.0,0.0,0.0,0.0,0.0,0.0,0.0,0.0,0.0,0.0,-2.8412,-2.8803,-2.8726,-3.0308,-3.0636,-2.9805,-2.6981,-2.5917,-2.6033,-2.4273,0.0,0.0,0.0,0.0,0.0,0.0,0.0,0.0,0.0,0.0,0.0,0.0,0.0,0.0,0.0,0.0,0.0,0.0,0.0,0.0,0.0,0.0,0.0,0.0,-2.4335,-2.3809,-1.9979,0.0,0.0,0.0,0.0,0.0,0.0,0.0,0.0,0.0,0.0,0.0,-2.1572,-2.4002,-2.5507,-2.5507,-2.5507,-2.5507,-2.5507,-2.4834,-2.377,-2.223,-2.0505,-1.8471,0.0,0.0,0.0,0.0,0.0,0.0,0.0,0.0,0.0,0.0,0.0,0.0,0.0,0.0,0.0,0.0,0.0,0.0,0.0,0.0,0.0,0.0,0.0,0.0,0.0,0.0,0.0,0.0,0.0,0.0,0.0,0.0,-2.0324,-2.1968,0.0,0.0,0.0,0.0,0.0,0.0,0.0,0.0,0.0,0.0,0.0,0.0,0.0,-2.7035,-2.8436,-2.9437,-2.9979,-3.0095,-3.1676,-3.2024,-3.1328,-3.2314,-3.272,-3.2565,-3.2121,0.0,-2.8664,-2.6919,0.0,0.0,0.0,0.0,0.0,0.0,0.0,0.0,0.0,0.0,0.0,0.0,0.0,0.0,0.0,0.0,0.0,0.0,0.0,0.0,0.0,0.0,-2.6532,-2.7178,-2.7411,-2.6946,0.0,-2.1639,-1.8739,-1.7523,-1.6733,0.0,0.0,0.0,0.0,0.0,0.0,0.0,-2.242,-2.435,-2.5507,-2.5507,-2.5507,-2.5507,-2.5507,-2.5391,-2.4911,-2.3925,-2.2284,-2.0524,-1.8684,-1.6249,0.0,0.0,0.0,0.0,0.0,0.0,0.0,0.0,0.0,0.0,0.0,0.0,0.0,0.0,0.0,0.0,0.0,0.0,0.0,0.0,0.0,0.0,0.0,0.0,0.0,0.0,0.0,0.0,0.0,-2.0388,-2.2649,-2.2782,-2.3406,-2.3315,0.0,0.0,0.0,0.0,0.0,0.0,0.0,0.0,0.0,-2.8169,-2.91,-2.9935,-3.0694,-3.156,-3.2261,-3.275,-3.3982,-3.4601,-3.4693,-3.5563,-3.5698,-3.5234,-3.5234,-3.4079,-3.1995,-2.9805,-2.789,-2.6211,0.0,0.0,0.0,0.0,-2.4915,-2.5457,-2.6884,-2.7078,-2.6598,-2.5979,0.0,0.0,0.0,0.0,0.0,0.0,0.0,0.0,0.0,0.0,-2.8122,-2.803,-2.8378,-2.8397,-2.7174,-2.5434,-2.329,0.0,-1.9715,-1.8612,-1.5918,-1.584,0.0,0.0,0.0,-2.1298,-2.3364,-2.4718,-2.5507,-2.5507,-2.5507,-2.5507,-2.5507,-2.5507,-2.5124,-2.4254,-2.3503,-2.2126,-1.9918,-1.8297,-1.6249,0.0,0.0,0.0,0.0,0.0,0.0,0.0,0.0,0.0,0.0,0.0,0.0,0.0,0.0,0.0,0.0,0.0,0.0,0.0,0.0,0.0,0.0,0.0,0.0,0.0,0.0,0.0,0.0,-2.2518,-2.4498,-2.3503,-2.4994,-2.543,0.0,0.0,0.0,0.0,0.0,0.0,-2.8733,-2.8823,-2.9688,-3.1651,-3.2356,-3.2924,-3.3363,-3.4058,-3.4731,-3.5375,-3.6033,-3.6651,-3.7251,-3.7903,-3.7845,-3.7232,-3.7232,-3.6516,-3.5162,-3.2377,-3.0346,-2.8896,-2.8021,-2.7325,-2.6962,-2.8204,-2.8803,-2.9244,-3.1134,-3.1405,-3.0733,-2.965,-2.8025,-2.6111,-2.4219,0.0,0.0,0.0,0.0,-2.6938,-2.7538,-2.8664,-2.9476,-2.8823,-2.9171,-2.9384,-2.8513,-2.8339,-2.7217,0.0,-2.2671,-2.1665,-1.8457,-1.8396,0.0,-1.907,-2.0756,-2.2613,-2.4312,-2.5105,-2.5507,-2.5507,-2.5507,-2.5507,-2.5507,-2.5507,-2.5221,-2.4563,-2.4312,-2.3248,-2.1137,-2.0015,-1.8335,-1.5981,0.0,0.0,0.0,0.0,0.0,0.0,0.0,0.0,0.0,0.0,0.0,0.0,0.0,0.0,0.0,0.0,0.0,0.0,0.0,0.0,0.0,0.0,0.0,0.0,0.0,0.0,0.0,0.0,0.0,-2.5094,-2.6579,0.0,0.0,0.0,0.0,-2.7739,-2.8274,-2.9344,-3.114,-3.1053,-3.2091,-3.4604,-3.5025,-3.5975,-3.7577,-3.7836,-3.7961,-3.7999,-3.8057,-3.8096,-3.8135,-3.8174,-3.8174,-3.8135,-3.8135,-3.8096,-3.7748,-3.4364,-3.243,-3.1521,-3.0714,-3.0385,-3.0346,-3.0443,-3.0946,-3.1637,-3.1753,-3.1773,-3.185,-3.2604,-3.1159,-2.907,-2.8958,-2.8339,0.0,0.0,-2.8997,-3.0346,-3.0385,-3.0462,-3.052,-3.0482,-3.0501,-3.0308,-2.9418,-2.9229,-2.8451,0.0,-2.5318,-2.4486,-2.1881,0.0,-2.1765,-2.2536,-2.2768,-2.3461,-2.5221,-2.5468,-2.5507,-2.5507,-2.5507,-2.5507,-2.5507,-2.5507,-2.5488,-2.543,-2.466,-2.377,-2.2807,-2.1195,-1.9493,-1.7716,-1.5981,0.0,0.0,0.0,0.0,0.0,0.0,0.0,0.0,0.0,0.0,0.0,0.0,0.0,0.0,0.0,0.0,0.0,0.0,0.0,0.0,0.0,0.0,0.0,0.0,0.0,0.0,0.0,0.0,-2.7651,-2.9261,0.0,-2.8826,-2.9013,-2.9728,-3.0983,-3.1399,-3.2499,-3.4628,-3.48,-3.5507,-3.6981,-3.7135,-3.7488,-3.808,-3.815,-3.8193,-3.8212,-3.876,-3.9036,-3.9056,-3.9611,-3.9572,-3.9036,-3.9036,-3.8721,-3.8115,-3.6878,-3.5563,-3.4234,-3.3383,-3.2706,-3.2275,-3.2841,-3.3228,-3.3557,-3.4118,-3.3944,-3.3344,-3.2527,-3.1657,-3.081,-3.0288,-3.0288,-3.0443,-3.0443,-3.1289,-3.2217,-3.2217,-3.1792,-3.1366,-3.1366,-3.0984,-3.0501,-3.0192,-3.0133,-2.9708,-2.8238,-2.7035,-2.5642,-2.3654,-2.377,-2.3867,-2.3039,-2.3848,-2.4795,-2.541,-2.5507,-2.5507,-2.5507,-2.5507,-2.5507,-2.5507,-2.5507,-2.5507,-2.5507,-2.4679,-2.3809,-2.2942,-2.1839,-2.0424,-1.8664,-1.7504,-1.5647,0.0,0.0,0.0,0.0,0.0,0.0,0.0,0.0,0.0,0.0,0.0,0.0,0.0,0.0,0.0,0.0,0.0,0.0,0.0,0.0,0.0,0.0,0.0,0.0,0.0,-2.7489,-2.9732,-2.9943,-3.2031,-3.2998,-3.1835,-3.2331,-3.3092,-3.4012,-3.4475,-3.5399,-3.6962,-3.7114,-3.7565,-3.8406,-3.8492,-3.8672,-3.8981,-3.9045,-3.9088,-3.9088,-3.9655,-3.9946,-3.9965,-4.0545,-4.0487,-3.9946,-3.9946,-3.9617,-3.9088,-3.9088,-3.8257,-3.6909,-3.6013,-3.5336,-3.4886,-3.5472,-3.5491,-3.5278,-3.5588,-3.5322,-3.4645,-3.3499,-3.2919,-3.259,-3.2048,-3.2242,-3.2687,-3.2687,-3.3305,-3.39,-3.361,-3.3112,-3.2532,-3.1947,-3.1386,-3.0926,-3.0656,-3.0598,-3.0424,-2.9843,-2.8567,-2.7035,-2.5333,-2.5526,-2.541,-2.3983,-2.4757,-2.5507,-2.5507,-2.5507,-2.5507,-2.5507,-2.5507,-2.5507,-2.5507,-2.5507,-2.5507,-2.5507,-2.4679,-2.3809,-2.2942,-2.2133,-2.1027,-1.957,-1.8393,-1.6689,-1.4439,0.0,0.0,0.0,0.0,0.0,0.0,0.0,0.0,0.0,0.0,0.0,0.0,0.0,0.0,0.0,0.0,0.0,0.0,0.0,0.0,0.0,0.0,0.0,-2.5708,-2.9885,-3.266,-3.1934,-3.4738,-3.6022,-3.4205,-3.5791,-3.6857,-3.6685,-3.7476,-3.7971,-3.7983,-3.7854,-3.8146,-3.8932,-3.9138,-3.9665,-4.0504,-4.0706,-4.0797,-4.0797,-4.0797,-4.0797,-4.0797,-4.0797,-4.0797,-4.0797,-4.0797,-4.0797,-4.0797,-4.0797,-4.0294,-3.9443,-3.8586,-3.8212,-3.8193,-3.8193,-3.7671,-3.6826,-3.6052,-3.5762,-3.5742,-3.5742,-3.5148,-3.4432,-3.4432,-3.4432,-3.4432,-3.4432,-3.5051,-3.5516,-3.4665,-3.4413,-3.3968,-3.2275,-3.1831,-3.1579,-3.081,-3.0617,-3.0598,-3.0598,-2.9921,-2.8799,-2.7073,-2.6741,-2.6435,-2.5642,-2.5526,0.0,-2.5507,-2.5507,-2.5507,-2.5507,-2.5507,-2.5507,-2.5507,-2.5507,-2.5488,-2.5449,-2.4641,-2.377,-2.2923,-2.2133,-2.1298,-2.046,-1.8703,-1.6993,-1.5374,0.0,0.0,0.0,0.0,0.0,0.0,0.0,0.0,0.0,0.0,0.0,0.0,0.0,0.0,0.0,0.0,0.0,0.0,0.0,0.0,0.0,-2.8141,-3.008,-3.008,-3.2332,-3.4305,-3.5148,-3.6608,-3.7363,-3.6845,-3.7296,-3.7863,-3.8435,-3.8845,-3.927,-3.9754,-3.9897,-4.0054,-4.0279,-4.0339,-4.0468,-4.072,-4.0778,-4.0797,-4.0797,-4.0797,-4.0797,-4.0797,-4.0797,-4.0797,-4.0797,-4.0797,-4.0797,-4.0797,-4.0797,-4.0661,-4.0352,-3.9481,-3.876,-3.8193,-3.8193,-3.8057,-3.7806,-3.7599,-3.7096,-3.6574,-3.6574,-3.6013,-3.5342,-3.5342,-3.5342,-3.5342,-3.5342,-3.5516,-3.5646,-3.54,-3.4877,-3.4278,-3.3794,-3.2725,-3.1734,-3.1521,-3.1004,-3.0598,-3.0598,-3.0404,-2.9882,-2.878,-2.7538,-2.6625,-2.6397,-2.5874,0.0,-2.5507,-2.5507,-2.5507,-2.5507,-2.5507,-2.5507,-2.5507,-2.5507,-2.524,-2.4602,-2.3732,-2.3155,-2.2903,-2.2133,-2.1591,-2.1356,-1.9015,-1.7573,0.0,0.0,0.0,0.0,0.0,0.0,0.0,0.0,0.0,0.0,0.0,0.0,0.0,0.0,0.0,0.0,0.0,0.0,0.0,0.0,0.0,0.0,-3.0907,-3.3267,-3.4325,-3.5356,-3.6449,-3.7662,-3.8581,-3.9073,-3.9008,-3.9059,-3.9285,-3.9719,-3.992,-4.0198,-4.06,-4.0733,-4.0797,-4.0797,-4.0797,-4.0797,-4.0797,-4.0797,-4.0797,-4.0797,-4.0797,-4.0797,-4.0797,-4.0797,-4.0797,-4.0797,-4.0797,-4.0797,-4.0797,-4.0797,-4.0797,0.0,0.0,0.0,0.0,0.0,-3.874,-3.8682,-3.8328,-3.7864,-3.7439,-3.7439,-3.6884,-3.6207,-3.6207,-3.5974,-3.5704,-3.5704,-3.5704,-3.5704,-3.5704,-3.5322,-3.4858,-3.449,-3.3634,-3.2687,-3.1966,-3.1424,-3.1004,-3.0675,-3.0598,0.0,-2.9921,-2.8702,-2.7538,-2.6799,-2.63,-2.5874,-2.5546,-2.5507,-2.5507,-2.5507,-2.5507,-2.5507,-2.5507,-2.5507,0.0,0.0,0.0,-2.3287,-2.2923,-2.2458,0.0,0.0,0.0,0.0,0.0,0.0,0.0,0.0,-1.6467,-1.6365,0.0,0.0,0.0,0.0,0.0,0.0,0.0,0.0,0.0,0.0,0.0,0.0,0.0,0.0,0.0,0.0,-3.3073,-3.553,-3.8005,-3.8425,-3.8773,-3.9521,-4.0385,-4.0841,-4.0646,-4.0891,-4.0977,-4.0823,-4.0977,-4.1087,-4.1087,-4.1087,0.0,0.0,0.0,-4.1087,-4.1087,-4.1087,-4.1087,-4.1087,-4.099,-4.0951,-4.0932,-4.0835,-4.0797,-4.0797,-4.0797,-4.0797,-4.0797,-4.0797,-4.0797,-4.0797,-4.0797,-4.0797,-4.0719,-3.9926,-3.9655,-3.9539,-3.876,0.0,0.0,-3.8353,-3.7754,-3.7058,-3.7058,-3.6477,-3.5839,-3.5839,-3.5762,-3.5704,-3.5704,-3.5704,-3.5516,-3.4723,-3.4471,-3.3988,-3.2435,-3.1947,-3.1579,-3.0868,-3.0656,-3.0598,-3.0598,-2.9882,-2.878,-2.7228,-2.6919,-2.6551,-2.5739,-2.5642,-2.5604,-2.5507,0.0,0.0,-2.5507,-2.5507,-2.5449,-2.5356,-2.4621,-2.3848,-2.3077,-2.3058,-2.3058,-2.3058,-2.2942,-2.2893,-2.2894,-2.2987,-2.3006,-2.287,-1.9722,-1.9099,0.0,0.0,0.0,0.0,0.0,0.0,0.0,0.0,0.0,0.0,0.0,0.0,0.0,0.0,0.0,-3.3136,-3.5201,-3.7077,-3.8978,-3.9849,-4.0308,-4.0306,-4.1023,-4.1517,-4.1458,-4.2144,-4.2629,-4.2755,-4.2789,-4.2821,-4.2821,-4.2821,-4.2821,-4.2821,-4.2821,-4.2821,-4.2821,-4.2821,-4.2821,-4.2802,0.0,0.0,-4.1757,-4.1106,-4.0797,-4.0797,-4.0797,-4.0797,-4.0797,-4.0797,-4.0797,-4.0797,-4.0797,-4.0797,-4.0777,-4.0603,-4.0545,-4.0526,-4.0371,-3.9849,-3.9249,-3.9249,-3.8663,-3.7941,-3.7941,-3.7348,0.0,-3.6671,-3.6207,-3.5704,-3.5704,-3.5704,-3.5665,-3.5496,-3.4916,-3.4316,-3.3968,-3.2783,-3.1753,-3.1599,-3.1043,-3.0598,-3.0598,-2.9882,-2.9186,-2.8857,-2.8199,-2.7445,-2.659,-2.6474,-2.6223,-2.5565,-2.5507,-2.5507,-2.5507,-2.5507,-2.5201,-2.4505,-2.4292,-2.4118,-2.3964,-2.3944,-2.3944,-2.3944,-2.3271,-2.2893,-2.2894,-2.3551,-2.3859,-2.3814,-2.2446,-2.1991,0.0,0.0,0.0,0.0,0.0,0.0,0.0,0.0,0.0,0.0,0.0,-2.6362,-2.9355,0.0,-3.2827,-3.582,-3.7367,-3.8669,-3.9965,-4.0874,-4.1364,-4.1258,-4.1617,-4.2022,-4.2466,-4.2891,-4.319,-4.3298,-4.3305,-4.3305,-4.3305,-4.3305,-4.3305,-4.3305,-4.3305,-4.3305,-4.3305,-4.3305,-4.3305,-4.3285,-4.286,-4.2647,-4.2647,-4.2222,-4.2048,-4.2048,-4.2048,-4.1796,-4.1371,-4.0971,-4.0797,-4.0797,-4.0797,-4.0797,-4.0797,-4.0797,-4.0797,-4.0797,-4.0797,-4.0507,-4.0158,-4.0158,-3.9559,-3.8856,-3.8856,-3.7947,-3.6903,-3.6903,-3.6323,-3.5704,-3.5704,-3.5704,-3.5704,-3.5704,-3.538,-3.4935,-3.449,-3.3363,-3.2314,-3.1889,-3.1159,-3.0598,-3.0598,-3.023,-2.9805,-2.9364,-2.8939,-2.8339,-2.7464,-2.6977,-2.6551,-2.6145,-2.5739,-2.5507,-2.5507,-2.5507,-2.5318,-2.4873,-2.4853,-2.4853,-2.4853,-2.4853,-2.4853,-2.4853,-2.4428,-2.4184,-2.4146,-2.4543,-2.4754,-2.4743,-2.4295,-2.409,0.0,0.0,0.0,0.0,0.0,0.0,0.0,-2.3542,-2.4563,-2.6957,-2.8141,-2.9669,-3.2778,-3.406,-3.5496,-3.8044,-3.903,-3.9868,-4.0893,-4.1448,-4.1893,-4.2202,-4.2396,-4.2783,-4.3479,-4.3692,-4.3788,-4.3788,-4.3788,-4.3788,-4.3788,-4.3788,-4.3788,-4.3788,-4.3788,-4.3788,-4.3788,-4.3788,-4.3788,-4.3788,-4.3634,-4.3556,-4.3556,-4.3382,-4.3305,-4.3305,-4.3305,-4.2899,-4.2183,-4.1371,-4.1126,-4.1261,-4.0932,-4.0893,-4.1009,-4.0855,-4.0797,-4.0797,-4.0797,-4.0797,-4.0797,-4.0797,-4.0313,-3.9752,-3.9752,-3.8649,-3.7367,-3.7193,-3.6555,-3.5897,-3.5742,-3.5704,-3.5704,-3.5704,-3.5704,-3.5516,-3.48,-3.3963,-3.3146,-3.243,-3.1507,-3.083,-3.083,-3.0694,-3.0366,-2.965,-2.9553,-2.9248,-2.8358,-2.7638,-2.7131,-2.6977,-2.6377,-2.5994,-2.5994,-2.5836,-2.572,-2.572,-2.5584,-2.5507,-2.5507,-2.5507,-2.5507,-2.5507,-2.5507,-2.548,-2.5401,-2.5397,-2.5395,-2.5398,-2.5389,-2.5351,-2.3345,-2.1604,-2.1079,-2.3229,-2.319,-2.3638,0.0,-2.7914,-2.7952,-2.9785,-3.081,-3.1971,-3.391,-3.4974,-3.6386,-3.894,-3.9443,-4.0042,-4.1641,-4.1332,-4.1487,-4.2976,-4.3846,-4.4342,-4.4439,-4.5104,-4.5517,-4.5517,-4.5517,-4.5517,-4.5517,-4.5517,-4.5517,-4.5517,-4.5517,-4.5517,-4.5517,-4.5517,-4.5517,-4.5517,-4.4794,-4.4439,-4.442,-4.3653,-4.3305,-4.3305,-4.3305,-4.3247,-4.3092,-4.2222,-4.2318,-4.2879,-4.1371,-4.1235,-4.1777,-4.1067,-4.0797,-4.0797,-4.0797,-4.0797,-4.0797,-4.0797,-4.0739,-4.0642,-4.0642,-3.9984,-3.9056,-3.8276,-3.7425,-3.6593,-3.5897,-3.5704,-3.5704,-3.5704,-3.5704,-3.5665,-3.5568,-3.4877,-3.4239,-3.4123,-3.2783,-3.1676,-3.1676,-3.1081,-3.0578,-3.0462,-3.0443,-3.0133,-2.9268,-2.907,-2.8702,-2.7933,-2.7778,-2.772,-2.772,-2.7015,-2.6571,-2.6571,-2.5894,-2.5507,-2.5507,-2.5507,-2.5507,-2.5507,-2.5507,-2.548,-2.5401,-2.5404,-2.5402,-2.5398,-2.5346,-2.5308,-2.5681,-2.4598,-2.4443,-2.6014,-2.6521,-2.7236,-2.9534,-3.0133,-3.0559,-3.1792,-3.3131,-3.4582,-3.6303,-3.7309,-3.8437,-4.0004,-4.0661,-4.1042,-4.1274,-4.1854,-4.2338,-4.2512,-4.3305,-4.4033,-4.4555,-4.491,-4.5297,-4.5768,-4.5807,-4.5807,-4.5807,-4.5807,-4.5807,-4.5807,-4.5807,-4.5807,-4.5807,-4.5807,-4.5807,-4.5807,-4.5452,-4.5297,-4.5297,-4.491,-4.4755,-4.4736,-4.4253,-4.4059,-4.4001,-4.3131,-4.2976,-4.3227,-4.2531,-4.2454,-4.2609,-4.128,-4.0797,-4.0797,-4.0797,-4.0797,-4.0797,-4.0797,-4.0797,-4.0797,-4.0797,-4.0197,-3.9423,-3.9056,-3.7967,-3.6826,-3.6497,-3.6052,-3.5704,-3.5704,-3.5704,-3.5704,-3.5704,-3.5013,-3.4394,-3.4394,-3.3402,-3.2565,-3.2565,-3.185,-3.1294,-3.1294,-3.0907,-3.0462,-3.0095,-2.9611,-2.8977,-2.8088,-2.7991,-2.7991,-2.7991,-2.7677,-2.7464,-2.7464,-2.7136,-2.6729,-2.6223,-2.6203,-2.5967,-2.5452,-2.5433,-2.5436,-2.5406,-2.587,-2.6102,-2.6102,-2.6587,-2.6813,-2.7035,-2.688,-2.7325,-2.8436,-2.936,-3.0288,-3.1391,-3.2106,-3.2764,-3.3629,-3.4814,-3.6207,-3.7883,-3.8721,-3.952,-4.0623,-4.1487,-4.1796,-4.1216,-4.2183,-4.2705,-4.2086,-4.2357,-4.2957,-4.3808,-4.4323,-4.4929,-4.5749,-4.5807,-4.5807,-4.5807,-4.5807,-4.5807,-4.5807,-4.5807,-4.5807,-4.5807,-4.5807,-4.5807,-4.5807,-4.5807,-4.5807,-4.5807,-4.5807,-4.5807,-4.5768,-4.5181,-4.4929,-4.4871,-4.402,-4.3788,-4.3943,-4.3479,-4.3305,-4.3131,-4.1661,-4.1126,-4.1106,-4.0874,-4.0797,-4.0797,-4.0797,-4.0797,-4.0797,-4.0797,-4.0352,-3.981,-3.9578,-3.8591,-3.7502,-3.7019,-3.6477,-3.5974,-3.5742,-3.5704,-3.5704,-3.5704,-3.5206,-3.4761,-3.4761,-3.404,-3.3455,-3.3455,-3.2546,-3.1792,-3.1792,-3.112,-3.0598,-3.0598,-3.0056,-2.9422,-2.8784,-2.8726,-2.8726,-2.8726,-2.8494,-2.8358,-2.8358,-2.8126,-2.772,-2.7073,-2.7065,-2.6767,-2.6135,-2.6108,-2.6086,-2.6087,-2.6675,-2.6968,-2.6967,-2.7601,-2.803,-2.6702,-2.7329,-2.8378,-3.0095,-3.1139,-3.2159,-3.3891,-3.4297,-3.4568,-3.5433,-3.5665,-3.6207,-3.7883,-3.8212,-3.8798,-4.0526,-4.1487,-4.199,-4.197,-4.2009,-4.2028,-4.2009,-4.1332,-4.1184,-4.2009,-4.3614,-4.4929,-4.5749,-4.5807,-4.5807,-4.5807,-4.5807,-4.5807,-4.5807,-4.5807,-4.5807,-4.5807,-4.5807,-4.5807,-4.5807,-4.5807,-4.5807,-4.5807,-4.5807,-4.5807,-4.5807,-4.5768,-4.5768,-4.571,-4.4891,-4.5026,-4.5555,-4.3924,-4.3305,-4.3189,-4.2299,-4.1951,-4.1854,-4.1067,-4.0797,-4.0797,-4.0797,-4.0797,-4.0797,-4.0797,-4.0777,-4.0584,-3.9733,-3.9462,-3.9036,-3.7348,-3.6884,-3.6671,-3.5897,-3.5704,-3.5704,-3.5704,-3.5684,-3.5665,-3.5665,-3.4955,-3.4355,-3.4355,-3.2938,-3.1792,-3.1792,-3.112,-3.0598,-3.0598,-3.0578,-3.0559,-3.052,-3.052,-3.052,-3.052,-2.9747,-2.9268,-2.9268,-2.8474,-2.7991,-2.7952,-2.7965,-2.7951,-2.7913,-2.7861,-2.7812,-2.7811,-2.785,-2.7859,-2.7857,-2.7895,-2.8319,-2.7561,-2.8625,-3.0133,-3.1831,-3.2899,-3.3828,-3.4993,-3.5264,-3.5361,-3.5646,-3.611,-3.6671,-3.7232,-3.8276,-3.9249,-3.9849,-4.1583,-4.2473,-4.1351,-4.2667,-4.3092,-4.139,-4.1429,-4.1699,-4.197,-4.3053,-4.4098,-4.4949,-4.549,-4.5807,-4.5807,-4.5807,-4.5807,-4.5807,-4.5807,-4.5807,-4.5807,-4.5807,-4.5807,-4.5807,-4.5807,-4.5807,-4.5807,-4.5807,-4.5807,-4.5807,-4.5807,-4.5807,-4.5787,-4.551,-4.5548,-4.5749,-4.5181,-4.4949,-4.4852,-4.404,-4.373,-4.344,-4.1467,-4.0797,-4.0797,-4.0797,-4.0797,-4.0797,-4.0797,-4.0797,-4.0739,-4.0448,-3.9946,-3.9365,-3.8785,-3.7773,-3.6826,-3.6555,-3.6091,-3.5704,-3.5704,-3.5704,-3.5704,-3.5704,-3.5452,-3.5264,-3.5264,-3.4292,-3.3325,-3.2759,-3.1487,-3.0598,-3.0598,-3.0598,-3.0598,-3.0598,-3.0598,-3.0598,-3.0598,-3.0327,-3.0153,-3.0153,-2.9882,-2.948,-2.89,-2.8854,-2.8579,-2.7947,-2.7913,-2.7907,-2.7906,-2.8445,-2.869,-2.8703,-2.9294,-2.9692,-2.8765,-3.0172,-3.1835,-3.3228,-3.4214,-3.5013,-3.5568,-3.5704,-3.5607,-3.5303,-3.5646,-3.6091,-3.6419,-3.7141,-3.8185,-3.9713,-4.1332,-4.2241,-4.1757,-4.3363,-4.3885,-4.1912,-4.2144,-4.2454,-4.2454,-4.3247,-4.4001,-4.4555,-4.5355,-4.5807,-4.5807,-4.5807,-4.5807,-4.5807,-4.5807,-4.5807,-4.5807,-4.5807,-4.5807,-4.5807,-4.5807,-4.5807,-4.5807,-4.5807,-4.5807,-4.5807,-4.5807,-4.5807,-4.5807,-4.5807,-4.5807,-4.5807,-4.5807,-4.5633,-4.5316,-4.4794,-4.44,-4.3866,-4.1893,-4.1242,-4.1184,-4.0893,-4.0797,-4.0797,-4.0797,-4.0797,-4.0797,-4.0797,-4.041,-3.9887,-3.9578,-3.8669,-3.7677,-3.7058,-3.6516,-3.6052,-3.5762,-3.5704,-3.5704,-3.5704,-3.5704,-3.5704,-3.5704,-3.4974,-3.4098,-3.3223,-3.2179,-3.1391,-3.1062,-3.1023,-3.1023,-3.1023,-3.1313,-3.1371,-3.1062,-3.1023,-3.0907,-3.0617,-3.0598,-3.0346,-2.9785,-2.9733,-2.9458,-2.8845,-2.8799,-2.8791,-2.8794,-2.9313,-2.9563,-2.9583,-3.0135,-3.0404,-3.025,-3.1947,-3.3436,-3.4311,-3.5148,-3.5762,-3.5762,-3.5704,-3.54,-3.4568,-3.4355,-3.4568,-3.5356,-3.4974,-3.5864,-3.9946,-4.0777,-4.1487,-4.3073,-4.4098,-4.4323,-4.3421,-4.3343,-4.3343,-4.3305,-4.4091,-4.4594,-4.4594,-4.5355,-4.5807,-4.5807,-4.5807,-4.5807,-4.5807,-4.5807,-4.5807,-4.5807,-4.5807,-4.5807,-4.5807,-4.5807,-4.5807,-4.5807,-4.5807,-4.5807,-4.5807,-4.5807,-4.5807,-4.5807,-4.5807,-4.5807,-4.5807,-4.5807,-4.5336,-4.4652,-4.4652,-4.4136,-4.3305,-4.2434,-4.2067,-4.1874,-4.1067,-4.0797,-4.0797,-4.0797,-4.0797,-4.0797,-4.0797,-4.0797,-4.0603,-3.9771,-3.952,-3.9075,-3.7425,-3.7,-3.6767,-3.5994,-3.5781,-3.5762,-3.5762,-3.5723,-3.5704,-3.5704,-3.5013,-3.4195,-3.3358,-3.3204,-3.2856,-3.1985,-3.1869,-3.1869,-3.1869,-3.2604,-3.2778,-3.1947,-3.1869,-3.1521,-3.0714,-3.0656,-3.0636,-3.0598,-3.053,-3.0479,-3.0479,-3.0439,-3.0404,-3.0404,-3.0404,-3.0404,-3.0404,-3.0404,-3.0404,-3.198,-3.3731,-3.524,-3.6052,-3.6439,-3.6593,-3.6593,-3.5626,-3.4665,-3.4452,-3.3886,-3.33,-3.2875,-3.4698,-3.6613,-3.7715,-4.0578,-4.2802,-4.3247,-4.4562,-4.4949,-4.3479,-4.3866,-4.4014,-4.3363,-4.4091,-4.4594,-4.4594,-4.5355,-4.5807,-4.5807,-4.5807,-4.5807,-4.5807,-4.5807,-4.5807,-4.5807,-4.5807,-4.5807,-4.5807,-4.5807,-4.5807,-4.5807,-4.5807,-4.5807,-4.5807,-4.5807,-4.5807,-4.5807,-4.5807,-4.5807,-4.5807,-4.5807,-4.5671,-4.549,-4.549,-4.5355,-4.5045,-4.4214,-4.3092,-4.1874,-4.1067,-4.0797,-4.0797,-4.0797,-4.0797,-4.0797,-4.0797,-4.0797,-4.0758,-4.0526,-3.9984,-3.9385,-3.894,-3.8334,-3.7806,-3.7618,-3.7058,-3.6593,-3.6593,-3.611,-3.5704,-3.5704,-3.5516,-3.5278,-3.5065,-3.4485,-3.375,-3.2875,-3.2778,-3.2778,-3.2778,-3.2972,-3.301,-3.2798,-3.2778,-3.2391,-3.1541,-3.1492,-3.1207,-3.0545,-3.0455,-3.0428,-3.0428,-3.0408,-3.0404,-3.0404,-3.0404,-3.0404,-3.0404,-3.0404,-3.0404,-3.3821,-3.548,-3.6903,-3.7367,-3.7174,-3.6709,-3.5974,-3.4775,-3.3518,-3.2401,-3.1777,-3.127,-3.0791,-3.288,-3.5157,-3.6671,-3.9881,-4.2589,-4.3711,-4.4987,-4.5459,-4.4504,-4.4833,-4.4929,-4.4446,-4.4833,-4.5123,-4.5123,-4.5529,-4.5807,-4.5807,-4.5807,-4.5807,-4.5807,-4.5807,-4.5807,-4.5807,-4.5807,-4.5807,-4.5807,-4.5807,-4.5807,-4.5807,-4.5807,-4.5807,-4.5807,0.0,-4.5807,-4.5807,-4.5807,-4.5807,-4.5807,-4.5807,-4.5807,-4.5807,-4.5807,-4.5807,-4.5691,-4.4891,-4.3962,-4.2937,-4.1719,-4.1087,-4.0797,-4.0797,-4.0797,-4.0797,-4.0797,-4.0797,-4.0797,-4.0797,-4.0448,-3.9965,-3.9597,-3.9133,-3.8663,-3.827,-3.7825,-3.7458,-3.7458,-3.7116,-3.6806,-3.6806,-3.6477,-3.6226,-3.6226,-3.551,-3.4795,-3.4311,-3.3905,-3.3673,-3.3673,-3.4021,-3.4098,-3.3692,-3.3673,-3.33,-3.243,-3.2371,-3.1988,-3.1119,-3.1375,-3.1187,-3.0417,-3.0787,-3.0788,-3.0404,-3.0404,-3.0596,-3.0962,-3.0577,-3.0788,-3.5653,-3.7125,-3.8322,-3.8226,-3.7626,-3.6593,-3.4795,-3.3629,-3.2237,-2.9805,-2.921,-2.9132,-2.9132,-3.0598,-3.2875,-3.6207,-3.8934,-4.1564,-4.4226,-4.52,-4.5691,-4.5787,-4.5807,-4.5807,-4.5807,-4.5807,-4.5807,-4.5807,-4.5807,-4.5807,-4.5807,-4.5807,-4.5807,-4.5807,-4.5807,-4.5807,-4.5807,-4.5807,-4.5807,-4.5807,-4.5807,-4.5807,-4.5807,-4.5807,-4.5807,-4.5807,-4.5807,-4.5807,-4.5807,-4.5807,-4.5807,-4.5807,-4.5807,-4.5807,-4.5807,-4.5807,-4.5807,-4.5691,-4.4891,-4.4516,-4.4149,-4.2531,-4.1525,-4.0951,-4.0835,-4.0797,-4.0797,-4.0797,-4.0797,-4.0797,-4.0797,-4.0797,-4.0603,-3.9849,-3.9675,-3.9462,-3.8721,-3.8444,-3.8328,-3.8212,-3.8193,-3.8193,-3.8193,-3.7574,-3.7077,-3.7077,-3.6381,-3.5858,-3.5858,-3.511,-3.4568,-3.4568,-3.5245,-3.54,-3.4645,-3.4568,-3.4195,-3.3339,-3.3249,-3.2872,-3.2008,-3.2623,-3.2279,-3.0758,-3.146,-3.1487,-3.0731,-3.0731,-3.1115,-3.1833,-3.1077,-3.15,-3.7225,-3.8421,-3.902,-3.8299,-3.8041,-3.7336,-3.4883,-3.3135,-3.1502,-2.9669,-2.8726,-2.8223,-2.8223,-3.0172,-3.2701,-3.5452,-3.8069,-4.0874,-4.4136,-4.471,-4.5045,-4.5729,-4.5807,-4.5807,-4.5807,-4.5807,-4.5807,-4.5807,-4.5807,-4.5807,-4.5807,-4.5807,-4.5807,-4.5807,-4.5807,-4.5807,-4.5807,-4.5807,-4.5807,-4.5807,-4.5807,-4.5807,-4.5807,-4.5807,-4.5807,-4.5807,-4.5807,0.0,-4.5807,-4.5807,-4.5807,-4.5807,-4.5807,-4.5807,-4.5807,-4.5807,-4.5807,-4.5691,-4.4891,-4.413,-4.3363,-4.2338,-4.1912,-4.1661,-4.1009,-4.0797,-4.0797,-4.0797,-4.0797,-4.0797,-4.0797,-4.0797,-4.0758,-4.0603,-4.0565,-4.0526,-4.039,-3.9791,-3.9056,-3.8328,-3.8193,-3.8193,-3.8193,-3.8077,-3.7961,-3.7961,-3.7251,-3.669,-3.669,-3.5974,-3.5477,-3.5477,-3.5607,-3.5646,-3.5496,-3.5477,-3.511,-3.4239,-3.4127,-3.3693,-3.2825,-3.2877,-3.2782,-3.2474,-3.2602,-3.2622,-3.2468,-3.2468,-3.2545,-3.2699,-3.2545,-3.2622,-3.788,-3.9077,-3.9863,-3.8981,-3.8131,-3.6737,-3.3694,-3.17,-2.9882,-2.7755,-2.6981,-2.6691,-2.6691,-2.9147,-3.1719,-3.3402,-3.6187,-3.934,-4.2763,-4.3247,-4.3885,-4.5594,-4.5805,-4.5805,-4.58,-4.5805,-4.5805,-4.5807,-4.5807,-4.5807,-4.5807,-4.5807,-4.5807,-4.5807,-4.5807,-4.5807,-4.5807,-4.5807,-4.5807,-4.5807,-4.5807,-4.5807,-4.5807,-4.5807,-4.5807,-4.5807,-4.5807,-4.5807,-4.5807,-4.5807,-4.5807,-4.5807,-4.5807,-4.5807,-4.5807,-4.5807,-4.5807,-4.5691,-4.4891,-4.4323,-4.3769,-4.2434,-4.1719,-4.1293,-4.0913,-4.0797,-4.0797,-4.0797,-4.0797,-4.0797,-4.0797,-4.0797,-4.0797,-4.0797,-4.0797,-4.0797,-4.0797,-4.0468,-4.0042,-3.963,-3.9553,-3.9553,-3.9553,-3.9185,-3.8876,-3.8876,-3.8141,-3.7574,-3.7574,-3.6845,-3.6168,-3.5742,-3.5704,-3.5704,-3.5704,-3.5704,-3.5505,-3.5049,-3.4985,-3.4569,-3.3664,-3.4032,-3.3833,-3.291,-3.3353,-3.3353,-3.2891,-3.2891,-3.3122,-3.3564,-3.3103,-3.3391,-3.8315,-3.9494,-4.0416,-3.9366,-3.7977,-3.5946,-3.2345,-3.0376,-2.8582,-2.6029,-2.5507,-2.5546,-2.572,-2.7944,-3.0206,-3.1574,-3.4204,-3.7336,-4.0939,-4.177,-4.2873,-4.5251,-4.5687,-4.5795,-4.5778,-4.5783,-4.5803,-4.5793,-4.58,-4.5807,-4.5807,-4.5807,-4.5807,-4.5807,-4.5807,-4.5807,-4.5807,-4.5807,-4.5807,-4.5807,-4.5807,-4.5807,-4.5807,-4.5807,-4.5807,-4.5807,-4.5807,-4.5807,-4.5807,-4.5807,-4.5807,-4.5807,-4.5807,-4.5691,-4.5529,-4.5529,-4.5413,-4.5142,-4.433,-4.4033,-4.3788,-4.2241,-4.1429,-4.1029,-4.0855,-4.0797,-4.0797,-4.0797,-4.0797,-4.0797,-4.0797,-4.0797,-4.0797,-4.0797,-4.0797,-4.0797,-4.0797,-4.0797,-4.0797,-4.0797,-4.0797,-4.0797,-4.0797,-4.0236,-3.9771,-3.9771,-3.903,-3.8489,-3.8489,-3.7715,-3.6942,-3.6303,-3.5916,-3.5704,-3.5704,-3.5704,-3.5679,-3.5612,-3.5616,-3.5277,-3.4539,-3.5142,-3.4865,-3.3487,-3.4122,-3.4141,-3.3468,-3.3468,-3.3814,-3.4449,-3.3776,-3.4192,-3.8977,-3.9872,-4.0203,-3.8549,-3.7462,-3.5719,-3.1573,-2.994,-2.8574,-2.6025,-2.5507,-2.572,-2.6455,-2.6861,-2.809,-3.1284,0.0,-3.4905,-3.9052,-4.1003,-4.2646,-4.4409,-4.5317,-4.5773,-4.5723,-4.5765,-4.5807,-4.5795,-4.5805,-4.5807,-4.5807,-4.5807,-4.5807,-4.5807,-4.5807,-4.5807,-4.5807,-4.5807,-4.5807,-4.5807,-4.5807,-4.5807,-4.5807,-4.5807,-4.5807,-4.5807,-4.5807,-4.5807,0.0,-4.5807,-4.5807,-4.5807,-4.5807,-4.5355,-4.471,-4.471,-4.4214,-4.3401,-4.2531,-4.2241,-4.2086,-4.1203,-4.1351,-4.1757,-4.1029,-4.0797,-4.0797,-4.0797,-4.0797,-4.0797,-4.0797,-4.0797,-4.0797,-4.0797,-4.0797,-4.0797,-4.0797,-4.0797,-4.0797,-4.0797,-4.0797,-4.0797,-4.0797,-4.0739,-4.0681,-4.0681,-3.9946,-3.9385,-3.9385,-3.8624,-3.8057,-3.798,-3.6613,-3.5704,-3.5704,-3.5704,-3.5704,-3.5684,-3.5628,-3.5559,-3.5476,-3.5483,-3.5423,-3.525,-3.5346,-3.5346,-3.525,-3.525,-3.5308,-3.5385,-3.5308,-3.5346,-3.8142,-3.9153,-3.9514,-3.8303,-3.7038,-3.5108,-3.1342,-2.9468,-2.7939,-2.5913,-2.5507,-2.558,-2.5878,-2.6356,-2.7473,-2.9849,-3.0539,-3.2237,-3.6516,-3.7707,-3.9341,-4.2539,-4.3662,-4.4581,-4.5611,-4.5719,-4.5754,-4.58,-4.5803,-4.5798,-4.5807,-4.5807,-4.5807,-4.5807,-4.5807,-4.5807,-4.5807,-4.5807,-4.5807,-4.5807,-4.5807,-4.5807,-4.5807,-4.5807,-4.5807,-4.5807,-4.5807,-4.5807,0.0,-4.5807,-4.5807,-4.5749,-4.5278,-4.4891,-4.4536,-4.402,-4.3595,-4.3189,-4.2299,-4.2009,-4.1874,-4.1067,-4.1029,-4.1222,-4.0893,-4.0797,-4.0797,-4.0797,-4.0797,-4.0797,-4.0797,-4.0797,-4.0797,-4.0797,-4.0797,-4.0797,-4.0797,-4.0797,-4.0797,-4.0797,-4.0797,-4.0797,-4.0797,-4.0797,-4.0797,-4.0797,-4.0507,-4.0274,-4.0274,-3.952,-3.8972,-3.8972,-3.7928,-3.7,-3.6477,-3.6419,-3.6201,-3.5662,-3.5602,-3.5591,-3.5547,-3.5515,-3.55,-3.55,-3.55,-3.55,-3.55,-3.55,-3.55,-3.55,-3.55,-3.55,-3.6873,-3.8068,-3.871,-3.7822,-3.6388,-3.4363,-3.1226,-2.9197,-2.7514,-2.5855,-2.5507,-2.5484,-2.5406,-2.5904,-2.6856,0.0,-2.9022,-3.0609,-3.4646,-3.5643,-3.7244,-4.0728,-4.1863,-4.305,-4.4762,-4.5401,-4.5714,-4.5765,-4.5781,-4.5795,-4.5805,-4.58,-4.5807,-4.5807,-4.5807,-4.5807,-4.5807,-4.5807,-4.5807,-4.5807,-4.5807,-4.5807,-4.5807,-4.5807,-4.5807,-4.5807,-4.5807,-4.5807,0.0,-4.5529,-4.5452,-4.5355,-4.4543,-4.4052,-4.3769,-4.315,-4.2763,-4.2473,-4.1854,-4.1641,-4.1545,-4.099,-4.0797,-4.0797,-4.0797,-4.0797,-4.0797,-4.0797,-4.0797,-4.0797,-4.0797,-4.0797,-4.0797,-4.0797,-4.0797,-4.0797,-4.0797,-4.0797,-4.0797,-4.0797,-4.0797,-4.0797,-4.0797,-4.0797,-4.0797,-4.0797,-4.0797,-4.0797,-4.0797,-4.0255,-3.9887,-3.9887,-3.934,-3.8508,-3.7386,-3.729,-3.6911,-3.6051,-3.5963,-3.5817,-3.5509,-3.5508,-3.55,-3.55,-3.55,-3.55,-3.55,-3.55,-3.55,-3.55,-3.55,-3.55,-3.5288,-3.6738,-3.7796,-3.6923,-3.545,-3.3551,-3.108,-2.9202,-2.7511,-2.5851,-2.5507,-2.5484,-2.5406,-2.5401,-2.5964,-2.7648,-2.8639,-3.0398,-3.3833,-3.574,-3.7416,-3.9124,-4.0094,-4.1274,-4.2959,-4.4694,-4.5698,-4.57,-4.5765,0.0,-4.5807,-4.5805,-4.5807,-4.5807,-4.5807,-4.5807,-4.5807,-4.5807,-4.5807,-4.5807,-4.5807,-4.5807,-4.5807,-4.5807,-4.5807,-4.5807,-4.5807,-4.5807,0.0,-4.4949,-4.4613,-4.4536,-4.3653,-4.2783,-4.2028,-4.2028,-4.1506,-4.0816,-4.0816,-4.0816,-4.0816,-4.0797,-4.0797,-4.0797,-4.0797,-4.0797,-4.0797,-4.0797,-4.0797,-4.0797,-4.0797,-4.0797,-4.0797,-4.0797,-4.0797,-4.0797,-4.0797,-4.0797,-4.0797,-4.0797,-4.0797,-4.0797,-4.0797,-4.0797,-4.0797,-4.0797,-4.0797,-4.0797,-4.0797,-4.0797,-4.0797,-4.0797,-4.0777,-4.0075,-3.8328,-3.8193,-3.7814,-3.6939,-3.6832,-3.6389,-3.5547,-3.5508,-3.55,-3.55,-3.55,-3.55,-3.55,-3.55,-3.55,-3.55,-3.55,-3.55,-3.2673,-3.3699,-3.4314,-3.3487,-3.246,-3.1152,-2.9172,-2.7899,-2.679,-2.5665,-2.5429,-2.544,-2.5406,-2.5397,-2.6135,-2.8354,-2.8945,0.0,-3.2948,-3.4834,-3.6752,-3.903,-4.209,-4.4226,-4.4767,-4.5315,-4.5657,-4.5698,-4.5714,-4.5746,-4.58,-4.5795,-4.5798,-4.5807,-4.5807,-4.5807,-4.5807,-4.5807,-4.5807,-4.5807,-4.5807,-4.5807,-4.5787,-4.5239,-4.4987,-4.4949,-4.4349,-4.4098,-4.4078,-4.3827,-4.3711,-4.3614,-4.2744,-4.2241,-4.1932,-4.1371,-4.1029,-4.0797,-4.0797,-4.0797,-4.0797,-4.0797,-4.0797,-4.0797,-4.0797,-4.0797,-4.0797,-4.0797,-4.0797,-4.0797,-4.0797,-4.0797,-4.0797,-4.0797,-4.0797,-4.0797,-4.0797,-4.0797,-4.0797,-4.0797,-4.0797,-4.0797,-4.0797,-4.0797,-4.0797,-4.0797,-4.0797,-4.0797,-4.0797,-4.0797,-4.0797,-4.0797,-4.0797,-4.0332,-3.9191,-3.9051,-3.8665,-3.7841,-3.7668,-3.7243,-3.6427,-3.6348,-3.6058,-3.5519,-3.55,-3.55,-3.55,-3.55,-3.55,-3.55,-3.55,-3.55,-3.0421,-3.1351,-3.1832,-3.1363,-3.0621,-2.9645,-2.8247,-2.7309,-2.6457,-2.5575,-2.5393,-2.54,-2.5403,-2.5398,-2.6006,-2.7857,-2.8434,-2.955,-3.2083,-3.393,-3.6084,-3.8957,-4.2478,-4.4671,-4.4671,-4.5229,-4.5622,-4.5657,-4.5384,-4.5224,-4.5272,-4.4986,-4.4815,-4.4819,-4.5471,-4.5807,-4.5807,-4.5807,-4.5652,-4.5355,-4.5355,-4.5181,-4.4833,-4.4349,-4.411,-4.4072,-4.3537,-4.3305,0.0,-4.2957,-4.2802,-4.2725,-4.1874,-4.1545,-4.1487,-4.099,-4.0797,-4.0797,-4.0797,-4.0797,-4.0797,-4.0797,-4.0797,-4.0797,-4.0797,-4.0797,-4.0797,-4.0797,-4.0797,-4.0797,-4.0797,-4.0797,-4.0797,-4.0797,-4.0797,-4.0797,-4.0797,-4.0797,-4.0797,-4.0797,-4.0797,-4.0797,-4.0797,-4.0797,-4.0797,-4.0797,-4.0797,-4.0797,-4.0797,-4.0797,-4.0797,-4.0797,-4.0797,-4.0584,-4.0042,-3.994,-3.9554,-3.8717,-3.8575,-3.8148,-3.7286,-3.7207,-3.6949,-3.6442,-3.6115,-3.5942,-3.5942,-3.5654,-3.5654,-3.5942,-3.5635,-3.5654,0.0,-2.9473,-3.0133,-3.0136,-2.9534,-2.8734,-2.7981,-2.7193,0.0,-2.5571,-2.54,-2.5421,-2.5475,-2.5432,-2.5693,-2.6626,-2.7467,-2.8871,-3.1429,-3.3391,-3.5783,-3.9092,-4.1623,-4.3104,-4.3104,-4.4509,-4.5421,-4.5421,-4.4724,-4.4306,-4.4314,-4.3594,-4.3195,-4.3192,-4.478,-4.5626,-4.5613,-4.5613,-4.5239,-4.4516,-4.4516,-4.4072,-4.3305,-4.3247,-4.3208,0.0,-4.315,-4.3131,0.0,-4.2241,-4.1912,-4.1835,-4.1087,-4.0797,-4.0797,-4.0797,-4.0797,-4.0797,-4.0797,-4.0797,-4.0797,-4.0797,-4.0797,-4.0797,-4.0797,-4.0797,-4.0797,-4.0797,-4.0797,-4.0797,-4.0797,-4.0797,-4.0797,-4.0797,-4.0797,-4.0797,-4.0797,-4.0797,-4.0797,-4.0797,-4.0797,-4.0797,-4.0797,-4.0855,-4.0874,-4.0816,-4.0855,-4.0855,-4.0816,-4.0797,-4.0797,-4.0797,-4.0797,-4.0797,-4.0797,-4.079,-4.0417,-3.954,-3.9495,-3.9075,-3.813,-3.8084,-3.8065,-3.8007,-3.7199,-3.6788,-3.6788,-3.6038,-3.6058,-3.6769,-3.6019,-3.6077,-2.5245,0.0,-2.7354,-2.6747,-2.6442,-2.6238,0.0,-2.5852,-2.5644,-2.544,-2.5407,-2.5586,-2.6193,-2.5765,-2.601,-2.8165,-2.8684,-2.9704,-3.2256,-3.5776,-3.8873,-4.0969,-4.2335,-4.3104,-4.3104,-4.3451,-4.3682,-4.3682,-4.3498,-4.3407,-4.34,-4.3243,-4.315,-4.3195,-4.3598,-4.3845,-4.3885,-4.3885,-4.3788,-4.3614,-4.3614,-4.3498,-4.3285,-4.2609,-4.2318,-4.226,-4.1641,-4.139,-4.1371,-4.1164,-4.1087,-4.1067,-4.0874,-4.0797,-4.0797,-4.0797,-4.0797,-4.0797,-4.0797,-4.0797,-4.0797,-4.0797,-4.0797,-4.0797,-4.0797,-4.0797,-4.0797,-4.0797,-4.0797,-4.0797,-4.0797,-4.0797,-4.0797,-4.0797,-4.0797,-4.0797,-4.0797,-4.0797,-4.0797,-4.0797,-4.0797,-4.0797,-4.0797,-4.1313,-4.1506,-4.0893,-4.1313,-4.1506,-4.0874,-4.0797,-4.0797,-4.0797,-4.0797,-4.0797,-4.0797,-4.0746,-4.063,-4.0417,-4.0342,-3.9921,-3.9032,-3.8984,-3.8681,-3.8007,-3.7796,-3.77,-3.77,-3.7507,-3.7507,-3.77,-3.7507,-3.7507,-2.3582,-2.4801,-2.5946,-2.5548,-2.5421,-2.5397,-2.5408,-2.5404,-2.54,-2.5403,-2.5384,-2.5486,-2.5928,-2.5942,-2.6346,-2.7736,-2.8929,-3.0852,-3.418,-3.7334,-3.9912,-4.1596,-4.2566,-4.3104,0.0,-4.3104,-4.3104,-4.3104,-4.2739,-4.2497,-4.2502,-4.2125,-4.1929,-4.1993,-4.201,-4.2419,-4.3246,-4.3279,-4.3092,-4.2705,-4.2705,-4.2512,-4.2144,-4.1661,-4.1448,-4.1429,-4.099,0.0,-4.0797,-4.0797,-4.0797,-4.0797,-4.0797,-4.0797,-4.0797,-4.0797,-4.0797,-4.0797,-4.0797,-4.0797,-4.0797,-4.0797,-4.0797,-4.0797,-4.0797,-4.0797,-4.0797,-4.0797,-4.0797,-4.0797,-4.0797,-4.0797,-4.0797,-4.0797,-4.0797,-4.0797,-4.0797,-4.1087,-4.1351,-4.1351,-4.1661,-4.1951,-4.1951,-4.2318,-4.2454,-4.2009,-4.2318,-4.2434,-4.199,-4.1603,-4.1351,-4.1351,-4.1029,-4.0797,-4.0797,-4.0778,-4.0739,-4.07,-4.0646,-4.0398,-3.9914,-3.9877,-3.9457,-3.8604,-3.8604,-3.8392,-3.8007,-3.8007,-3.82,-3.8584,-3.818,-3.82,-2.3002,-2.4227,-2.5386,-2.5325,-2.5356,-2.5397,-2.5393,0.0,0.0,-2.5394,-2.5346,-2.5385,-2.5654,-2.6288,-2.689,-2.714,-2.9327,-3.2365,-3.6346,-3.8277,-3.9873,-4.1431,-4.2258,0.0,-4.2701,-4.2701,-4.2701,-4.2701,-4.2027,-4.1604,-4.1604,-4.0893,-4.0531,-4.058,-4.0586,-4.1303,-4.2786,-4.2879,-4.255,-4.1816,-4.1816,-4.1448,-4.0797,-4.0797,-4.0797,-4.0797,0.0,0.0,-4.0797,-4.0797,-4.0797,-4.0797,-4.0797,-4.0797,-4.0797,-4.0797,-4.0797,-4.0797,-4.0797,-4.0797,-4.0797,-4.0797,-4.0797,-4.0797,-4.0797,-4.0797,-4.0797,-4.0797,-4.0797,-4.0797,-4.0797,-4.0797,-4.0797,-4.0797,-4.0797,-4.0797,-4.0797,-4.1429,-4.2009,-4.2009,-4.2705,-4.3305,-4.3305,-4.3421,-4.346,-4.3324,-4.3421,-4.346,-4.3324,-4.2531,-4.2009,-4.2009,-4.1274,-4.0797,-4.0797,-4.0797,-4.0784,-4.0726,-4.0635,-4.0593,-4.058,-4.0531,-4.0189,-3.9496,-3.9477,-3.913,-3.8373,-3.8373,-3.8757,-3.9477,-3.8719,-3.8777,-2.3608,-2.4679,-2.5247,-2.4575,-2.491,-2.5391,-2.5393,-2.5403,0.0,0.0,-2.5308,-2.575,-2.7236,-2.7601,-2.8159,-2.9596,-3.1948,-3.4603,-3.7411,-3.8661,-3.965,-4.0593,-4.0823,-4.09,-4.09,-4.09,-4.09,-4.09,-4.0785,-4.0708,-4.0708,-4.0573,-4.0496,-4.0523,-4.0579,-4.073,-4.1007,-4.1113,-4.1126,-4.099,-4.099,-4.0913,-4.0797,-4.0797,-4.0797,-4.0797,0.0,-4.0797,-4.0797,-4.0797,-4.0797,-4.0797,-4.0797,-4.0797,-4.0797,-4.0797,-4.0797,-4.0797,-4.0797,-4.0797,-4.0797,-4.0797,-4.0797,-4.0797,-4.0797,-4.0797,-4.0797,-4.0797,-4.0797,-4.0797,-4.0797,-4.0797,-4.0797,-4.0797,-4.0797,-4.0797,-4.0797,-4.1429,-4.2009,-4.2009,-4.2705,-4.3305,-4.3305,-4.3904,-4.4149,-4.3421,-4.3924,-4.413,-4.3401,-4.2531,-4.2009,-4.2009,-4.1274,-4.0797,-4.0797,-4.0797,-4.079,-4.0784,-4.0668,-4.0559,-4.0523,-4.0516,-4.0439,-4.0323,-4.0323,-4.0246,-4.0131,-4.0131,-4.0189,-4.0304,-4.0189,-4.0189,-2.1926,-2.3087,-2.3967,-2.3585,-2.4816,-2.5985,-2.5519,-2.5398,-2.5505,0.0,-2.6,-2.639,-2.7659,-2.864,-3.0115,-3.2731,-3.4507,-3.6295,-3.8411,-3.9053,-3.9611,-4.04,0.0,-4.0496,-4.0496,-4.0496,-4.0496,-4.0496,-4.0496,-4.0496,-4.0496,-4.0496,-4.0496,-4.0496,-4.0569,-4.0605,-4.0595,-4.07,-4.0752,-4.0797,-4.0797,-4.0797,-4.0797,-4.0797,-4.0797,-4.0797,0.0,-4.0797,-4.0797,-4.0797,-4.0797,-4.0797,-4.0797,-4.0797,-4.0797,-4.0797,-4.0797,-4.0797,-4.0797,-4.0797,-4.0797,-4.0797,-4.0797,-4.0797,-4.0797,-4.0797,-4.0797,-4.0797,-4.0797,-4.0797,-4.0797,-4.0797,-4.0797,-4.0797,-4.0797,-4.0913,-4.1351,-4.2106,-4.2841,-4.3305,-4.4078,-4.4639,-4.4639,-4.4987,-4.5104,-4.4717,-4.4987,-4.5104,-4.4697,-4.3924,-4.3227,-4.2744,-4.1951,-4.1274,-4.0835,-4.0797,-4.0759,-4.07,-4.0628,-4.0579,-4.0496,-4.0496,-4.0496,-4.0496,-4.0496,-4.0496,-4.0496,-4.0496,-4.0496,-4.0496,-4.0496,-4.0496,-2.1172,-2.2226,-2.3233,-2.343,-2.493,-2.6256,-2.5794,-2.5673,-2.5919,-2.6741,-2.6909,-2.7178,-2.803,-2.9717,-3.2096,-3.5519,-3.6596,-3.7603,-3.9342,-3.9573,-3.9804,-4.0439,-4.0323,-4.0227,-4.0227,-4.0035,-3.9919,-3.9919,-3.9919,-3.9919,-3.9919,-3.9919,-3.9919,-3.9919,-3.9983,-4.0,-4.0016,-4.0069,-4.0359,-4.0797,-4.0797,-4.0797,-4.0797,-4.0584,-4.0507,-4.0507,-4.0507,-4.0507,-4.0507,-4.0719,-4.0797,-4.0797,-4.0797,-4.0797,-4.0797,-4.0797,-4.0797,-4.0797,-4.0797,-4.0797,-4.0797,-4.0797,-4.0797,-4.0797,-4.0797,-4.0797,-4.0797,-4.0797,-4.0797,-4.0797,-4.0797,-4.0797,-4.0797,-4.0797,-4.0797,-4.1029,-4.1835,-4.2686,-4.3556,-4.442,-4.5258,-4.5807,-4.5807,-4.5807,-4.5807,-4.5807,-4.5807,-4.5807,-4.5807,-4.5104,-4.4265,-4.3401,-4.2512,-4.1661,-4.0874,-4.0797,-4.0752,-4.0628,-4.0621,-4.0593,-4.0531,-4.0531,-4.0523,-4.0496,-4.0496,-4.0496,-4.0496,-4.0496,-4.0496,-4.0496,-4.0496,-4.0496,-2.3492,-2.3968,-2.4221,-2.502,-2.5312,-2.5601,-2.6332,-2.6505,-2.6755,-2.7626,-2.7818,-2.8049,-2.8857,-3.1044,-3.3833,-3.7257,-3.7873,-3.8488,-4.0189,-4.0419,-4.0439,-4.0496,-3.9842,-3.94,-3.94,-3.8642,-3.818,-3.818,-3.818,-3.818,-3.818,-3.818,-3.818,-3.818,-3.8239,-3.8273,-3.8279,-3.8356,-3.9179,-4.0797,-4.0797,-4.0797,-4.0777,-3.9965,-3.9597,-3.9597,-3.9597,-3.9597,-3.9655,-4.0468,-4.0797,-4.0797,-4.0797,-4.0797,-4.0797,-4.0797,-4.0797,-4.0797,-4.0797,-4.0797,-4.0797,-4.0797,-4.0797,-4.0797,-4.0797,-4.0797,-4.0797,-4.0797,-4.0797,-4.0797,-4.0797,-4.0797,-4.0797,-4.0797,-4.0797,-4.1029,-4.1835,-4.2686,-4.3556,-4.442,-4.5258,-4.5807,-4.5807,-4.5807,-4.5807,-4.5807,-4.5807,-4.5807,-4.5807,-4.5104,-4.4265,-4.3401,-4.2512,-4.1661,-4.0874,-4.0797,-4.0778,-4.07,-4.0694,-4.066,-4.0607,-4.058,-4.0565,-4.0496,-4.0496,-4.0496,-4.0496,-4.0496,-4.0496,-4.0496,-4.0496,-4.0496,-2.2452,-2.2983,-2.3426,-2.3758,-2.4571,-2.5673,-2.7082,-2.7409,-2.7948,-2.9871,-3.0256,-3.0506,-3.1314,-3.2679,-3.4314,-3.6161,-3.7315,-3.8219,-3.8854,-3.895,-3.895,-3.895,-3.8681,-3.8488,-3.8488,-3.818,-3.8007,-3.8007,-3.8007,-3.8007,-3.8007,-3.8007,-3.8007,-3.8007,-3.8017,-3.8059,-3.8106,-3.8125,-3.8491,-3.9185,-3.9185,-3.9185,-3.9166,-3.8837,-3.8682,-3.8682,-3.8682,-3.8682,-3.876,-3.9636,-3.9984,-4.0042,-4.0584,-4.0797,-4.0797,-4.0797,-4.0797,-4.0797,-4.0797,-4.0797,-4.0797,-4.0797,-4.0797,-4.0797,-4.0797,-4.0797,-4.0797,-4.0797,-4.0797,-4.0797,-4.0797,-4.0797,-4.0797,-4.0797,-4.0797,-4.1164,-4.2512,-4.3073,-4.3711,-4.5084,-4.5587,-4.5807,-4.5807,-4.5807,-4.5807,-4.5807,-4.5807,-4.5807,-4.5807,-4.5104,-4.4265,-4.3401,-4.2067,-4.1126,-4.0835,-4.0797,-4.079,-4.0752,-4.0713,-4.068,-4.0612,-4.0605,-4.0591,-4.0565,-4.0565,-4.0539,-4.0496,-4.0496,-4.0496,-4.0496,-4.0496,-4.0496,-2.2132,-2.2674,-2.3276,-2.3283,-2.4494,-2.6164,-2.7895,-2.828,-2.8934,-3.1237,-3.1698,-3.2025,-3.3103,-3.3564,-3.4257,-3.5654,-3.6827,-3.77,-3.7969,-3.8007,-3.8007,-3.8007,-3.7757,-3.7584,-3.7584,-3.7353,-3.7219,-3.7219,-3.7219,-3.7219,-3.7219,-3.7219,-3.7219,-3.7219,-3.7214,-3.7229,-3.7315,-3.7302,-3.7333,-3.7406,-3.7406,-3.769,-3.8193,-3.7922,-3.7787,-3.7787,-3.7787,-3.7787,-3.7864,-3.8721,-3.9249,-3.9597,-4.0468,-4.0797,-4.0797,-4.0797,-4.0797,-4.0797,-4.0797,-4.0797,-4.0797,-4.0797,-4.0797,-4.0797,-4.0797,-4.0797,-4.0797,-4.0797,-4.0797,-4.0797,-4.0797,-4.0797,-4.0797,-4.0797,-4.099,-4.1564,-4.2995,-4.3518,-4.4059,-4.52,-4.5633,-4.5729,-4.5452,-4.5633,-4.5807,-4.5807,-4.5807,-4.5807,-4.5807,-4.5316,-4.4543,-4.3421,-4.2028,-4.1087,-4.0816,-4.0797,-4.0797,-4.0797,-4.0752,-4.07,-4.0628,-4.0628,-4.0626,-4.061,-4.0595,-4.0573,-4.0531,-4.0504,-4.0496,-4.0496,-4.0496,-4.0496,-2.3091,-2.3477,-2.409,-2.4094,-2.5361,-2.7031,-2.8728,-2.9107,-2.9627,-3.1371,-3.1737,-3.2237,-3.3898,-3.3487,-3.3737,-3.6269,-3.6673,-3.6981,-3.7853,-3.7988,-3.7988,-3.7988,-3.7219,-3.6692,-3.6692,-3.5962,-3.55,-3.55,-3.55,-3.55,-3.55,-3.55,-3.55,-3.55,-3.5509,-3.5528,-3.5598,-3.5608,-3.5637,-3.5704,-3.5704,-3.6574,-3.8154,-3.729,-3.6884,-3.6884,-3.6884,-3.6884,-3.6961,-3.7825,-3.8702,-3.9578,-4.0448,-4.0797,-4.0797,-4.0797,-4.0797,-4.0797,-4.0797,-4.0797,-4.0797,-4.0797,-4.0797,-4.0797,-4.0797,-4.0797,-4.0797,-4.0797,-4.0797,-4.0797,-4.0797,-4.0797,-4.0797,-4.0797,-4.1409,-4.2222,-4.3092,-4.3982,-4.4574,-4.4594,-4.5239,-4.5529,-4.4755,-4.5278,-4.5807,-4.5807,-4.5807,-4.5807,-4.5787,-4.5787,-4.5142,-4.3479,-4.2512,-4.1661,-4.0874,-4.0797,-4.0797,-4.0797,-4.0797,-4.0778,-4.07,-4.07,-4.0668,-4.0595,-4.0591,-4.0607,-4.0607,-4.0531,-4.0496,-4.0496,-4.0496,-4.0496,-2.1522,-2.2184,-2.3392,-2.3957,-2.5361,-2.7035,-2.8723,-3.0044,-3.1583,-3.3904,-3.3891,-3.3609,-3.4109,-3.3994,-3.4071,-3.4814,-3.5468,-3.5942,-3.6212,-3.6231,-3.6231,-3.6231,-3.6,-3.5865,-3.5865,-3.5635,-3.55,-3.55,-3.55,-3.55,-3.55,-3.55,-3.55,-3.55,-3.5509,-3.5528,-3.5598,-3.5608,-3.5637,-3.5704,-3.5704,-3.5955,-3.6439,-3.6168,-3.6052,-3.6052,-3.6052,-3.6052,-3.611,-3.6961,-3.7793,-3.8663,-3.9559,-3.9887,-3.9965,-4.0565,-4.0797,-4.0797,-4.0797,-4.0797,-4.0797,-4.0797,-4.0797,-4.0797,-4.0797,-4.0797,-4.0797,-4.0797,-4.0797,-4.0797,-4.0797,-4.0797,-4.0797,-4.0797,-4.099,-4.1371,-4.2202,-4.2589,-4.3131,-4.4362,-4.4794,-4.5065,-4.5394,-4.5652,-4.5807,-4.5807,-4.5807,-4.5594,-4.5026,-4.4968,-4.4311,-4.257,-4.2144,-4.1661,-4.0874,-4.0797,-4.0797,-4.0797,-4.0797,-4.079,-4.0778,-4.0778,-4.0739,-4.0668,-4.0673,-4.0639,-4.0607,-4.0573,-4.0558,-4.0496,-4.0496,-4.0496,-2.2086,-2.2879,-2.4086,-2.4882,-2.6111,-2.7651,-2.9665,-3.1198,-3.2814,-3.5038,-3.4814,-3.4321,-3.4641,-3.443,-3.4321,-3.4661,-3.5154,-3.55,-3.55,-3.55,-3.5365,-3.5026,-3.5288,-3.5231,-3.4519,-3.4776,-3.4834,-3.4481,-3.4462,-3.4462,-3.4462,-3.4462,-3.4462,-3.4462,-3.4488,-3.4693,-3.5077,-3.5087,-3.5289,-3.5704,-3.5704,-3.5704,-3.5704,-3.5704,-3.5704,-3.5704,-3.5704,-3.5704,-3.5762,-3.6574,-3.7212,-3.7767,-3.8644,-3.921,-3.9559,-4.0081,-4.0507,-4.0797,-4.0797,-4.0797,-4.0797,-4.0797,-4.0797,-4.0797,-4.0797,-4.0797,-4.0797,-4.0797,-4.0797,-4.0797,-4.0797,-4.0797,-4.0797,-4.0797,-4.1048,-4.1409,-4.1893,-4.228,-4.2725,-4.344,-4.3846,-4.4233,-4.4717,-4.5084,-4.5316,-4.5316,-4.5316,-4.5258,-4.5104,-4.4794,-4.4052,-4.2667,-4.2202,-4.1661,-4.0874,-4.0797,-4.0797,-4.0797,-4.0797,-4.0797,-4.0797,-4.0797,-4.0784,-4.0739,-4.0707,-4.0673,-4.0631,-4.0617,-4.0576,-4.0539,-4.0539,-4.0531,-2.3659,-2.4543,-2.5498,-2.6396,-2.7368,-2.8764,-3.1147,-3.2275,-3.3256,-3.4923,-3.4622,-3.4314,-3.5115,-3.4622,-3.4334,-3.5135,-3.525,-3.525,-3.525,-3.525,-3.4962,-3.4186,-3.4776,-3.4635,-3.3045,-3.3622,-3.3744,-3.2968,-3.2891,-3.2891,-3.2891,-3.2891,-3.2891,-3.2891,-3.2967,-3.3388,-3.417,-3.4179,-3.4618,-3.5452,-3.553,-3.5568,-3.5568,-3.5665,-3.5704,-3.5704,-3.5704,-3.5704,-3.5762,-3.6497,-3.6787,-3.6884,-3.7729,-3.8605,-3.9385,-3.9462,-4.0042,-4.0797,-4.0797,-4.0797,-4.0797,-4.0797,-4.0797,-4.0797,-4.0797,-4.0797,-4.0797,-4.0797,-4.0797,-4.0797,-4.0809,-4.0815,-4.0815,-4.0827,-4.137,-4.1893,-4.1893,-4.2512,-4.2879,-4.2241,-4.2763,-4.3343,-4.3498,-4.4175,-4.4717,-4.473,-4.4666,-4.4905,-4.5711,-4.5182,-4.4363,-4.3401,-4.2589,-4.1757,-4.0874,-4.0797,-4.0797,-4.0797,-4.0797,-4.0797,-4.0797,-4.0797,-4.0797,-4.0797,-4.0739,-4.07,-4.07,-4.0628,-4.0612,-4.0595,-4.0607,-4.0573,-2.1358,-2.2756,-2.475,-2.6299,-2.8287,-3.0179,-3.1429,-3.1833,-3.2237,-3.3256,-3.3314,-3.3237,-3.343,-3.3314,-3.3237,-3.343,-3.3468,-3.3468,-3.3468,-3.3468,-3.3391,-3.3199,-3.3353,-3.3314,-3.2949,-3.3064,-3.3103,-3.291,-3.2891,-3.2891,-3.2891,-3.2891,-3.2891,-3.2891,-3.2972,-3.3084,-3.3282,-3.3327,-3.3469,0.0,-3.435,-3.4684,-3.4703,-3.54,-3.5704,-3.5704,-3.5704,-3.5704,-3.5704,-3.5897,-3.5955,-3.6033,-3.6864,-3.7715,-3.8566,-3.9249,-4.0042,-4.0797,-4.0797,-4.0797,-4.0797,-4.0797,-4.0797,-4.0797,-4.0797,-4.0797,-4.0797,-4.0797,-4.0797,-4.0821,-4.0853,-4.0873,-4.0893,-4.0949,-4.1004,-4.1067,-4.1067,-4.1222,-4.1661,-4.2802,-4.3169,-4.373,-4.5045,-4.5413,-4.557,-4.5675,-4.5157,-4.504,-4.5859,-4.5809,-4.507,-4.3473,-4.3131,-4.2415,-4.0932,-4.0797,-4.0797,-4.0797,-4.0797,-4.0797,-4.0797,-4.0797,-4.0797,-4.0797,-4.0784,-4.0746,-4.07,-4.0694,-4.0654,-4.06,-4.0603,-4.058,-2.1437,-2.2866,-2.4652,-2.6746,-2.8584,-3.009,-3.0929,-3.1119,-3.1232,-3.1619,-3.2346,-3.2891,-3.2891,-3.2891,-3.2891,-3.2891,-3.2891,-3.2891,-3.2891,-3.2891,-3.2756,-3.2372,-3.2679,-3.2583,-3.1775,-3.2083,-3.216,-3.1731,-3.1692,-3.1692,-3.1692,-3.1692,-3.1692,-3.1692,-3.1763,-3.2009,-3.2414,-3.2463,-3.2681,-3.3107,-3.3557,-3.4002,-3.4432,-3.5303,-3.5704,-3.5704,-3.5704,-3.5704,-3.5704,-3.5704,-3.5704,-3.5742,-3.6168,-3.6845,-3.7677,-3.8566,-3.9423,-4.0236,-4.0661,-4.0797,-4.0797,-4.0797,-4.082,-4.0846,-4.0846,-4.0863,-4.0903,-4.0903,-4.0903,-4.0893,-4.0941,-4.0953,-4.0964,-4.0984,-4.0953,-4.0903,-4.0903,-4.0903,-4.115,-4.2019,-4.251,-4.3053,-4.3922,-4.4078,-4.437,-4.5282,-4.4705,-4.4623,-4.5884,-4.5663,-4.5024,-4.4069,-4.3189,-4.2318,-4.1448,-4.1029,-4.0797,-4.0797,-4.0797,-4.0797,-4.0797,-4.0797,-4.0797,-4.0797,-4.0797,-4.0784,-4.0746,-4.0746,-4.0707,-4.0654,-4.0653,-4.0631,-2.1685,-2.3242,-2.4758,-2.7112,-2.8481,-2.9468,-3.0139,-3.0404,-3.0505,-3.0457,-3.1521,-3.2468,-3.2468,-3.2468,-3.2468,-3.2468,-3.2468,-3.2468,-3.2468,-3.2468,-3.2218,-3.1545,-3.2064,-3.1929,-3.0538,-3.1058,-3.1173,-3.0442,-3.0404,-3.0404,-3.0404,-3.0404,-3.0404,-3.039,-3.0472,-3.0851,-3.157,-3.1598,-3.1947,-3.2662,-3.2817,-3.332,-3.42,-3.4911,-3.5414,-3.5704,-3.5704,-3.5704,-3.5709,-3.5706,-3.5697,-3.5697,-3.5718,-3.6226,-3.7035,-3.7906,-3.8687,-3.9461,-4.0469,-4.074,-4.0624,-4.0779,-4.0863,-4.0911,-4.0911,-4.0964,-4.099,-4.099,-4.099,-4.0994,-4.1006,-4.1028,-4.1011,-4.1022,-4.1022,-4.1037,-4.0997,-4.099,-4.1088,-4.1383,-4.2085,-4.265,-4.2646,-4.2403,-4.2818,-4.4553,-4.41,-4.4161,-4.5884,-4.5441,-4.4899,-4.4725,-4.3386,-4.2412,-4.2276,-4.1501,-4.1036,-4.1036,-4.092,-4.0831,-4.0827,-4.0827,-4.0815,-4.0797,-4.0797,-4.0797,-4.0797,-4.0797,-4.0778,-4.0726,-4.07,-4.0668,-1.9222,-2.1908,-2.4628,-2.6412,-2.8044,-2.927,-2.9414,-3.0035,-3.0579,-3.0581,-3.0656,-3.0731,-3.0731,-3.0731,-3.0731,-3.0731,-3.0731,-3.0731,-3.0731,-3.0731,-3.0692,-3.0596,-3.0673,-3.0654,-3.0423,-3.0519,-3.0538,-3.0404,-3.0404,-3.0404,-3.0404,-3.0404,-3.0396,-3.0406,-3.0463,-3.0553,-3.0665,-3.0738,-3.083,-3.0946,-3.1637,-3.243,-3.3281,-3.3397,-3.4272,-3.5704,-3.5704,-3.5704,-3.5695,-3.5703,-3.57,-3.5709,-3.5762,-3.631,-3.718,-3.8043,-3.8445,-3.8769,-4.0415,-4.0473,-3.9963,-4.0726,-4.099,-4.0997,-4.0997,-4.0984,-4.099,-4.099,-4.099,-4.1006,-4.1072,-4.1081,-4.1109,-4.1168,-4.117,-4.1143,-4.1034,-4.099,-4.1422,-4.2883,-4.3858,-4.4458,-4.4458,-4.3253,-4.2873,-4.4612,-4.4188,-4.4271,-4.5964,-4.6074,-4.5682,-4.4871,-4.4565,-4.4129,-4.335,-4.2509,-4.2003,-4.2003,-4.1356,-4.0953,-4.0893,-4.0888,-4.0862,-4.0797,-4.0797,-4.0797,-4.0797,-4.0797,-4.079,-4.0784,-4.0733,-4.0694,-1.9803,-2.2064,-2.4054,-2.623,-2.7315,-2.7974,-2.8465,-2.9264,-2.9917,-2.9888,-3.0211,-3.0511,-3.0503,-3.0509,-3.0501,-3.0456,-3.0465,-3.0465,-3.0465,-3.0465,-3.0465,-3.0465,-3.0022,-2.9711,-2.9684,-2.9256,-2.9006,-2.9006,-2.9429,-2.9679,-2.9679,-3.0133,-3.04,-3.0398,-3.0479,-3.0505,-3.0496,-3.0564,-3.0598,-3.0598,-3.0961,-3.1583,-3.2436,-3.2462,-3.3385,-3.4974,-3.5016,-3.5272,-3.5703,-3.5737,-3.5765,-3.5749,-3.578,-3.6025,-3.649,-3.7347,-3.7675,-3.7845,-3.9114,-3.9286,-3.9033,-3.9426,-3.99,-4.0337,-4.0337,-4.0688,-4.1114,-4.1114,-4.1114,-4.1116,-4.1146,-4.1167,-4.1169,-4.1191,-4.1191,-4.1171,-4.1119,-4.1114,-4.1465,-4.2656,-4.3181,-4.3453,-4.3453,-4.2839,-4.2787,-4.4037,-4.3925,-4.4316,-4.603,-4.6215,-4.6041,-4.5631,-4.5114,-4.4647,-4.4257,-4.3436,-4.2715,-4.2224,-4.1873,-4.1468,-4.0984,-4.0964,-4.0945,-4.0906,-4.0848,-4.0797,-4.0797,-4.0797,-4.0797,-4.0797,-4.0778,-4.077,-1.9456,-2.1092,-2.2362,-2.5143,-2.6162,-2.6704,-2.7526,-2.8423,-2.9073,-2.9024,-2.97,-3.0263,-3.0054,-3.035,-3.0508,-3.0244,-3.0193,-3.0111,-2.9909,-2.989,-2.989,-2.989,-2.9313,-2.89,-2.8845,-2.8295,-2.7947,-2.7947,-2.8507,-2.8854,-2.8854,-2.9453,-2.9917,-3.0139,-3.0201,-3.032,-3.0546,-3.0602,-3.0621,-3.0595,-3.0625,-3.097,-3.1592,-3.166,-3.2445,-3.3813,-3.4307,-3.4855,-3.5422,-3.5711,-3.5831,-3.5831,-3.5845,-3.5849,-3.5966,-3.6822,-3.7015,-3.6976,-3.8066,-3.8317,-3.8161,-3.8376,-3.9066,-3.983,-3.983,-4.0465,-4.1191,-4.1191,-4.1191,-4.1191,-4.1191,-4.1191,-4.1191,-4.1191,-4.1191,-4.1191,-4.1191,-4.1367,-4.168,-4.2285,-4.2402,-4.2402,-4.2402,-4.2226,-4.2461,-4.3535,-4.3691,-4.4336,-4.6074,-4.6264,-4.6234,-4.6234,-4.5607,-4.518,-4.518,-4.4185,-4.3266,-4.2622,-4.2171,-4.1676,-4.1056,-4.1037,-4.1028,-4.099,-4.0893,-4.0851,-4.0851,-4.0851,-4.0851,-4.0851,-4.0851,-4.0873,-1.6252,-1.7553,-1.8989,-2.2356,-2.4434,-2.5899,-2.6766,-2.7626,-2.8262,-2.8257,-2.8941,-2.9314,-2.8569,-2.9601,-3.0321,-2.9502,-2.936,-2.9101,-2.8323,-2.8223,-2.8223,-2.8223,-2.8184,-2.8161,-2.8158,-2.8119,-2.808,-2.808,-2.8138,-2.8158,-2.8158,-2.8191,-2.8602,-2.9424,-2.9458,-2.9844,-3.068,-3.0682,-3.0653,-3.0609,-3.0659,-3.0726,-3.0765,-3.0767,-3.1269,-3.2213,-3.3871,-3.4573,-3.4637,-3.5525,-3.5892,-3.5895,-3.5954,-3.5996,-3.6093,-3.6972,-3.6777,-3.6308,-3.8007,-3.8046,-3.75,-3.832,-3.9179,-3.9883,-3.9883,-4.0508,-4.1191,-4.1191,-4.1191,-4.1191,-4.1191,-4.1191,-4.1191,-4.1191,-4.1191,-4.1191,-4.1191,-4.1797,-4.2344,-4.2383,-4.2402,-4.2402,-4.2402,-4.1777,-4.1816,-4.3457,-4.3691,-4.4336,-4.6074,-4.6308,-4.6289,-4.6289,-4.625,-4.6211,-4.6211,-4.4668,-4.3672,-4.3613,-4.2129,-4.1207,-4.1108,-4.1087,-4.1068,-4.0994,-4.0984,-4.0981,-4.0981,-4.0981,-4.0981,-4.0981,-4.0981,-4.0984,-1.5329,-1.6863,-1.8452,-2.0808,-2.2661,-2.4168,-2.5033,-2.6343,-2.7375,-2.7366,-2.8098,-2.863,-2.8359,-2.9209,-2.9652,-2.8741,-2.8598,-2.8498,-2.8201,-2.8155,-2.815,-2.815,-2.7661,-2.7312,-2.7265,-2.6767,-2.6439,-2.643,-2.6941,-2.7275,-2.7275,-2.7792,-2.8237,-2.8565,-2.9109,-2.9822,-3.0689,-3.0709,-3.068,-3.0661,-3.073,-3.0767,-3.0767,-3.0805,-3.1006,-3.1356,-3.2546,-3.363,-3.4589,-3.4971,-3.5466,-3.5974,-3.5996,-3.5996,-3.6035,-3.6348,-3.6269,-3.6094,-3.6719,-3.6738,-3.6523,-3.6836,-3.7891,-3.9062,-3.9062,-4.0078,-4.1191,-4.1191,-4.1191,-4.1191,-4.1191,-4.1191,-4.1191,-4.1191,-4.1191,-4.1191,-4.1191,-4.1426,-4.1621,-4.1621,-4.2051,-4.2246,-4.1719,-4.1816,-4.2168,-4.2773,-4.2871,-4.3281,-4.4473,-4.5117,-4.5469,-4.5469,-4.5976,-4.6074,-4.5508,-4.4883,-4.4062,-4.2949,-4.2305,-4.1738,-4.1188,-4.1169,-4.1147,-4.1139,-4.1139,-4.1099,-4.099,-4.099,-4.099,-4.099,-4.099,-4.1014,-1.3828,-1.5348,-1.7177,-1.9522,-2.0703,-2.1937,-2.4234,-2.5207,-2.5785,-2.6372,-2.72,-2.7753,-2.748,-2.8144,-2.8511,-2.7891,-2.7809,-2.7691,-2.7396,-2.7353,-2.735,-2.735,-2.6843,-2.6479,-2.6446,-2.5907,-2.5578,-2.5572,-2.61,0.0,-2.6433,-2.6987,-2.7425,-2.7727,-2.8576,-2.9434,-3.0281,-3.0313,-3.0469,-3.0732,-3.0801,-3.0831,-3.0832,-3.0878,-3.0898,-3.0937,-3.1504,-3.2537,-3.3838,-3.4452,-3.5039,-3.5586,-3.5898,-3.5996,-3.5996,-3.5996,-3.5996,-3.5996,-3.5996,-3.5996,-3.5996,-3.5996,-3.7187,-3.8594,-3.8594,-3.9824,-4.1191,-4.1191,-4.1191,-4.1191,-4.1191,-4.1191,-4.1191,-4.1191,-4.1191,-4.1191,-4.1191,-4.1191,-4.1191,-4.1191,-4.1621,-4.1836,-4.1289,-4.1641,-4.209,-4.2363,-4.2402,-4.2715,-4.3594,-4.4219,-4.4551,-4.4551,-4.5078,-4.5195,-4.4609,-4.4297,-4.3633,-4.2461,-4.2148,-4.1758,-4.1211,-4.1191,-4.1191,-4.1191,-4.1191,-4.1167,-4.1068,-4.1068,-4.1068,-4.1068,-4.1068,-4.1083,0.0,0.0,0.0,-1.8301,-1.8555,-1.9296,-2.4364,0.0,-2.3538,-2.5297,-2.6255,-2.6573,-2.584,-2.6387,-2.6953,-2.6952,-2.6952,-2.6679,-2.5818,-2.57,-2.57,-2.57,-2.57,-2.57,-2.57,-2.57,-2.57,-2.57,-2.57,-2.57,-2.57,-2.5702,-2.6093,-2.6973,-2.7812,-2.865,-2.9453,-2.9549,-2.9998,-3.0762,-3.0857,-3.0898,-3.0898,-3.0898,-3.0898,-3.0898,-3.0898,-3.1387,-3.2285,-3.3945,-3.4668,-3.4785,-3.5625,-3.5976,-3.5996,-3.5996,-3.5996,-3.5996,-3.5996,-3.5996,-3.5996,-3.5996,-3.7187,-3.8594,-3.8594,-3.9824,-4.1191,-4.1191,-4.1191,-4.1191,-4.1191,-4.1191,-4.1191,-4.1191,-4.1191,-4.1191,-4.1191,-4.1191,-4.1191,-4.1191,-4.1191,-4.1191,-4.1191,-4.1191,-4.1465,-4.2246,-4.2363,-4.2676,-4.3516,-4.3652,-4.3652,-4.3652,-4.3672,-4.3691,-4.3652,-4.2891,-4.2383,-4.2363,-4.1621,-4.1191,-4.1191,-4.1191,-4.1191,-4.1191,-4.1191,-4.1191,-4.1191,-4.1191,-4.1191,-4.1191,-4.1191,-4.1191,-1.1777,0.0,0.0,0.0,0.0,0.0,0.0,0.0,-2.1952,-2.4276,-2.4471,-2.453,-2.5527,-2.5898,-2.6055,-2.6055,-2.6055,-2.5976,-2.5722,-2.5702,-2.5702,-2.5702,-2.5701,-2.57,-2.57,-2.5701,-2.5701,0.0,-2.5701,-2.5702,-2.5702,-2.5703,-2.6094,-2.6973,-2.7226,-2.7773,-2.8612,-2.9277,-2.9707,-2.994,-3.0586,-3.0898,-3.0898,-3.0898,-3.0898,-3.0898,-3.0898,-3.1035,-3.1348,-3.2441,-3.3613,-3.4726,-3.4961,-3.5449,-3.5996,-3.5996,-3.5996,-3.5996,-3.5996,-3.5996,-3.5996,-3.5996,-3.7187,-3.8594,-3.8594,-3.9824,-4.1191,-4.1191,-4.1191,-4.1191,-4.1191,-4.1191,-4.1191,-4.1191,-4.1191,-4.1191,-4.1191,-4.1191,-4.1191,-4.1191,-4.1191,-4.1191,-4.1191,-4.1191,-4.1289,-4.1504,-4.1523,-4.1621,-4.1855,-4.2402,-4.2754,-4.2754,-4.332,-4.3437,-4.2812,-4.2539,-4.2148,-4.1562,-4.1328,-4.1191,-4.1191,-4.1191,-4.1191,-4.1191,-4.1191,-4.1191,-4.1191,-4.1191,-4.1191,-4.1191,-4.1191,-4.1191,-1.2363,-1.3105,-1.4277,-1.5,0.0,0.0,-1.957,-1.9922,-2.0332,0.0,-2.3769,-2.4004,-2.498,-2.5449,-2.5703,-2.5703,-2.5703,-2.5703,-2.5703,-2.5703,-2.5703,-2.5703,-2.5702,-2.5702,-2.5702,-2.5703,-2.5703,-2.5702,-2.5703,-2.5703,-2.5703,-2.5703,-2.5937,-2.6445,-2.6465,-2.6875,-2.7754,-2.8262,-2.8887,-2.9609,-3.0117,-3.0547,-3.0898,-3.0898,-3.0898,-3.0898,-3.0898,-3.0898,-3.0937,-3.1445,-3.2656,-3.4199,-3.4551,-3.5234,-3.5996,-3.5996,-3.5996,-3.5996,-3.5996,-3.5996,-3.5996,-3.5996,-3.6934,-3.8066,-3.8066,-3.9277,-4.0664,-4.0664,-4.0918,-4.1191,-4.1191,-4.1191,-4.1191,-4.1191,-4.1191,-4.1191,-4.1191,-4.1191,-4.1191,-4.1191,-4.1191,-4.1191,-4.1191,-4.1191,-4.1191,-4.1191,-4.1191,-4.1191,-4.1191,-4.1601,-4.1894,-4.1894,-4.2344,-4.2441,-4.1933,-4.1894,-4.1699,-4.123,-4.1191,-4.1191,-4.1191,-4.1191,-4.1191,-4.1191,-4.1191,-4.1191,-4.1191,-4.1191,-4.1191,-4.1191,-4.1191,-4.1191,-1.3379,-1.3769,-1.4746,-1.6191,-1.4922,0.0,-1.9844,-1.9394,-1.875,0.0,-2.3144,-2.375,-2.3945,-2.4687,-2.5273,-2.5273,-2.543,-2.5586,-2.5684,-2.5703,-2.5703,-2.5703,-2.5703,-2.5703,-2.5703,-2.5703,-2.5703,-2.5703,-2.5703,-2.5703,-2.5703,-2.5703,-2.5703,-2.5703,-2.5703,-2.6074,-2.6855,-2.6953,-2.7773,-2.9316,-2.9512,-3.0019,-3.0762,-3.0859,-3.0898,-3.0898,-3.0898,-3.0898,-3.0898,-3.0898,-3.1894,-3.3476,-3.4258,-3.5156,-3.5996,-3.5996,-3.5996,-3.5996,-3.5996,-3.5996,-3.5996,-3.5996,-3.6582,-3.7305,-3.7305,-3.8516,-3.9922,-4.0019,-4.0605,-4.1191,-4.1191,-4.1191,-4.1191,-4.1191,-4.1191,-4.1191,-4.1191,-4.1191,-4.1191,-4.1191,-4.1191,-4.1191,-4.1191,-4.1191,-4.1191,-4.1191,-4.1191,-4.1191,-4.1191,-4.1191,-4.1191,-4.1191,-4.1191,-4.1191,-4.1191,-4.1191,-4.1191,-4.1191,-4.1191,-4.1191,-4.1191,-4.1191,-4.1191,-4.1191,-4.1191,-4.1191,-4.1191,-4.1191,-4.1191,-4.1191,-4.1191,-4.1191,-1.4941,-1.5547,-1.6113,-1.5742,-1.5801,0.0,-1.5664,-1.6309,-1.7344,0.0,-1.9121,-1.9687,-2.1074,-2.2051,-2.2637,-2.2637,-2.3769,-2.4902,-2.5605,-2.5703,-2.5703,-2.5703,-2.5703,-2.5703,-2.5703,-2.5703,-2.5703,-2.5703,-2.5703,-2.5703,-2.5703,-2.5703,-2.5703,-2.5703,-2.5703,-2.5781,-2.5957,-2.6641,-2.7168,-2.7519,-2.8926,-2.9687,-2.9883,-3.0586,-3.0898,-3.0898,-3.0898,-3.0898,-3.0898,-3.0898,-3.1894,-3.3418,-3.3594,-3.4609,-3.5996,-3.5996,-3.5996,-3.5996,-3.5996,-3.5996,-3.5996,-3.5996,-3.6582,-3.7305,-3.7305,-3.8516,-4.0059,-4.0742,-4.1074,-4.1191,-4.1191,-4.1191,-4.1191,-4.1191,-4.1191,-4.1191,-4.1191,-4.1191,-4.1191,-4.1191,-4.1191,-4.1191,-4.1191,-4.1191,-4.1191,-4.1191,-4.1191,-4.1191,-4.1191,-4.1191,-4.1191,-4.1191,-4.1191,-4.1191,-4.1191,-4.1191,-4.1191,-4.1191,-4.1191,-4.1191,-4.1191,-4.1191,-4.1191,-4.1191,-4.1191,-4.1191,-4.1191,-4.1191,-4.1191,-4.1191,-4.1191,-4.1191,-1.6055,-1.6367,-1.6699,-1.6699,-1.6367,0.0,0.0,-1.5703,-1.6016,-1.8203,-1.7969,-1.8027,-2.0195,-2.0957,-2.1387,-2.1836,-2.2969,-2.3809,-2.3809,-2.4902,-2.5703,-2.5703,-2.5703,-2.5703,-2.5703,-2.5703,-2.5703,-2.5703,-2.5703,-2.5703,-2.5703,-2.5703,-2.5703,-2.5703,-2.5703,-2.5703,-2.5703,-2.6133,-2.6562,-2.7012,-2.832,-2.918,-2.9629,-3.0508,-3.0898,-3.0898,-3.0898,-3.0898,-3.0898,-3.0898,-3.1641,-3.2793,-3.2793,-3.3848,-3.5351,-3.5351,-3.5625,-3.5996,-3.5996,-3.5996,-3.5996,-3.5996,-3.6309,-3.6641,-3.6641,-3.7871,-3.9434,-4.0312,-4.0859,-4.1191,-4.1191,-4.1191,-4.1191,-4.1191,-4.1191,-4.1191,-4.1191,-4.1191,-4.1191,-4.1191,-4.1191,-4.1191,-4.1191,-4.1191,-4.1191,-4.1191,-4.1191,-4.1191,-4.1191,-4.1191,-4.1191,-4.1191,-4.1191,-4.1191,-4.1191,-4.1191,-4.1191,-4.1191,-4.1191,-4.1191,-4.1191,-4.1191,-4.1191,-4.1191,-4.1191,-4.1191,-4.1191,-4.1191,-4.1191,-4.1191,-4.1191,-4.1191,-1.7207,-1.7441,-1.7754,-1.7949,-1.7187,-1.6543,0.0,0.0,0.0,0.0,0.0,0.0,0.0,0.0,0.0,-2.0781,0.0,0.0,0.0,-2.3301,0.0,-2.4941,-2.5254,-2.5449,-2.5449,-2.5293,-2.5332,-2.5664,-2.5391,-2.5352,-2.5684,-2.5703,-2.5703,-2.5703,-2.5703,-2.5703,-2.5703,-2.5703,-2.6055,-2.6758,-2.7637,-2.8516,-2.9375,-3.0254,-3.0742,-3.0898,-3.0898,-3.0898,-3.0898,-3.0898,-3.1309,-3.1973,-3.2305,-3.3359,-3.4726,-3.4883,-3.5391,-3.5996,-3.5996,-3.5996,-3.5996,-3.5996,-3.5996,-3.6035,-3.6191,-3.7226,-3.8574,-3.9609,-4.041,-4.0996,-4.1152,-4.1191,-4.1191,-4.1191,-4.1191,-4.1191,-4.1191,-4.1191,-4.1191,-4.1191,-4.1191,-4.1191,-4.1191,-4.1191,-4.1191,-4.1191,-4.1191,-4.1191,-4.1191,-4.1191,-4.1191,-4.1191,-4.1191,-4.1191,-4.1191,-4.1191,-4.1191,-4.1191,-4.1191,-4.1191,-4.1191,-4.1191,-4.1191,-4.1191,-4.1191,-4.1191,-4.1191,-4.1191,-4.1191,-4.1191,-4.1191,-4.1191,-1.9004,-2.0137,-2.0781,-1.8555,-1.9004,-1.9043,-1.5371,0.0,-1.6074,-1.4922,0.0,0.0,0.0,0.0,0.0,0.0,0.0,0.0,-1.9609,-2.0508,-2.1465,-2.2246,-2.3633,-2.4551,-2.4551,-2.3848,-2.4043,-2.5586,-2.4316,-2.4121,-2.5625,-2.5703,-2.5703,-2.5703,-2.5703,-2.5703,-2.5703,-2.5703,-2.5742,-2.5859,-2.6738,-2.7598,-2.8476,-2.9355,-3.0176,-3.0898,-3.0898,-3.0898,-3.0898,-3.0898,-3.0957,-3.1191,-3.2676,-3.3848,-3.4785,-3.5566,-3.5918,-3.5996,-3.5996,-3.5996,-3.5996,-3.5996,-3.5996,-3.6133,-3.6914,-3.7285,-3.7793,-3.9434,-3.9961,-4.0234,-4.0996,-4.1191,-4.1191,-4.1191,-4.1191,-4.1191,-4.1191,-4.1191,-4.1191,-4.1191,-4.1191,-4.1191,-4.1191,-4.1191,-4.1191,-4.1191,-4.1191,-4.1191,-4.1191,-4.1191,-4.1191,-4.1191,-4.1191,-4.1191,-4.1191,-4.1191,-4.1191,-4.1191,-4.1191,-4.1191,-4.1191,-4.1191,-4.1191,-4.1191,-4.1191,-4.1191,-4.1191,-4.1191,-4.1191,-4.1191,-4.1191,-4.1191,-1.9297,-2.0195,-2.0762,-1.9141,-1.9297,-1.9102,-1.6269,0.0,-1.5273,0.0,0.0,0.0,0.0,0.0,0.0,0.0,-1.7734,0.0,0.0,0.0,-1.9785,0.0,0.0,0.0,-2.3613,-2.3379,-2.3867,-2.5566,-2.4102,-2.3887,-2.5605,-2.5703,-2.5703,-2.5703,-2.5703,-2.5703,-2.5703,-2.5703,-2.5703,-2.5703,-2.6582,-2.7461,-2.832,-2.9199,-3.0078,-3.0898,-3.0898,-3.0898,-3.0898,-3.0898,-3.0898,-3.1016,-3.2226,-3.293,-3.3359,-3.418,-3.4805,-3.5312,-3.582,-3.5996,-3.5996,-3.5996,-3.5996,-3.6074,-3.6426,-3.6894,-3.7441,-3.8184,-3.9121,-3.998,-4.0351,-4.082,-4.1191,-4.1191,-4.1191,-4.1191,-4.1191,-4.1191,-4.1191,-4.1191,-4.1191,-4.1191,-4.1191,-4.1191,-4.1191,-4.1191,-4.1191,-4.1191,-4.1191,-4.1191,-4.1191,-4.1191,-4.1191,-4.1191,-4.1191,-4.1191,-4.1191,-4.1191,-4.1191,-4.1191,-4.1191,-4.1191,-4.1191,-4.1191,-4.1191,-4.1191,-4.1191,-4.1191,-4.1191,-4.1191,-4.1191,-4.1191,-1.9727,0.0,0.0,0.0,0.0,0.0,0.0,0.0,0.0,0.0,0.0,0.0,0.0,0.0,0.0,0.0,0.0,-1.7129,0.0,-1.6484,0.0,0.0,0.0,0.0,0.0,-2.2051,-2.2676,-2.4844,0.0,-2.3379,-2.5586,-2.5703,-2.5703,-2.5703,-2.5703,-2.5703,-2.5703,-2.5703,-2.5703,-2.5703,-2.6348,-2.7109,-2.7969,-2.8848,-2.9726,-3.0566,-3.0801,-3.0898,-3.0898,-3.0898,-3.0898,-3.0957,-3.1601,-3.1836,-3.1992,-3.3281,-3.416,-3.4824,-3.5703,-3.5996,-3.5996,-3.5996,-3.5996,-3.5996,-3.5996,-3.6445,-3.6992,-3.7226,-3.8203,-3.9297,-3.9785,-4.0371,-4.0898,-4.1133,-4.1191,-4.1191,-4.1191,-4.1191,-4.1191,-4.1191,-4.1191,-4.1191,-4.1191,-4.1191,-4.1191,-4.1191,-4.1191,-4.1191,-4.1191,-4.1191,-4.1191,-4.1191,-4.1191,-4.1191,-4.1191,-4.1191,-4.1191,-4.1191,-4.1191,-4.1191,-4.1191,-4.1191,-4.1191,-4.1191,-4.1191,-4.1191,-4.1191,-4.1191,-4.1191,-4.1191,-4.1191,-4.1191,0.0,0.0,0.0,-1.7832,0.0,0.0,0.0,0.0,-1.7656,0.0,0.0,0.0,0.0,0.0,0.0,0.0,0.0,0.0,0.0,0.0,0.0,0.0,0.0,0.0,0.0,-1.916,-1.959,0.0,-2.168,0.0,-2.5527,-2.5703,-2.5703,-2.5703,-2.5703,-2.5703,-2.5703,-2.5703,-2.5703,-2.5703,-2.5723,-2.6191,-2.707,-2.7949,-2.8828,-2.9687,-3.0527,-3.0898,-3.0898,-3.0898,-3.0898,-3.0898,-3.0937,-3.0937,-3.123,-3.373,-3.4687,-3.4824,-3.5703,-3.5996,-3.5996,-3.5996,-3.5996,-3.5996,-3.5996,-3.6016,-3.6211,-3.7051,-3.7344,-3.7773,-3.9453,-3.9922,-4.0156,-4.0996,-4.1191,-4.1191,-4.1191,-4.1191,-4.1191,-4.1191,-4.1191,-4.1191,-4.1191,-4.1191,-4.1191,-4.1191,-4.1191,-4.1191,-4.1191,-4.1191,-4.1191,-4.1191,-4.1191,-4.1191,-4.1191,-4.1191,-4.1191,-4.1191,-4.1191,-4.1191,-4.1191,-4.1191,-4.1191,-4.1191,-4.1191,-4.1191,-4.1191,-4.1191,-4.1191,-4.1191,-4.1191,-4.1191,0.0,0.0,-2.3082,-1.9995,0.0,0.0,0.0,0.0,0.0,0.0,0.0,0.0,0.0,0.0,0.0,0.0,0.0,0.0,0.0,0.0,0.0,0.0,0.0,-1.832,0.0,0.0,0.0,0.0,-2.1269,0.0,0.0,-2.5703,-2.5703,-2.5703,-2.5703,-2.5703,-2.5703,-2.5703,-2.5703,-2.5703,-2.5703,-2.6465,-2.7871,-2.8164,-2.9082,-3.0488,-3.0762,-3.0898,-3.0898,-3.0898,-3.0898,-3.0898,-3.0898,-3.0898,-3.1133,-3.3105,-3.3848,-3.4043,-3.5508,-3.5996,-3.5996,-3.5996,-3.5996,-3.5996,-3.5996,-3.5996,-3.6055,-3.6367,-3.6855,-3.7441,-3.8027,-3.9043,-3.9961,-4.0273,-4.0781,-4.1191,-4.1191,-4.1191,-4.1191,-4.1191,-4.1191,-4.1191,-4.1191,-4.1191,-4.1191,-4.1191,-4.1191,-4.1191,-4.1191,-4.1191,-4.1191,-4.1191,-4.1191,-4.1191,-4.1191,-4.1191,-4.1191,-4.1191,-4.1191,-4.1191,-4.1191,-4.1191,-4.1191,-4.1191,-4.1191,-4.1191,-4.1191,-4.1191,-4.1191,-4.1191,-4.1191,-4.1191,-2.3086,-2.3585,0.0,-2.1082,-2.0698,0.0,-1.7685,0.0,-1.9074,0.0,0.0,0.0,0.0,0.0,0.0,0.0,0.0,0.0,0.0,-1.2421,0.0,0.0,0.0,-1.6641,0.0,-1.6641,-1.8086,-2.1621,-2.0801,0.0,0.0,0.0,-2.5703,-2.5703,-2.5703,-2.5703,-2.5703,-2.5703,-2.5703,-2.5703,-2.5703,-2.6445,-2.7851,-2.8164,-2.9082,-3.0449,-3.0762,-3.0898,-3.0898,-3.0898,-3.0898,-3.0898,-3.0898,-3.0898,-3.1094,-3.2773,-3.3789,-3.4492,-3.5605,-3.5996,-3.5996,-3.5996,-3.5996,-3.5996,-3.5996,-3.5996,-3.5996,-3.5996,-3.6406,-3.6914,-3.7226,-3.8125,-3.9043,-3.9355,-3.9863,-4.0351,-4.0664,-4.0742,-4.082,-4.1133,-4.1191,-4.1191,-4.1191,-4.1191,-4.1191,-4.1191,-4.1191,-4.1191,-4.1191,-4.1191,-4.1191,-4.1191,-4.1191,-4.1191,-4.1191,-4.1191,-4.1191,-4.1191,-4.1191,-4.1191,-4.1191,-4.1191,-4.1191,-4.1191,-4.1191,-4.1191,-4.1191,-4.1191,-4.1191,-4.1191,-4.1191,-4.1191]},{"header":{"parameterUnit":"m.s-1","parameterCategory":1,"la1":30.6,"la2":29.2853,"lo1":-89.7004,"lo2":-87.6739,"dy":0.0162,"dx":0.0183,"nx":112,"ny":82,"refTime":"2025-02-03T06:00:00:Z","depth":0,"parameterNumber":3,"parameterNumberName":"V-component_of_WINDS"},"data":[0.0,0.0,0.0,0.0,0.0,0.0,0.0,0.0,0.0,0.0,0.0,0.0,0.0,0.0,0.0,0.0,0.0,0.0,0.0,0.0,0.0,0.0,0.0,0.0,0.0,0.0,0.0,0.0,0.0,0.0,0.0,0.0,0.0,0.0,0.0,0.0,0.0,0.0,0.0,0.0,0.0,0.0,0.0,0.0,0.0,0.0,0.0,0.0,0.0,0.0,0.0,0.0,0.0,0.0,0.0,0.0,0.0,0.0,0.0,0.0,0.0,0.0,0.0,0.0,0.0,0.0,0.0,0.0,0.0,0.0,0.0,0.0,0.0,0.0,0.0,0.0,0.0,0.0,0.0,0.0,0.0,0.0,0.0,0.0,0.0,0.0,0.0,0.0,0.0,0.0,-0.3278,-0.3605,-0.3773,-0.3846,-0.3788,-0.3676,-0.3405,-0.292,0.0,0.0,0.0,0.0,0.0,0.0,0.0,0.0,0.0,0.0,0.0,0.0,0.0,0.0,0.0,0.0,0.0,0.0,0.0,0.0,0.0,0.0,0.0,0.0,0.0,0.0,0.0,0.0,0.0,0.0,0.0,0.0,0.0,0.0,0.0,0.0,0.0,0.0,0.0,0.0,0.0,0.0,0.0,0.0,0.0,0.0,0.0,0.0,0.0,0.0,0.0,0.0,0.0,0.0,0.0,0.0,0.0,0.0,0.0,0.0,0.0,0.0,0.0,0.0,0.0,0.0,0.0,0.0,0.0,0.0,0.0,0.0,0.0,0.0,0.0,0.0,0.0,0.0,0.0,0.0,0.0,0.0,0.0,0.0,0.0,0.0,0.0,0.0,0.0,0.0,0.0,0.0,0.0,0.0,0.0,0.0,0.0,0.0,0.0,0.0,0.0,0.0,0.0,0.0,-0.3153,-0.3698,-0.3701,-0.3698,-0.3804,-0.3676,-0.3405,-0.292,0.0,0.0,0.0,0.0,0.0,0.0,0.0,0.0,0.0,0.0,0.0,0.0,0.0,0.0,0.0,0.0,0.0,0.0,0.0,0.0,0.0,0.0,0.0,0.0,0.0,0.0,0.0,0.0,0.0,0.0,0.0,0.0,0.0,0.0,0.0,0.0,0.0,0.0,0.0,0.0,0.0,0.0,0.0,0.0,0.0,0.0,0.0,0.0,0.0,0.0,0.0,0.0,0.0,0.0,0.0,0.0,0.0,0.0,0.0,0.0,0.0,0.0,0.0,0.0,0.0,0.0,0.0,0.0,0.0,0.0,0.0,0.0,0.0,0.0,0.0,0.0,0.0,0.0,0.0,0.0,0.0,0.0,0.0,0.0,0.0,0.0,0.0,0.0,0.0,0.0,0.0,0.0,0.0,0.0,0.0,0.0,0.0,0.0,0.0,0.0,0.0,0.0,0.0,-0.3015,-0.3312,-0.3654,-0.3698,-0.3701,-0.3693,-0.3641,-0.3405,-0.292,-0.2712,0.0,0.0,0.0,0.0,0.0,0.0,0.0,0.0,0.0,0.0,0.0,0.0,0.0,0.0,0.0,0.0,0.0,0.0,0.0,0.0,0.0,0.0,0.0,0.0,0.0,0.0,0.0,0.0,0.0,0.0,0.0,0.0,0.0,0.0,0.0,0.0,0.0,0.0,0.0,0.0,0.0,0.0,0.0,0.0,0.0,0.0,0.0,0.0,0.0,0.0,0.0,0.0,0.0,0.0,0.0,0.0,0.0,0.0,0.0,0.0,0.0,0.0,0.0,0.0,0.0,0.0,0.0,0.0,0.0,0.0,0.0,0.0,0.0,0.0,0.0,0.0,0.0,0.0,0.0,0.0,0.0,0.0,0.0,0.0,0.0,0.0,0.0,0.0,0.0,0.0,0.0,0.0,0.0,0.0,0.0,0.0,0.0,0.0,0.0,0.0,0.0,0.0,-0.3316,-0.3479,-0.3602,-0.369,-0.3706,-0.3619,-0.3531,-0.3342,-0.2917,-0.2585,0.0,0.0,0.0,0.0,0.0,0.0,0.0,0.0,0.0,0.0,0.0,0.0,0.0,0.0,0.0,0.0,0.0,0.0,0.0,0.0,0.0,0.0,0.0,0.0,0.0,0.0,0.0,0.0,0.0,0.0,0.0,0.0,0.0,0.0,0.0,0.0,0.0,0.0,0.0,0.0,0.0,0.0,0.0,0.0,0.0,0.0,0.0,0.0,0.0,0.0,0.0,0.0,0.0,0.0,0.0,0.0,0.0,0.0,0.0,0.0,0.0,0.0,0.0,0.0,0.0,0.0,0.0,0.0,0.0,0.0,0.0,0.0,0.0,0.0,0.0,0.0,0.0,0.0,0.0,0.0,0.0,0.0,0.0,0.0,0.0,0.0,0.0,0.0,0.0,0.0,0.0,0.0,0.0,0.0,0.0,0.0,0.0,0.0,0.0,0.0,0.0,0.0,-0.3315,-0.3602,-0.361,-0.3619,-0.3621,-0.3613,-0.3373,-0.3137,-0.2906,-0.2411,0.0,0.0,0.0,0.0,0.0,0.0,0.0,0.0,0.0,0.0,0.0,0.0,0.0,0.0,0.0,0.0,0.0,0.0,0.0,0.0,0.0,0.0,0.0,0.0,0.0,0.0,0.0,0.0,0.0,0.0,0.0,0.0,0.0,0.0,0.0,0.0,0.0,0.0,0.0,0.0,0.0,0.0,0.0,0.0,0.0,0.0,0.0,0.0,0.0,0.0,0.0,0.0,0.0,0.0,0.0,0.0,0.0,0.0,0.0,0.0,0.0,0.0,0.0,0.0,0.0,0.0,0.0,0.0,0.0,0.0,0.0,0.0,0.0,0.0,0.0,0.0,0.0,0.0,0.0,0.0,0.0,0.0,0.0,0.0,0.0,0.0,0.0,0.0,0.0,0.0,0.0,0.0,0.0,0.0,0.0,0.0,0.0,0.0,0.0,0.0,0.0,0.0,-0.3153,-0.3414,-0.3594,-0.3613,-0.3613,-0.3613,-0.343,-0.3199,-0.2909,0.0,0.0,0.0,0.0,0.0,0.0,0.0,0.0,0.0,0.0,0.0,0.0,0.0,0.0,0.0,0.0,0.0,0.0,0.0,0.0,0.0,0.0,0.0,0.0,0.0,0.0,0.0,0.0,0.0,0.0,0.0,0.0,0.0,0.0,0.0,0.0,0.0,0.0,0.0,0.0,0.0,0.0,0.0,0.0,0.0,0.0,0.0,0.0,0.0,0.0,0.0,0.0,0.0,0.0,0.0,0.0,0.0,0.0,0.0,0.0,0.0,0.0,0.0,0.0,0.0,0.0,0.0,0.0,0.0,0.0,0.0,0.0,0.0,0.0,0.0,0.0,0.0,0.0,0.0,0.0,0.0,0.0,0.0,0.0,0.0,0.0,0.0,0.0,0.0,0.0,0.0,0.0,0.0,0.0,0.0,0.0,0.0,0.0,0.0,0.0,0.0,0.0,-0.2838,-0.3142,-0.3398,-0.3594,-0.3613,-0.3613,-0.3613,-0.3403,-0.3153,-0.2852,0.0,0.0,0.0,0.0,0.0,0.0,0.0,0.0,0.0,0.0,0.0,0.0,0.0,0.0,0.0,0.0,0.0,0.0,0.0,0.0,0.0,0.0,0.0,0.0,0.0,0.0,0.0,0.0,0.0,0.0,0.0,0.0,0.0,0.0,0.0,0.0,0.0,0.0,0.0,0.0,0.0,0.0,0.0,0.0,0.0,0.0,0.0,0.0,0.0,0.0,0.0,0.0,0.0,0.0,0.0,0.0,0.0,0.0,0.0,0.0,0.0,0.0,0.0,0.0,0.0,0.0,0.0,0.0,0.0,0.0,0.0,0.0,0.0,0.0,0.0,0.0,0.0,0.0,0.0,0.0,0.0,0.0,0.0,0.0,0.0,0.0,0.0,0.0,0.0,0.0,0.0,0.0,0.0,0.0,0.0,0.0,0.0,0.0,0.0,0.0,0.0,0.0,-0.286,-0.3312,-0.3613,-0.3613,-0.3613,-0.3613,-0.3613,-0.3231,-0.2924,0.0,0.0,0.0,0.0,0.0,0.0,0.0,0.0,0.0,0.0,0.0,0.0,0.0,0.0,0.0,0.0,0.0,0.0,0.0,0.0,0.0,0.0,0.0,0.0,0.0,0.0,0.0,0.0,0.0,0.0,0.0,0.0,0.0,0.0,0.0,0.0,0.0,0.0,0.0,0.0,0.0,0.0,0.0,0.0,0.0,0.0,0.0,0.0,0.0,0.0,0.0,0.0,0.0,0.0,0.0,0.0,0.0,0.0,0.0,0.0,0.0,0.0,0.0,0.0,0.0,0.0,0.0,0.0,0.0,0.0,0.0,0.0,0.0,0.0,0.0,0.0,0.0,0.0,0.0,0.0,0.0,0.0,0.0,0.0,0.0,0.0,0.0,0.0,0.0,0.0,0.0,0.0,0.0,0.0,0.0,0.0,0.0,0.0,0.0,0.0,0.0,0.0,0.0,-0.286,-0.3312,-0.3613,-0.3613,-0.3613,-0.3613,-0.3613,-0.3327,-0.3007,-0.2726,0.0,0.0,0.0,0.0,0.0,0.0,0.0,0.0,0.0,0.0,0.0,0.0,0.0,0.0,0.0,0.0,0.0,0.0,0.0,0.0,0.0,0.0,0.0,0.0,0.0,0.0,0.0,0.0,0.0,0.0,0.0,0.0,0.0,0.0,0.0,0.0,0.0,0.0,0.0,0.0,0.0,0.0,0.0,0.0,0.0,0.0,0.0,0.0,0.0,0.0,0.0,0.0,0.0,0.0,0.0,0.0,0.0,0.0,0.0,0.0,0.0,0.0,0.0,0.0,0.0,0.0,0.0,0.0,0.0,0.0,0.0,0.0,0.0,0.0,0.0,0.0,0.0,0.0,0.0,0.0,0.0,0.0,0.0,0.0,0.0,0.0,0.0,0.0,0.0,0.0,0.0,0.0,0.0,0.0,0.0,0.0,0.0,0.0,0.0,0.0,0.0,0.0,-0.286,-0.3312,-0.3613,-0.3613,-0.3613,-0.3613,-0.3613,-0.336,-0.3066,-0.2728,0.0,0.0,0.0,0.0,0.0,0.0,0.0,0.0,0.0,0.0,0.0,0.0,0.0,0.0,0.0,0.0,0.0,0.0,0.0,0.0,0.0,0.0,0.0,0.0,0.0,0.0,0.0,0.0,0.0,0.0,0.0,0.0,0.0,0.0,0.0,0.0,0.0,0.0,0.0,0.0,0.0,0.0,0.0,0.0,0.0,0.0,0.0,0.0,0.0,0.0,0.0,0.0,0.0,0.0,0.0,0.0,0.0,0.0,0.0,0.0,0.0,0.0,0.0,0.0,0.0,0.0,0.0,0.0,0.0,0.0,0.0,0.0,0.0,0.0,0.0,0.0,0.0,0.0,0.0,0.0,0.0,0.0,0.0,0.0,0.0,0.0,0.0,0.0,0.0,0.0,0.0,0.0,0.0,0.0,0.0,0.0,0.0,0.0,0.0,0.0,0.0,0.0,-0.286,-0.3312,-0.3613,-0.3613,-0.3613,-0.3613,-0.3613,-0.3371,-0.3082,-0.2745,0.0,0.0,0.0,0.0,0.0,0.0,0.0,0.0,0.0,0.0,0.0,0.0,0.0,0.0,0.0,0.0,0.0,0.0,0.0,0.0,0.0,0.0,0.0,0.0,0.0,0.0,0.0,0.0,0.0,0.0,0.0,0.0,0.0,0.0,0.0,0.0,0.0,0.0,0.0,0.0,0.0,0.0,0.0,0.0,0.0,0.0,0.0,0.0,0.0,0.0,0.0,0.0,0.0,0.0,0.0,0.0,0.0,0.0,0.0,0.0,-0.295,-0.2802,0.0,0.0,0.0,0.0,0.0,0.0,0.0,0.0,0.0,0.0,0.0,0.0,0.0,0.0,0.0,0.0,0.0,0.0,0.0,0.0,0.0,0.0,0.0,0.0,0.0,0.0,0.0,0.0,0.0,0.0,0.0,0.0,0.0,0.0,0.0,0.0,0.0,0.0,0.0,0.0,-0.286,-0.3312,-0.3613,-0.3613,-0.3613,-0.3613,-0.3613,-0.3447,-0.321,-0.2874,-0.2577,0.0,0.0,0.0,0.0,0.0,0.0,0.0,0.0,0.0,0.0,0.0,0.0,0.0,0.0,0.0,0.0,0.0,0.0,0.0,0.0,0.0,0.0,0.0,0.0,0.0,0.0,0.0,0.0,0.0,0.0,0.0,0.0,0.0,0.0,0.0,0.0,0.0,0.0,0.0,0.0,0.0,0.0,0.0,0.0,0.0,0.0,0.0,0.0,0.0,0.0,0.0,0.0,0.0,0.0,0.0,0.0,0.0,0.0,0.0,-0.3333,-0.318,0.0,0.0,0.0,0.0,0.0,0.0,0.0,0.0,0.0,0.0,0.0,0.0,0.0,0.0,0.0,0.0,0.0,0.0,0.0,0.0,0.0,0.0,0.0,0.0,0.0,0.0,0.0,0.0,0.0,0.0,0.0,0.0,0.0,0.0,0.0,0.0,0.0,0.0,0.0,0.0,-0.2917,-0.3322,-0.3613,-0.3613,-0.3613,-0.3613,-0.3613,-0.3471,-0.3273,-0.2974,-0.2726,0.0,0.0,0.0,0.0,0.0,0.0,0.0,0.0,0.0,0.0,0.0,0.0,0.0,0.0,0.0,0.0,0.0,0.0,0.0,0.0,0.0,0.0,0.0,0.0,0.0,0.0,0.0,0.0,0.0,0.0,0.0,0.0,0.0,0.0,0.0,0.0,0.0,0.0,0.0,0.0,0.0,0.0,0.0,0.0,0.0,0.0,0.0,0.0,0.0,0.0,0.0,0.0,0.0,-0.3993,-0.4016,-0.4005,-0.4259,-0.4306,-0.4189,-0.3792,-0.3642,-0.3659,-0.3411,0.0,0.0,0.0,0.0,0.0,0.0,0.0,0.0,0.0,0.0,0.0,0.0,0.0,0.0,0.0,0.0,0.0,0.0,0.0,0.0,0.0,0.0,0.0,0.0,-0.3393,-0.3346,-0.2808,0.0,0.0,0.0,0.0,0.0,0.0,0.0,0.0,0.0,0.0,0.0,-0.2984,-0.3373,-0.3613,-0.3613,-0.3613,-0.3613,-0.3613,-0.349,-0.3341,-0.3075,-0.2859,-0.2596,0.0,0.0,0.0,0.0,0.0,0.0,0.0,0.0,0.0,0.0,0.0,0.0,0.0,0.0,0.0,0.0,0.0,0.0,0.0,0.0,0.0,0.0,0.0,0.0,0.0,0.0,0.0,0.0,0.0,0.0,0.0,0.0,-0.2586,-0.3381,0.0,0.0,0.0,0.0,0.0,0.0,0.0,0.0,0.0,0.0,0.0,0.0,0.0,-0.383,-0.3965,-0.4137,-0.4213,-0.423,-0.4487,-0.4536,-0.4438,-0.4577,-0.4635,-0.4613,-0.455,0.0,-0.4028,-0.3813,0.0,0.0,0.0,0.0,0.0,0.0,0.0,0.0,0.0,0.0,0.0,0.0,0.0,0.0,0.0,0.0,0.0,0.0,0.0,0.0,0.0,0.0,-0.3758,-0.3789,-0.3822,-0.3757,0.0,-0.3065,-0.2654,-0.2463,-0.2333,0.0,0.0,0.0,0.0,0.0,0.0,0.0,-0.3126,-0.3422,-0.3613,-0.3613,-0.3613,-0.3613,-0.3613,-0.3597,-0.3501,-0.3362,-0.3107,-0.2862,-0.2626,-0.2266,0.0,0.0,0.0,0.0,0.0,0.0,0.0,0.0,0.0,0.0,0.0,0.0,0.0,0.0,0.0,0.0,0.0,0.0,0.0,0.0,0.0,0.0,0.0,0.0,0.0,0.0,0.0,0.0,0.0,-0.2549,-0.2881,-0.3608,-0.3264,-0.2914,0.0,0.0,0.0,0.0,0.0,0.0,0.0,0.0,0.0,-0.443,-0.4284,-0.424,-0.4314,-0.4471,-0.4534,-0.4566,-0.4776,-0.4863,-0.4914,-0.5038,-0.5057,-0.4991,-0.4991,-0.479,-0.4461,-0.4189,-0.392,-0.3655,0.0,0.0,0.0,0.0,-0.3474,-0.3549,-0.3778,-0.3806,-0.3709,-0.3622,0.0,0.0,0.0,0.0,0.0,0.0,0.0,0.0,0.0,0.0,-0.3952,-0.3908,-0.3957,-0.3959,-0.3819,-0.3574,-0.3247,0.0,-0.2727,-0.2574,-0.2237,-0.2226,0.0,0.0,0.0,-0.297,-0.3284,-0.3474,-0.3613,-0.3613,-0.3613,-0.3613,-0.3613,-0.3613,-0.3531,-0.3409,-0.3277,-0.311,-0.2821,-0.2571,-0.2266,0.0,0.0,0.0,0.0,0.0,0.0,0.0,0.0,0.0,0.0,0.0,0.0,0.0,0.0,0.0,0.0,0.0,0.0,0.0,0.0,0.0,0.0,0.0,0.0,0.0,0.0,0.0,0.0,-0.3265,-0.3497,-0.4039,-0.3875,-0.3602,0.0,0.0,0.0,0.0,0.0,0.0,-0.4615,-0.4791,-0.5068,-0.5403,-0.5089,-0.4994,-0.5098,-0.4938,-0.492,-0.4972,-0.5064,-0.5151,-0.5235,-0.5369,-0.5361,-0.5233,-0.5233,-0.5132,-0.4942,-0.455,-0.4265,-0.4061,-0.3969,-0.3871,-0.3789,-0.3932,-0.4016,-0.411,-0.441,-0.4449,-0.4319,-0.4167,-0.3939,-0.367,-0.3377,0.0,0.0,0.0,0.0,-0.3816,-0.3901,-0.4028,-0.4143,-0.4019,-0.4067,-0.4097,-0.3976,-0.3951,-0.3795,0.0,-0.3161,-0.3021,-0.2553,-0.2565,0.0,-0.268,-0.2894,-0.3153,-0.3417,-0.3528,-0.3613,-0.3613,-0.3613,-0.3613,-0.3613,-0.3613,-0.3545,-0.3452,-0.3417,-0.3267,-0.2994,-0.2835,-0.2577,-0.221,0.0,0.0,0.0,0.0,0.0,0.0,0.0,0.0,0.0,0.0,0.0,0.0,0.0,0.0,0.0,0.0,0.0,0.0,0.0,0.0,0.0,0.0,0.0,0.0,0.0,0.0,0.0,0.0,0.0,-0.5191,-0.5136,0.0,0.0,0.0,0.0,-0.3868,-0.5208,-0.6237,-0.6619,-0.7276,-0.789,-0.8468,-0.6927,-0.6303,-0.6668,-0.5823,-0.5377,-0.5383,-0.5391,-0.5396,-0.5402,-0.5407,-0.5407,-0.5402,-0.5402,-0.5396,-0.5347,-0.4868,-0.4594,-0.4465,-0.4317,-0.427,-0.4265,-0.4278,-0.4349,-0.4482,-0.4498,-0.4501,-0.4512,-0.4618,-0.4379,-0.4085,-0.4038,-0.3951,0.0,0.0,-0.4043,-0.4265,-0.427,-0.4281,-0.4289,-0.4284,-0.4287,-0.4259,-0.4134,-0.4075,-0.3998,0.0,-0.3558,-0.3441,-0.3027,0.0,-0.3011,-0.3142,-0.3175,-0.3297,-0.3545,-0.3608,-0.3613,-0.3613,-0.3613,-0.3613,-0.3613,-0.3613,-0.361,-0.3602,-0.3466,-0.3341,-0.318,-0.3002,-0.2761,-0.249,-0.221,0.0,0.0,0.0,0.0,0.0,0.0,0.0,0.0,0.0,0.0,0.0,0.0,0.0,0.0,0.0,0.0,0.0,0.0,0.0,0.0,0.0,0.0,0.0,0.0,0.0,0.0,0.0,0.0,-0.5031,-0.4897,0.0,-0.4404,-0.4207,-0.4443,-0.5254,-0.5254,-0.5657,-0.6613,-0.6332,-0.6261,-0.6562,-0.6006,-0.577,-0.5904,-0.5574,-0.541,-0.5413,-0.5447,-0.5443,-0.5445,-0.5567,-0.5561,-0.5443,-0.5443,-0.5442,-0.5399,-0.5224,-0.5038,-0.4811,-0.4692,-0.4597,-0.4572,-0.4616,-0.467,-0.4716,-0.4795,-0.477,-0.4686,-0.4608,-0.4484,-0.433,-0.4257,-0.4257,-0.4278,-0.4278,-0.4432,-0.4564,-0.4564,-0.4503,-0.4443,-0.4443,-0.4355,-0.4287,-0.4243,-0.4235,-0.4175,-0.3969,-0.383,-0.3632,-0.3324,-0.3341,-0.3354,-0.3212,-0.3352,-0.3485,-0.3599,-0.3613,-0.3613,-0.3613,-0.3613,-0.3613,-0.3613,-0.3613,-0.3613,-0.3613,-0.3468,-0.3346,-0.3199,-0.3045,-0.287,-0.2623,-0.246,-0.2199,0.0,0.0,0.0,0.0,0.0,0.0,0.0,0.0,0.0,0.0,0.0,0.0,0.0,0.0,0.0,0.0,0.0,0.0,0.0,0.0,0.0,0.0,0.0,0.0,0.0,-0.4231,-0.4676,-0.5078,-0.5145,-0.5153,-0.5256,-0.4868,-0.5056,-0.6189,-0.5692,-0.5726,-0.6559,-0.6252,-0.616,-0.6341,-0.6053,-0.5909,-0.5956,-0.5661,-0.5494,-0.5494,-0.5529,-0.557,-0.5572,-0.5653,-0.5645,-0.557,-0.557,-0.5524,-0.5494,-0.5494,-0.5377,-0.5146,-0.5061,-0.4966,-0.4942,-0.4985,-0.4988,-0.4958,-0.5002,-0.4925,-0.4831,-0.4708,-0.4626,-0.458,-0.4504,-0.4531,-0.4594,-0.4594,-0.4681,-0.4802,-0.4761,-0.4654,-0.4572,-0.4525,-0.4446,-0.4346,-0.4308,-0.43,-0.4276,-0.4194,-0.4015,-0.383,-0.3589,-0.3616,-0.3599,-0.3371,-0.3479,-0.3613,-0.3613,-0.3613,-0.3613,-0.3613,-0.3613,-0.3613,-0.3613,-0.3613,-0.3613,-0.3613,-0.3468,-0.3346,-0.3199,-0.3061,-0.2932,-0.2772,-0.2585,-0.2364,-0.2094,0.0,0.0,0.0,0.0,0.0,0.0,0.0,0.0,0.0,0.0,0.0,0.0,0.0,0.0,0.0,0.0,0.0,0.0,0.0,0.0,0.0,0.0,0.0,-0.3442,-0.4834,-0.5759,-0.5487,-0.6008,-0.6595,-0.7037,-0.5989,-0.5632,-0.6551,-0.6566,-0.6567,-0.6612,-0.7315,-0.7848,-0.8098,-0.7254,-0.686,-0.7051,-0.6174,-0.5688,-0.5688,-0.5688,-0.5688,-0.5688,-0.5688,-0.5688,-0.5688,-0.5688,-0.5688,-0.5688,-0.5688,-0.5618,-0.5499,-0.5423,-0.5413,-0.541,-0.541,-0.5336,-0.5175,-0.5067,-0.5026,-0.5023,-0.5023,-0.4901,-0.4801,-0.4801,-0.4801,-0.4801,-0.4801,-0.4887,-0.4952,-0.4833,-0.4798,-0.4736,-0.4572,-0.4509,-0.4473,-0.433,-0.4303,-0.43,-0.43,-0.4205,-0.4047,-0.3835,-0.3818,-0.3745,-0.3632,-0.3616,0.0,-0.3613,-0.3613,-0.3613,-0.3613,-0.3613,-0.3613,-0.3613,-0.3613,-0.361,-0.3605,-0.3463,-0.3341,-0.3196,-0.3061,-0.297,-0.2898,-0.2629,-0.2445,-0.2315,0.0,0.0,0.0,0.0,0.0,0.0,0.0,0.0,0.0,0.0,0.0,0.0,0.0,0.0,0.0,0.0,0.0,0.0,0.0,0.0,0.0,-0.3955,-0.4194,-0.4194,-0.4724,-0.5395,-0.6158,-0.6537,-0.6756,-0.687,-0.6576,-0.6506,-0.6864,-0.6196,-0.6132,-0.692,-0.6542,-0.6299,-0.638,-0.6119,-0.6048,-0.6086,-0.5822,-0.5688,-0.5688,-0.5688,-0.5688,-0.5688,-0.5688,-0.5688,-0.5688,-0.5688,-0.5688,-0.5688,-0.5688,-0.5669,-0.5626,-0.5505,-0.5447,-0.541,-0.541,-0.5391,-0.5355,-0.5284,-0.5214,-0.514,-0.514,-0.5061,-0.4928,-0.4928,-0.4928,-0.4928,-0.4928,-0.4952,-0.501,-0.4936,-0.4863,-0.4779,-0.4712,-0.4599,-0.4495,-0.4465,-0.4357,-0.43,-0.43,-0.4273,-0.42,-0.4045,-0.3901,-0.3801,-0.3739,-0.3665,0.0,-0.3613,-0.3613,-0.3613,-0.3613,-0.3613,-0.3613,-0.3613,-0.3613,-0.3547,-0.3458,-0.3335,-0.3228,-0.3193,-0.3061,-0.2986,-0.2978,-0.2651,-0.2528,0.0,0.0,0.0,0.0,0.0,0.0,0.0,0.0,0.0,0.0,0.0,0.0,0.0,0.0,0.0,0.0,0.0,0.0,0.0,0.0,0.0,0.0,-0.4344,-0.4675,-0.4862,-0.4969,-0.5325,-0.6049,-0.624,-0.6495,-0.6878,-0.658,-0.653,-0.7004,-0.6144,-0.5873,-0.6476,-0.5997,-0.5688,-0.5688,-0.5688,-0.5688,-0.5688,-0.5688,-0.5688,-0.5688,-0.5688,-0.5688,-0.5688,-0.5688,-0.5688,-0.5688,-0.5688,-0.5688,-0.5688,-0.5688,-0.5688,0.0,0.0,0.0,0.0,0.0,-0.5445,-0.5436,-0.5429,-0.5364,-0.5303,-0.5303,-0.5184,-0.5089,-0.5089,-0.5056,-0.5018,-0.5018,-0.5018,-0.5018,-0.5018,-0.4925,-0.486,-0.4809,-0.4727,-0.4594,-0.4528,-0.4451,-0.4357,-0.4311,-0.43,0.0,-0.4205,-0.4034,-0.3901,-0.3826,-0.3725,-0.3665,-0.3619,-0.3613,-0.3613,-0.3613,-0.3613,-0.3613,-0.3613,-0.3613,0.0,0.0,0.0,-0.3273,-0.3196,-0.3131,0.0,0.0,0.0,0.0,0.0,0.0,0.0,0.0,-0.2774,-0.2794,0.0,0.0,0.0,0.0,0.0,0.0,0.0,0.0,0.0,0.0,0.0,0.0,0.0,0.0,0.0,0.0,-0.4648,-0.4993,-0.5341,-0.5443,-0.5492,-0.5642,-0.5811,-0.6195,-0.703,-0.6385,-0.6215,-0.6923,-0.6215,-0.5729,-0.5729,-0.5729,0.0,0.0,0.0,-0.5729,-0.5729,-0.5729,-0.5729,-0.5729,-0.5715,-0.571,-0.5707,-0.5694,-0.5688,-0.5688,-0.5688,-0.5688,-0.5688,-0.5688,-0.5688,-0.5688,-0.5688,-0.5688,-0.5677,-0.5567,-0.5529,-0.5513,-0.5447,0.0,0.0,-0.539,-0.5306,-0.5208,-0.5208,-0.5127,-0.5037,-0.5037,-0.5026,-0.5018,-0.5018,-0.5018,-0.4952,-0.4841,-0.4806,-0.4739,-0.4558,-0.4525,-0.4473,-0.4338,-0.4308,-0.43,-0.43,-0.42,-0.4045,-0.3857,-0.3813,-0.3761,-0.3646,-0.3632,-0.3627,-0.3613,0.0,0.0,-0.3613,-0.3613,-0.3605,-0.3564,-0.346,-0.3352,-0.3218,-0.3215,-0.3215,-0.3215,-0.3199,-0.3268,-0.3396,-0.3435,-0.3567,-0.3801,-0.3322,-0.326,0.0,0.0,0.0,0.0,0.0,0.0,0.0,0.0,0.0,0.0,0.0,0.0,0.0,0.0,0.0,-0.462,-0.4947,-0.5211,-0.5435,-0.5556,-0.5934,-0.67,-0.6911,-0.7041,-0.7264,-0.7194,-0.6895,-0.6342,-0.6109,-0.6018,-0.6018,-0.6018,-0.6018,-0.6018,-0.6018,-0.6018,-0.6018,-0.6018,-0.6018,-0.6015,0.0,0.0,-0.5869,-0.5731,-0.5688,-0.5688,-0.5688,-0.5688,-0.5688,-0.5688,-0.5688,-0.5688,-0.5688,-0.5688,-0.5686,-0.5661,-0.5653,-0.565,-0.5629,-0.5556,-0.5472,-0.5472,-0.5434,-0.5375,-0.5375,-0.5249,0.0,-0.5154,-0.5089,-0.5018,-0.5018,-0.5018,-0.5012,-0.4949,-0.4868,-0.4785,-0.4736,-0.4607,-0.4498,-0.4476,-0.4363,-0.43,-0.43,-0.42,-0.4102,-0.4056,-0.3963,-0.3857,-0.3767,-0.375,-0.3715,-0.3621,-0.3613,-0.3613,-0.3613,-0.3613,-0.3542,-0.3444,-0.3414,-0.339,-0.3368,-0.3365,-0.3365,-0.3365,-0.3245,-0.3268,-0.3396,-0.3625,-0.3806,-0.3958,-0.3731,-0.3729,0.0,0.0,0.0,0.0,0.0,0.0,0.0,0.0,0.0,0.0,0.0,-0.3705,-0.4158,0.0,-0.4577,-0.5034,-0.5252,-0.5392,-0.5572,-0.5699,-0.5998,-0.6442,-0.6545,-0.6609,-0.6679,-0.6745,-0.6599,-0.6133,-0.6086,-0.6086,-0.6086,-0.6086,-0.6086,-0.6086,-0.6086,-0.6086,-0.6086,-0.6086,-0.6086,-0.6083,-0.6024,-0.5994,-0.5994,-0.5934,-0.5909,-0.5909,-0.5909,-0.5874,-0.5814,-0.5712,-0.5688,-0.5688,-0.5688,-0.5688,-0.5688,-0.5688,-0.5688,-0.5688,-0.5688,-0.5648,-0.5599,-0.5599,-0.5516,-0.5461,-0.5461,-0.5333,-0.5186,-0.5186,-0.5105,-0.5018,-0.5018,-0.5018,-0.5018,-0.5018,-0.4933,-0.4871,-0.4809,-0.4689,-0.4577,-0.4517,-0.4379,-0.43,-0.43,-0.4249,-0.4189,-0.4094,-0.4035,-0.3951,-0.386,-0.3821,-0.3761,-0.3704,-0.3646,-0.3613,-0.3613,-0.3613,-0.3558,-0.3496,-0.3493,-0.3493,-0.3493,-0.3493,-0.3493,-0.3493,-0.3433,-0.348,-0.3609,-0.3723,-0.3893,-0.4085,-0.4038,-0.4085,0.0,0.0,0.0,0.0,0.0,0.0,0.0,-0.3282,-0.3452,-0.3819,-0.3955,-0.417,-0.4643,-0.4787,-0.4949,-0.5347,-0.5485,-0.5559,-0.5702,-0.5825,-0.5888,-0.5931,-0.5958,-0.6013,-0.6111,-0.614,-0.6154,-0.6154,-0.6154,-0.6154,-0.6154,-0.6154,-0.6154,-0.6154,-0.6154,-0.6154,-0.6154,-0.6154,-0.6154,-0.6154,-0.6132,-0.6121,-0.6121,-0.6097,-0.6086,-0.6086,-0.6086,-0.6029,-0.5928,-0.5814,-0.5734,-0.5753,-0.5707,-0.5702,-0.5718,-0.5696,-0.5688,-0.5688,-0.5688,-0.5688,-0.5688,-0.5688,-0.5621,-0.5543,-0.5543,-0.5389,-0.5252,-0.5227,-0.5137,-0.5045,-0.5023,-0.5018,-0.5018,-0.5018,-0.5018,-0.4952,-0.4852,-0.4773,-0.4695,-0.4594,-0.4428,-0.4333,-0.4333,-0.4314,-0.4268,-0.4167,-0.4153,-0.4078,-0.3954,-0.3884,-0.3843,-0.3821,-0.3736,-0.3653,-0.3653,-0.366,-0.3643,-0.3643,-0.3624,-0.3613,-0.3613,-0.3613,-0.3613,-0.3613,-0.3613,-0.3666,-0.3796,-0.3824,-0.3965,-0.4193,-0.4249,-0.4356,-0.3281,-0.3036,-0.2986,-0.3265,-0.3259,-0.3296,0.0,-0.3892,-0.3897,-0.4186,-0.433,-0.4493,-0.4728,-0.4876,-0.5073,-0.5429,-0.5499,-0.5583,-0.5852,-0.5809,-0.5831,-0.604,-0.6162,-0.6281,-0.6295,-0.6339,-0.6346,-0.6346,-0.6346,-0.6346,-0.6346,-0.6346,-0.6346,-0.6346,-0.6346,-0.6346,-0.6346,-0.6346,-0.6346,-0.6346,-0.6295,-0.6295,-0.6292,-0.6135,-0.6086,-0.6086,-0.6086,-0.6078,-0.6056,-0.5934,-0.5947,-0.6026,-0.5814,-0.5795,-0.5871,-0.5726,-0.5688,-0.5688,-0.5688,-0.5688,-0.5688,-0.5688,-0.568,-0.5667,-0.5667,-0.5575,-0.5445,-0.5379,-0.526,-0.5143,-0.5045,-0.5018,-0.5018,-0.5018,-0.5018,-0.5012,-0.4999,-0.4863,-0.4774,-0.4758,-0.4607,-0.4487,-0.4487,-0.4368,-0.4298,-0.4281,-0.4278,-0.4235,-0.4081,-0.4085,-0.4034,-0.3895,-0.3873,-0.3865,-0.3865,-0.3827,-0.3764,-0.3764,-0.3668,-0.3613,-0.3613,-0.3613,-0.3613,-0.3613,-0.3613,-0.3666,-0.3796,-0.391,-0.4052,-0.4193,-0.4384,-0.4491,-0.3638,-0.3484,-0.3462,-0.3656,-0.3698,-0.3798,-0.4151,-0.4235,-0.4295,-0.4503,-0.4656,-0.486,-0.5102,-0.5243,-0.5359,-0.5578,-0.5669,-0.5768,-0.5801,-0.5882,-0.595,-0.5975,-0.6086,-0.6237,-0.6311,-0.6312,-0.6366,-0.6381,-0.6387,-0.6387,-0.6387,-0.6387,-0.6387,-0.6387,-0.6387,-0.6387,-0.6387,-0.6387,-0.6387,-0.6387,-0.6388,-0.6366,-0.6366,-0.6312,-0.629,-0.6287,-0.6219,-0.6192,-0.6184,-0.6062,-0.604,-0.6075,-0.5977,-0.5966,-0.5988,-0.5756,-0.5688,-0.5688,-0.5688,-0.5688,-0.5688,-0.5688,-0.5688,-0.5688,-0.5688,-0.5605,-0.5497,-0.5445,-0.5336,-0.5175,-0.5129,-0.5067,-0.5018,-0.5018,-0.5018,-0.5018,-0.5018,-0.4882,-0.4795,-0.4795,-0.4694,-0.4613,-0.4613,-0.4512,-0.4398,-0.4398,-0.4344,-0.4281,-0.423,-0.4162,-0.404,-0.3916,-0.3903,-0.3903,-0.3903,-0.389,-0.386,-0.386,-0.3814,-0.3757,-0.3715,-0.3712,-0.3707,-0.3719,-0.3716,-0.383,-0.4024,-0.4213,-0.4368,-0.4485,-0.4658,-0.4728,-0.383,-0.3808,-0.3871,-0.3965,-0.4126,-0.4257,-0.4412,-0.4512,-0.4605,-0.4764,-0.4893,-0.5089,-0.5366,-0.5442,-0.551,-0.5664,-0.5831,-0.5874,-0.5793,-0.5928,-0.6002,-0.5915,-0.5953,-0.6037,-0.6157,-0.6279,-0.6314,-0.6379,-0.6387,-0.6387,-0.6387,-0.6387,-0.6387,-0.6387,-0.6387,-0.6387,-0.6387,-0.6387,-0.6387,-0.6387,-0.6387,-0.6387,-0.6387,-0.6387,-0.6387,-0.6381,-0.635,-0.6314,-0.6306,-0.6187,-0.6154,-0.6176,-0.6111,-0.6086,-0.6062,-0.5855,-0.5734,-0.5731,-0.5699,-0.5688,-0.5688,-0.5688,-0.5688,-0.5688,-0.5688,-0.5626,-0.5551,-0.5518,-0.5381,-0.5271,-0.5203,-0.5127,-0.5056,-0.5023,-0.5018,-0.5018,-0.5018,-0.4909,-0.4847,-0.4847,-0.4784,-0.4739,-0.4739,-0.461,-0.4503,-0.4503,-0.4374,-0.43,-0.43,-0.4224,-0.4102,-0.4013,-0.4005,-0.4005,-0.4005,-0.3973,-0.3954,-0.3954,-0.3922,-0.3865,-0.3835,-0.3894,-0.3911,-0.3906,-0.396,-0.4102,-0.4336,-0.4494,-0.4634,-0.4755,-0.4867,-0.4911,-0.3812,-0.3841,-0.3957,-0.423,-0.4376,-0.4555,-0.4725,-0.4782,-0.482,-0.498,-0.5012,-0.5089,-0.5366,-0.5413,-0.5453,-0.565,-0.5831,-0.5901,-0.5899,-0.5904,-0.5907,-0.5904,-0.5809,-0.5742,-0.5904,-0.613,-0.6314,-0.6379,-0.6387,-0.6387,-0.6387,-0.6387,-0.6387,-0.6387,-0.6387,-0.6387,-0.6387,-0.6387,-0.6387,-0.6387,-0.6387,-0.6387,-0.6387,-0.6387,-0.6387,-0.6387,-0.6381,-0.6381,-0.6373,-0.6309,-0.6328,-0.6352,-0.6173,-0.6086,-0.607,-0.5945,-0.5896,-0.5882,-0.5726,-0.5688,-0.5688,-0.5688,-0.5688,-0.5688,-0.5688,-0.5686,-0.5659,-0.554,-0.5502,-0.5443,-0.5249,-0.5184,-0.5154,-0.5045,-0.5018,-0.5018,-0.5018,-0.5015,-0.5012,-0.5012,-0.4874,-0.479,-0.479,-0.4629,-0.4503,-0.4503,-0.4374,-0.43,-0.43,-0.4298,-0.4295,-0.4289,-0.4289,-0.4289,-0.4289,-0.4181,-0.4081,-0.4081,-0.397,-0.3903,-0.3897,-0.4086,-0.4177,-0.4172,-0.4382,-0.4561,-0.4685,-0.4692,-0.4756,-0.4881,-0.4887,-0.4961,-0.3873,-0.4023,-0.4235,-0.4509,-0.4624,-0.4754,-0.4879,-0.4917,-0.493,-0.501,-0.5075,-0.5154,-0.5233,-0.5379,-0.5472,-0.5556,-0.5844,-0.5969,-0.5812,-0.5996,-0.6056,-0.5817,-0.5822,-0.586,-0.5899,-0.6051,-0.6198,-0.6317,-0.6393,-0.6387,-0.6387,-0.6387,-0.6387,-0.6387,-0.6387,-0.6387,-0.6387,-0.6387,-0.6387,-0.6387,-0.6387,-0.6387,-0.6387,-0.6387,-0.6387,-0.6387,-0.6387,-0.6387,-0.6384,-0.6396,-0.6401,-0.6379,-0.635,-0.6317,-0.6304,-0.6189,-0.6146,-0.6105,-0.5828,-0.5688,-0.5688,-0.5688,-0.5688,-0.5688,-0.5688,-0.5688,-0.568,-0.564,-0.557,-0.5489,-0.5408,-0.5309,-0.5175,-0.5137,-0.5072,-0.5018,-0.5018,-0.5018,-0.5018,-0.5018,-0.4982,-0.4917,-0.4917,-0.4819,-0.4683,-0.464,-0.4425,-0.43,-0.43,-0.43,-0.43,-0.43,-0.43,-0.43,-0.43,-0.4262,-0.4238,-0.4238,-0.42,-0.411,-0.4029,-0.4216,-0.4335,-0.4333,-0.4546,-0.4701,-0.4826,-0.492,-0.4994,-0.5029,-0.5165,-0.5269,-0.4011,-0.424,-0.4474,-0.467,-0.4809,-0.4882,-0.4999,-0.5018,-0.5004,-0.4922,-0.501,-0.5072,-0.5118,-0.5178,-0.5324,-0.5537,-0.5809,-0.5937,-0.5869,-0.6094,-0.6168,-0.589,-0.5923,-0.5966,-0.5966,-0.6078,-0.6184,-0.6311,-0.6374,-0.6387,-0.6387,-0.6387,-0.6387,-0.6387,-0.6387,-0.6387,-0.6387,-0.6387,-0.6387,-0.6387,-0.6387,-0.6387,-0.6387,-0.6387,-0.6387,-0.6387,-0.6387,-0.6387,-0.6387,-0.6387,-0.6387,-0.6387,-0.6387,-0.6363,-0.6369,-0.6295,-0.6289,-0.6165,-0.5888,-0.575,-0.5742,-0.5702,-0.5688,-0.5688,-0.5688,-0.5688,-0.5688,-0.5688,-0.5634,-0.5561,-0.5518,-0.5392,-0.5295,-0.5208,-0.5132,-0.5067,-0.5026,-0.5018,-0.5018,-0.5018,-0.5018,-0.5018,-0.5018,-0.4876,-0.4792,-0.4706,-0.4558,-0.4412,-0.4365,-0.436,-0.436,-0.436,-0.4401,-0.4409,-0.4365,-0.436,-0.4344,-0.4303,-0.43,-0.4265,-0.4186,-0.4411,-0.4534,-0.4536,-0.4819,-0.498,-0.5077,-0.5169,-0.5213,-0.5216,-0.5347,-0.5395,-0.4251,-0.4525,-0.4736,-0.4822,-0.4901,-0.5026,-0.5026,-0.5018,-0.4936,-0.482,-0.479,-0.482,-0.4969,-0.4876,-0.5,-0.557,-0.5686,-0.5831,-0.6053,-0.6198,-0.6279,-0.6102,-0.6092,-0.6092,-0.6086,-0.6246,-0.6317,-0.6317,-0.6374,-0.6387,-0.6387,-0.6387,-0.6387,-0.6387,-0.6387,-0.6387,-0.6387,-0.6387,-0.6387,-0.6387,-0.6387,-0.6387,-0.6387,-0.6387,-0.6387,-0.6387,-0.6387,-0.6387,-0.6387,-0.6387,-0.6387,-0.6387,-0.6387,-0.6372,-0.6325,-0.6325,-0.6203,-0.6086,-0.5964,-0.5912,-0.5885,-0.5726,-0.5688,-0.5688,-0.5688,-0.5688,-0.5688,-0.5688,-0.5688,-0.5661,-0.5545,-0.551,-0.5448,-0.526,-0.52,-0.5167,-0.5059,-0.5029,-0.5026,-0.5026,-0.5021,-0.5018,-0.5018,-0.4882,-0.4806,-0.4725,-0.4703,-0.4654,-0.4531,-0.4514,-0.4514,-0.4514,-0.4618,-0.4643,-0.4525,-0.4514,-0.4465,-0.4317,-0.4308,-0.4306,-0.43,-0.4631,-0.4827,-0.4827,-0.5196,-0.5395,-0.5395,-0.5395,-0.5395,-0.5395,-0.5395,-0.5395,-0.4566,-0.4741,-0.4953,-0.5067,-0.5121,-0.5143,-0.5143,-0.5007,-0.4833,-0.4804,-0.4762,-0.4717,-0.4657,-0.4876,-0.5146,-0.5301,-0.5703,-0.6015,-0.6078,-0.6263,-0.6317,-0.6111,-0.6165,-0.6235,-0.6094,-0.6246,-0.6317,-0.6317,-0.6374,-0.6387,-0.6387,-0.6387,-0.6387,-0.6387,-0.6387,-0.6387,-0.6387,-0.6387,-0.6387,-0.6387,-0.6387,-0.6387,-0.6387,-0.6387,-0.6387,-0.6387,-0.6387,-0.6387,-0.6387,-0.6387,-0.6387,-0.6387,-0.6387,-0.6368,-0.6393,-0.6393,-0.6374,-0.6331,-0.6214,-0.6056,-0.5885,-0.5726,-0.5688,-0.5688,-0.5688,-0.5688,-0.5688,-0.5688,-0.5688,-0.5683,-0.565,-0.5575,-0.5491,-0.5429,-0.5388,-0.5355,-0.5287,-0.5208,-0.5143,-0.5143,-0.5075,-0.5018,-0.5018,-0.4952,-0.4958,-0.4928,-0.4847,-0.4743,-0.4657,-0.4643,-0.4643,-0.4643,-0.4671,-0.4676,-0.4646,-0.4643,-0.4588,-0.4468,-0.4531,-0.4594,-0.4531,-0.4858,-0.5024,-0.5024,-0.5259,-0.5395,-0.5395,-0.5395,-0.5395,-0.5395,-0.5395,-0.5395,-0.4941,-0.5065,-0.5186,-0.5252,-0.5224,-0.5159,-0.5056,-0.4887,-0.4711,-0.4518,-0.4466,-0.4429,-0.4327,-0.4621,-0.498,-0.5154,-0.5605,-0.5986,-0.6143,-0.6323,-0.6338,-0.6255,-0.6301,-0.6314,-0.6246,-0.6301,-0.6342,-0.6342,-0.6399,-0.6387,-0.6387,-0.6387,-0.6387,-0.6387,-0.6387,-0.6387,-0.6387,-0.6387,-0.6387,-0.6387,-0.6387,-0.6387,-0.6387,-0.6387,-0.6387,-0.6387,0.0,-0.6387,-0.6387,-0.6387,-0.6387,-0.6387,-0.6387,-0.6387,-0.6387,-0.6387,-0.6387,-0.6371,-0.6309,-0.6179,-0.6034,-0.5863,-0.5729,-0.5688,-0.5688,-0.5688,-0.5688,-0.5688,-0.5688,-0.5688,-0.5688,-0.564,-0.5572,-0.5521,-0.5456,-0.5434,-0.5421,-0.5358,-0.5306,-0.5306,-0.5216,-0.5173,-0.5173,-0.5127,-0.5091,-0.5091,-0.4991,-0.489,-0.4822,-0.4765,-0.4732,-0.4732,-0.4781,-0.4792,-0.4735,-0.4732,-0.4717,-0.4594,-0.473,-0.4781,-0.4651,-0.504,-0.5219,-0.509,-0.5359,-0.5463,-0.5395,-0.5395,-0.5429,-0.5494,-0.5426,-0.5463,-0.5368,-0.5424,-0.5471,-0.5457,-0.5372,-0.5143,-0.489,-0.4764,-0.4566,-0.4189,-0.4073,-0.4062,-0.4062,-0.43,-0.4657,-0.5089,-0.5472,-0.5841,-0.6265,-0.6352,-0.6371,-0.6384,-0.6387,-0.6387,-0.6387,-0.6387,-0.6387,-0.6387,-0.6387,-0.6387,-0.6387,-0.6387,-0.6387,-0.6387,-0.6387,-0.6387,-0.6387,-0.6387,-0.6387,-0.6387,-0.6387,-0.6387,-0.6387,-0.6387,-0.6387,-0.6387,-0.6387,-0.6387,-0.6387,-0.6387,-0.6387,-0.6387,-0.6387,-0.6387,-0.6387,-0.6387,-0.6387,-0.6371,-0.6309,-0.6306,-0.6254,-0.5977,-0.5836,-0.571,-0.5694,-0.5688,-0.5688,-0.5688,-0.5688,-0.5688,-0.5688,-0.5688,-0.5661,-0.5556,-0.5532,-0.5502,-0.5442,-0.5446,-0.5429,-0.5413,-0.541,-0.541,-0.541,-0.5322,-0.5211,-0.5211,-0.5113,-0.504,-0.504,-0.4895,-0.482,-0.482,-0.4914,-0.4936,-0.4831,-0.482,-0.4806,-0.4723,-0.4932,-0.4949,-0.4784,-0.5276,-0.5438,-0.5182,-0.5477,-0.5552,-0.5453,-0.5453,-0.5521,-0.5613,-0.5515,-0.559,-0.5937,-0.5871,-0.5832,-0.5895,-0.5643,-0.533,-0.5097,-0.4767,-0.4462,-0.417,-0.4005,-0.3935,-0.3935,-0.424,-0.4632,-0.4982,-0.5308,-0.5699,-0.6203,-0.6333,-0.6331,-0.6376,-0.6387,-0.6387,-0.6387,-0.6387,-0.6387,-0.6387,-0.6387,-0.6387,-0.6387,-0.6387,-0.6387,-0.6387,-0.6387,-0.6387,-0.6387,-0.6387,-0.6387,-0.6387,-0.6387,-0.6387,-0.6387,-0.6387,-0.6387,-0.6387,-0.6387,0.0,-0.6387,-0.6387,-0.6387,-0.6387,-0.6387,-0.6387,-0.6387,-0.6387,-0.6387,-0.6371,-0.6309,-0.6251,-0.6094,-0.595,-0.589,-0.5855,-0.5718,-0.5688,-0.5688,-0.5688,-0.5688,-0.5688,-0.5688,-0.5688,-0.5683,-0.5661,-0.5656,-0.565,-0.5632,-0.5548,-0.5445,-0.5429,-0.541,-0.541,-0.541,-0.5394,-0.5377,-0.5377,-0.5235,-0.5156,-0.5156,-0.5056,-0.4947,-0.4947,-0.5004,-0.501,-0.4949,-0.4947,-0.4895,-0.4774,-0.5138,-0.5261,-0.5126,-0.5539,-0.5743,-0.569,-0.5749,-0.5752,-0.5725,-0.5725,-0.5739,-0.5766,-0.5739,-0.5752,-0.6169,-0.6102,-0.6002,-0.6087,-0.5699,-0.5245,-0.4998,-0.4596,-0.42,-0.3901,-0.3792,-0.3751,-0.3751,-0.4096,-0.4458,-0.4694,-0.5086,-0.5529,-0.601,-0.6078,-0.6168,-0.6357,-0.6539,-0.6539,-0.6437,-0.6539,-0.6539,-0.6387,-0.6387,-0.6387,-0.6387,-0.6387,-0.6387,-0.6387,-0.6387,-0.6387,-0.6387,-0.6387,-0.6387,-0.6387,-0.6387,-0.6387,-0.6387,-0.6387,-0.6387,-0.6387,-0.6387,-0.6387,-0.6387,-0.6387,-0.6387,-0.6387,-0.6387,-0.6387,-0.6387,-0.6387,-0.6387,-0.6371,-0.6309,-0.6279,-0.6151,-0.5964,-0.5863,-0.5803,-0.5704,-0.5688,-0.5688,-0.5688,-0.5688,-0.5688,-0.5688,-0.5688,-0.5688,-0.5688,-0.5688,-0.5688,-0.5688,-0.5642,-0.5583,-0.557,-0.5559,-0.5559,-0.5559,-0.5507,-0.5464,-0.5464,-0.536,-0.5322,-0.5322,-0.5178,-0.5083,-0.5023,-0.5018,-0.5018,-0.5018,-0.5018,-0.5029,-0.5043,-0.5346,-0.5475,-0.5445,-0.5848,-0.5966,-0.5803,-0.5881,-0.5881,-0.58,-0.58,-0.584,-0.5918,-0.5837,-0.5888,-0.6412,-0.6344,-0.6266,-0.6279,-0.5803,-0.5252,-0.4906,-0.4472,-0.4049,-0.3687,-0.3613,-0.3619,-0.3643,-0.3958,-0.4279,-0.4508,-0.4883,-0.533,-0.5799,-0.5917,-0.6073,-0.641,-0.6675,-0.6742,-0.6587,-0.6689,-0.6692,-0.6487,-0.6437,-0.6387,-0.6387,-0.6387,-0.6387,-0.6387,-0.6387,-0.6387,-0.6387,-0.6387,-0.6387,-0.6387,-0.6387,-0.6387,-0.6387,-0.6387,-0.6387,-0.6387,-0.6387,-0.6387,-0.6387,-0.6387,-0.6387,-0.6387,-0.6387,-0.6371,-0.6399,-0.6399,-0.6382,-0.6344,-0.623,-0.6237,-0.6154,-0.5937,-0.5822,-0.5721,-0.5696,-0.5688,-0.5688,-0.5688,-0.5688,-0.5688,-0.5688,-0.5688,-0.5688,-0.5688,-0.5688,-0.5688,-0.5688,-0.5688,-0.5688,-0.5688,-0.5688,-0.5688,-0.5688,-0.561,-0.5545,-0.5545,-0.5485,-0.5409,-0.5409,-0.5301,-0.5192,-0.5102,-0.5048,-0.5018,-0.5018,-0.5018,-0.5054,-0.5243,-0.5482,-0.5627,-0.5664,-0.6078,-0.6187,-0.5905,-0.6017,-0.602,-0.5901,-0.5901,-0.5962,-0.6074,-0.5956,-0.6067,-0.6829,-0.6807,-0.6728,-0.6667,-0.6185,-0.5578,-0.5036,-0.4608,-0.4239,-0.3716,-0.3613,-0.3643,-0.3747,-0.3805,-0.4042,-0.4606,0.0,-0.5217,-0.5749,-0.6037,-0.6278,-0.6637,-0.6773,-0.6892,-0.7089,-0.6942,-0.6795,-0.6742,-0.6539,-0.6387,-0.6387,-0.6387,-0.6387,-0.6387,-0.6387,-0.6387,-0.6387,-0.6387,-0.6387,-0.6387,-0.6387,-0.6387,-0.6387,-0.6387,-0.6387,-0.6387,-0.6387,-0.6387,0.0,-0.6387,-0.6387,-0.6387,-0.6387,-0.6374,-0.6333,-0.6333,-0.6214,-0.61,-0.5977,-0.5937,-0.5915,-0.5745,-0.5812,-0.5869,-0.5721,-0.5688,-0.5688,-0.5688,-0.5688,-0.5688,-0.5688,-0.5688,-0.5688,-0.5688,-0.5688,-0.5688,-0.5688,-0.5688,-0.5688,-0.5688,-0.5688,-0.5688,-0.5688,-0.568,-0.5672,-0.5672,-0.557,-0.5491,-0.5491,-0.5428,-0.5391,-0.538,-0.5146,-0.5018,-0.5018,-0.5018,-0.5018,-0.5015,-0.5404,-0.5592,-0.5619,-0.6057,-0.6286,-0.6255,-0.6272,-0.6272,-0.6255,-0.6255,-0.6265,-0.6279,-0.6265,-0.6272,-0.6725,-0.6728,-0.6701,-0.6711,-0.6115,-0.5443,-0.4999,-0.447,-0.3989,-0.3671,-0.3613,-0.3652,-0.3781,-0.388,-0.4075,-0.4561,-0.47,-0.4962,-0.5539,-0.5762,-0.6055,-0.6595,-0.6867,-0.7061,-0.7173,-0.7241,-0.7144,-0.6845,-0.6692,-0.6589,-0.6387,-0.6387,-0.6387,-0.6387,-0.6387,-0.6387,-0.6387,-0.6387,-0.6387,-0.6387,-0.6387,-0.6387,-0.6387,-0.6387,-0.6387,-0.6387,-0.6387,-0.6387,0.0,-0.6387,-0.6387,-0.6379,-0.6363,-0.6309,-0.6309,-0.6187,-0.6127,-0.607,-0.5945,-0.5904,-0.5885,-0.5726,-0.5721,-0.5748,-0.5702,-0.5688,-0.5688,-0.5688,-0.5688,-0.5688,-0.5688,-0.5688,-0.5688,-0.5688,-0.5688,-0.5688,-0.5688,-0.5688,-0.5688,-0.5688,-0.5688,-0.5688,-0.5688,-0.5688,-0.5688,-0.5688,-0.5648,-0.5615,-0.5615,-0.551,-0.5477,-0.5477,-0.533,-0.52,-0.5127,-0.5118,-0.5128,-0.5171,-0.544,-0.5637,-0.5789,-0.6103,-0.63,-0.63,-0.63,-0.63,-0.63,-0.63,-0.63,-0.63,-0.63,-0.63,-0.6502,-0.6584,-0.6652,-0.6627,-0.6089,-0.5404,-0.4981,-0.4429,-0.3928,-0.3662,-0.3613,-0.3638,-0.3769,-0.3871,-0.4104,0.0,-0.4662,-0.4882,-0.5487,-0.5685,-0.5941,-0.6542,-0.6865,-0.7108,-0.729,-0.7496,-0.7394,-0.6942,-0.6842,-0.6742,-0.6539,-0.6437,-0.6387,-0.6387,-0.6387,-0.6387,-0.6387,-0.6387,-0.6387,-0.6387,-0.6387,-0.6387,-0.6387,-0.6387,-0.6387,-0.6387,-0.6387,-0.6387,0.0,-0.6399,-0.6388,-0.6374,-0.626,-0.624,-0.6151,-0.6064,-0.601,-0.5969,-0.5882,-0.5852,-0.5839,-0.5715,-0.5688,-0.5688,-0.5688,-0.5688,-0.5688,-0.5688,-0.5688,-0.5688,-0.5688,-0.5688,-0.5688,-0.5688,-0.5688,-0.5688,-0.5688,-0.5688,-0.5688,-0.5688,-0.5688,-0.5688,-0.5688,-0.5688,-0.5688,-0.5688,-0.5688,-0.5688,-0.5688,-0.5613,-0.5561,-0.5561,-0.5529,-0.5412,-0.5254,-0.5241,-0.527,-0.5348,-0.5535,-0.5713,-0.5902,-0.6141,-0.63,-0.63,-0.63,-0.63,-0.63,-0.63,-0.63,-0.63,-0.63,-0.63,-0.6262,-0.6478,-0.6664,-0.6552,-0.6131,-0.5652,-0.5027,-0.4527,-0.4081,-0.3691,-0.3613,-0.3638,-0.3769,-0.3796,-0.3996,-0.4596,-0.4825,-0.5087,-0.5624,-0.5941,-0.6219,-0.6547,-0.6665,-0.6953,-0.7526,-0.7579,-0.7494,-0.7238,-0.6942,0.0,-0.6795,-0.6539,-0.6387,-0.6387,-0.6387,-0.6387,-0.6387,-0.6387,-0.6387,-0.6387,-0.6387,-0.6387,-0.6387,-0.6387,-0.6387,-0.6387,-0.6387,-0.6387,0.0,-0.6317,-0.632,-0.6309,-0.6135,-0.6013,-0.5907,-0.5907,-0.5833,-0.5691,-0.5691,-0.5691,-0.5691,-0.5688,-0.5688,-0.5688,-0.5688,-0.5688,-0.5688,-0.5688,-0.5688,-0.5688,-0.5688,-0.5688,-0.5688,-0.5688,-0.5688,-0.5688,-0.5688,-0.5688,-0.5688,-0.5688,-0.5688,-0.5688,-0.5688,-0.5688,-0.5688,-0.5688,-0.5688,-0.5688,-0.5688,-0.5688,-0.5688,-0.5688,-0.5686,-0.5632,-0.5429,-0.541,-0.5441,-0.5479,-0.5669,-0.5845,-0.5909,-0.6141,-0.63,-0.63,-0.63,-0.63,-0.63,-0.63,-0.63,-0.63,-0.63,-0.63,-0.5798,-0.5942,-0.6051,-0.5905,-0.5541,-0.5073,-0.4718,-0.4263,-0.3884,-0.375,-0.3744,-0.3802,-0.4024,-0.4079,-0.4286,-0.4872,-0.5006,0.0,-0.5699,-0.6025,-0.6398,-0.675,-0.728,-0.7649,-0.7843,-0.7888,-0.7743,-0.7494,-0.7394,-0.7194,-0.6845,-0.6742,-0.6589,-0.6387,-0.6387,-0.6387,-0.6387,-0.6387,-0.6387,-0.6387,-0.6387,-0.6387,-0.6384,-0.6358,-0.6323,-0.6317,-0.6233,-0.6198,-0.6195,-0.6159,-0.6143,-0.613,-0.6007,-0.5937,-0.5893,-0.5814,-0.5721,-0.5688,-0.5688,-0.5688,-0.5688,-0.5688,-0.5688,-0.5688,-0.5688,-0.5688,-0.5688,-0.5688,-0.5688,-0.5688,-0.5688,-0.5688,-0.5688,-0.5688,-0.5688,-0.5688,-0.5688,-0.5688,-0.5688,-0.5688,-0.5688,-0.5688,-0.5688,-0.5688,-0.5688,-0.5688,-0.5688,-0.5688,-0.5688,-0.5688,-0.5688,-0.5688,-0.5688,-0.5623,-0.5464,-0.5619,-0.5692,-0.5655,-0.6008,-0.6191,-0.6096,-0.6327,-0.6399,-0.6303,-0.63,-0.63,-0.63,-0.63,-0.63,-0.63,-0.63,-0.63,-0.5296,-0.5422,-0.5505,-0.5354,-0.5055,-0.4728,-0.4442,-0.4112,-0.3866,-0.3822,-0.3852,-0.3938,-0.4166,-0.4193,-0.4352,-0.4881,-0.4982,-0.5177,-0.5657,-0.5983,-0.6363,-0.6825,-0.7442,-0.7826,-0.7826,-0.7924,-0.7942,-0.7743,-0.7595,-0.7365,-0.7069,-0.6874,-0.6698,-0.6399,-0.6391,-0.6387,-0.6387,-0.6387,-0.6365,-0.6374,-0.6374,-0.635,-0.6301,-0.6233,-0.6248,-0.6243,-0.6119,-0.6086,0.0,-0.6037,-0.6015,-0.6005,-0.5885,-0.5839,-0.5831,-0.5715,-0.5688,-0.5688,-0.5688,-0.5688,-0.5688,-0.5688,-0.5688,-0.5688,-0.5688,-0.5688,-0.5688,-0.5688,-0.5688,-0.5688,-0.5688,-0.5688,-0.5688,-0.5688,-0.5688,-0.5688,-0.5688,-0.5688,-0.5688,-0.5688,-0.5688,-0.5688,-0.5688,-0.5688,-0.5688,-0.5688,-0.5688,-0.5688,-0.5688,-0.5688,-0.5688,-0.5688,-0.5688,-0.5659,-0.5583,-0.5747,-0.5823,-0.5873,-0.6153,-0.6341,-0.6407,-0.6519,-0.6515,-0.6467,-0.6409,-0.6378,-0.6378,-0.6327,-0.6327,-0.6378,-0.6323,-0.6327,0.0,-0.4932,-0.5009,-0.4874,-0.4678,-0.4487,-0.4244,-0.4094,0.0,-0.385,-0.3938,-0.4055,-0.4206,-0.4227,-0.4328,-0.4665,-0.4843,-0.5091,-0.5542,-0.5888,-0.6269,-0.6849,-0.7339,-0.76,-0.76,-0.7848,-0.7958,-0.7958,-0.7635,-0.7414,-0.7366,-0.7051,-0.6697,-0.6455,-0.6393,-0.6412,-0.636,-0.636,-0.6358,-0.6306,-0.6306,-0.6243,-0.6086,-0.6078,-0.6072,0.0,-0.6064,-0.6062,0.0,-0.5937,-0.589,-0.588,-0.5729,-0.5688,-0.5688,-0.5688,-0.5688,-0.5688,-0.5688,-0.5688,-0.5688,-0.5688,-0.5688,-0.5688,-0.5688,-0.5688,-0.5688,-0.5688,-0.5688,-0.5688,-0.5688,-0.5688,-0.5688,-0.5688,-0.5688,-0.5688,-0.5688,-0.5688,-0.5688,-0.5688,-0.5688,-0.5688,-0.5688,-0.5696,-0.5699,-0.5691,-0.5696,-0.5696,-0.5691,-0.5688,-0.5688,-0.5688,-0.5688,-0.5688,-0.5688,-0.5733,-0.586,-0.6174,-0.6211,-0.6364,-0.668,-0.6715,-0.6712,-0.6702,-0.6559,-0.6528,-0.6528,-0.6395,-0.6399,-0.6525,-0.6392,-0.6402,-0.3914,0.0,-0.4577,-0.4296,-0.4099,-0.4009,0.0,-0.395,-0.389,-0.4058,-0.4138,-0.4253,-0.453,-0.4485,-0.4557,-0.4935,-0.5026,-0.5204,-0.5688,-0.6308,-0.6854,-0.7224,-0.7465,-0.76,-0.76,-0.7662,-0.7702,-0.7702,-0.7621,-0.7459,-0.7263,-0.7139,-0.6979,-0.6697,-0.6516,-0.6308,-0.6168,-0.6168,-0.6154,-0.613,-0.613,-0.6113,-0.6083,-0.5988,-0.5947,-0.5939,-0.5852,-0.5817,-0.5814,-0.5739,-0.5729,-0.5726,-0.5699,-0.5688,-0.5688,-0.5688,-0.5688,-0.5688,-0.5688,-0.5688,-0.5688,-0.5688,-0.5688,-0.5688,-0.5688,-0.5688,-0.5688,-0.5688,-0.5688,-0.5688,-0.5688,-0.5688,-0.5688,-0.5688,-0.5688,-0.5688,-0.5688,-0.5688,-0.5688,-0.5688,-0.5688,-0.5688,-0.5688,-0.5806,-0.5833,-0.5702,-0.5806,-0.5833,-0.5699,-0.5688,-0.5688,-0.5688,-0.5688,-0.5688,-0.5688,-0.5908,-0.6027,-0.613,-0.648,-0.6636,-0.6619,-0.6786,-0.682,-0.6702,-0.6664,-0.6647,-0.6647,-0.6614,-0.6614,-0.6647,-0.6614,-0.6614,-0.3551,-0.3845,-0.4109,-0.3875,-0.3799,-0.3824,-0.3882,-0.391,-0.3938,-0.4166,-0.4276,-0.4379,-0.4572,-0.4604,-0.4675,-0.4891,-0.5101,-0.544,-0.6027,-0.6583,-0.7037,-0.7381,-0.7506,-0.76,0.0,-0.76,-0.76,-0.76,-0.7536,-0.7446,-0.7303,-0.7191,-0.7063,-0.6792,-0.656,-0.634,-0.6222,-0.6131,-0.6056,-0.6002,-0.6002,-0.5975,-0.5923,-0.5855,-0.5825,-0.5822,-0.5715,0.0,-0.5688,-0.5688,-0.5688,-0.5688,-0.5688,-0.5688,-0.5688,-0.5688,-0.5688,-0.5688,-0.5688,-0.5688,-0.5688,-0.5688,-0.5688,-0.5688,-0.5688,-0.5688,-0.5688,-0.5688,-0.5688,-0.5688,-0.5688,-0.5688,-0.5688,-0.5688,-0.5688,-0.5688,-0.5688,-0.5729,-0.5812,-0.5812,-0.5855,-0.5896,-0.5896,-0.5947,-0.5966,-0.5904,-0.5947,-0.5964,-0.5901,-0.5847,-0.5812,-0.5812,-0.5721,-0.5688,-0.5688,-0.5822,-0.5952,-0.6083,-0.6438,-0.6624,-0.6679,-0.6897,-0.6913,-0.6807,-0.6807,-0.677,-0.6702,-0.6702,-0.6736,-0.6803,-0.6732,-0.6736,-0.3463,-0.3594,-0.3766,-0.3644,-0.3705,-0.3824,-0.3852,0.0,0.0,-0.4221,-0.4384,-0.4505,-0.4552,-0.4665,-0.4741,-0.4785,-0.5204,-0.5743,-0.645,-0.6749,-0.7031,-0.7305,-0.7451,0.0,-0.7529,-0.7529,-0.7529,-0.7529,-0.7411,-0.7336,-0.7336,-0.721,-0.701,-0.6836,-0.6564,-0.6403,-0.6394,-0.6169,-0.598,-0.5877,-0.5877,-0.5825,-0.5688,-0.5688,-0.5688,-0.5688,0.0,0.0,-0.5688,-0.5688,-0.5688,-0.5688,-0.5688,-0.5688,-0.5688,-0.5688,-0.5688,-0.5688,-0.5688,-0.5688,-0.5688,-0.5688,-0.5688,-0.5688,-0.5688,-0.5688,-0.5688,-0.5688,-0.5688,-0.5688,-0.5688,-0.5688,-0.5688,-0.5688,-0.5688,-0.5688,-0.5688,-0.5822,-0.5904,-0.5904,-0.6002,-0.6086,-0.6086,-0.6102,-0.6108,-0.6089,-0.6102,-0.6108,-0.6089,-0.5977,-0.5904,-0.5904,-0.5801,-0.5688,-0.5688,-0.5688,-0.5777,-0.6041,-0.6254,-0.652,-0.6836,-0.701,-0.7041,-0.692,-0.6916,-0.6856,-0.6766,-0.6766,-0.6834,-0.6916,-0.6827,-0.6837,-0.337,-0.3606,-0.3773,-0.3645,-0.3778,-0.3993,-0.4107,-0.4166,0.0,0.0,-0.4491,-0.4569,-0.4802,-0.4867,-0.4965,-0.5252,-0.5633,-0.6101,-0.6597,-0.6817,-0.6947,-0.7112,-0.7152,-0.7166,-0.7166,-0.7166,-0.7166,-0.7166,-0.7146,-0.7132,-0.7132,-0.7109,-0.7095,-0.7054,-0.6609,-0.6405,-0.6403,-0.5961,-0.5734,-0.5715,-0.5715,-0.5704,-0.5688,-0.5688,-0.5688,-0.5688,0.0,-0.5688,-0.5688,-0.5688,-0.5688,-0.5688,-0.5688,-0.5688,-0.5688,-0.5688,-0.5688,-0.5688,-0.5688,-0.5688,-0.5688,-0.5688,-0.5688,-0.5688,-0.5688,-0.5688,-0.5688,-0.5688,-0.5688,-0.5688,-0.5688,-0.5688,-0.5688,-0.5688,-0.5688,-0.5688,-0.5688,-0.5822,-0.5904,-0.5904,-0.6002,-0.6086,-0.6086,-0.617,-0.6254,-0.6102,-0.6173,-0.6251,-0.61,-0.5977,-0.5904,-0.5904,-0.5801,-0.5688,-0.5688,-0.5688,-0.5733,-0.5777,-0.6169,-0.6605,-0.7054,-0.7098,-0.7085,-0.7065,-0.7065,-0.7051,-0.7031,-0.7031,-0.7041,-0.7061,-0.7041,-0.7041,-0.313,-0.3425,-0.3742,-0.3656,-0.3875,-0.4116,-0.4185,-0.4193,-0.4268,0.0,-0.4614,-0.4653,-0.4877,-0.505,-0.5344,-0.5808,-0.6084,-0.64,-0.6773,-0.6842,-0.694,-0.7078,0.0,-0.7095,-0.7095,-0.7095,-0.7095,-0.7095,-0.7095,-0.7095,-0.7095,-0.7095,-0.7095,-0.7095,-0.6789,-0.6567,-0.6384,-0.6083,-0.5863,-0.5688,-0.5688,-0.5688,-0.5688,-0.5688,-0.5688,-0.5688,0.0,-0.5688,-0.5688,-0.5688,-0.5688,-0.5688,-0.5688,-0.5688,-0.5688,-0.5688,-0.5688,-0.5688,-0.5688,-0.5688,-0.5688,-0.5688,-0.5688,-0.5688,-0.5688,-0.5688,-0.5688,-0.5688,-0.5688,-0.5688,-0.5688,-0.5688,-0.5688,-0.5688,-0.5688,-0.5704,-0.5812,-0.5918,-0.6021,-0.6086,-0.6195,-0.6274,-0.6274,-0.6323,-0.6339,-0.6285,-0.6323,-0.6339,-0.6282,-0.6173,-0.6075,-0.6007,-0.5896,-0.5801,-0.5694,-0.5688,-0.5819,-0.6083,-0.6299,-0.6609,-0.7095,-0.7095,-0.7095,-0.7095,-0.7095,-0.7095,-0.7095,-0.7095,-0.7095,-0.7095,-0.7095,-0.7095,-0.3023,-0.3371,-0.3758,-0.3763,-0.4032,-0.4276,-0.4316,-0.4325,-0.4395,-0.4685,-0.4745,-0.4792,-0.4911,-0.524,-0.5696,-0.6303,-0.6494,-0.663,-0.6893,-0.6933,-0.6974,-0.7085,-0.7065,-0.7048,-0.7048,-0.7014,-0.6994,-0.6994,-0.6994,-0.6994,-0.6994,-0.6994,-0.6994,-0.6994,-0.6736,-0.6514,-0.6293,-0.6078,-0.5852,-0.5688,-0.5688,-0.5688,-0.5688,-0.5659,-0.5648,-0.5648,-0.5648,-0.5648,-0.5648,-0.5677,-0.5688,-0.5688,-0.5688,-0.5688,-0.5688,-0.5688,-0.5688,-0.5688,-0.5688,-0.5688,-0.5688,-0.5688,-0.5688,-0.5688,-0.5688,-0.5688,-0.5688,-0.5688,-0.5688,-0.5688,-0.5688,-0.5688,-0.5688,-0.5688,-0.5688,-0.5721,-0.588,-0.5999,-0.6121,-0.6292,-0.6361,-0.6387,-0.6387,-0.6387,-0.6387,-0.6387,-0.6387,-0.6387,-0.6387,-0.6339,-0.627,-0.61,-0.5975,-0.5855,-0.5699,-0.5688,-0.5863,-0.6299,-0.6343,-0.652,-0.701,-0.701,-0.7054,-0.7095,-0.7095,-0.7095,-0.7095,-0.7095,-0.7095,-0.7095,-0.7095,-0.7095,-0.3354,-0.3609,-0.389,-0.3963,-0.4236,-0.4514,-0.4643,-0.4674,-0.4718,-0.484,-0.4874,-0.4914,-0.5056,-0.5474,-0.5966,-0.6569,-0.6678,-0.6787,-0.7041,-0.7082,-0.7085,-0.7095,-0.698,-0.6903,-0.6903,-0.6814,-0.6732,-0.6732,-0.6732,-0.6732,-0.6732,-0.6732,-0.6732,-0.6732,-0.627,-0.6062,-0.602,-0.5647,-0.555,-0.5688,-0.5688,-0.5688,-0.5686,-0.5572,-0.5521,-0.5521,-0.5521,-0.5521,-0.5529,-0.5642,-0.5688,-0.5688,-0.5688,-0.5688,-0.5688,-0.5688,-0.5688,-0.5688,-0.5688,-0.5688,-0.5688,-0.5688,-0.5688,-0.5688,-0.5688,-0.5688,-0.5688,-0.5688,-0.5688,-0.5688,-0.5688,-0.5688,-0.5688,-0.5688,-0.5688,-0.5721,-0.588,-0.5999,-0.6121,-0.6292,-0.6361,-0.6387,-0.6387,-0.6387,-0.6387,-0.6387,-0.6387,-0.6387,-0.6387,-0.6339,-0.627,-0.61,-0.5975,-0.5855,-0.5699,-0.5688,-0.5822,-0.6083,-0.6127,-0.6349,-0.6795,-0.6836,-0.6925,-0.7095,-0.7095,-0.7095,-0.7095,-0.7095,-0.7095,-0.7095,-0.7095,-0.7095,-0.318,-0.346,-0.3789,-0.3816,-0.4167,-0.4556,-0.4775,-0.4833,-0.4928,-0.5267,-0.5335,-0.5379,-0.5521,-0.5762,-0.6051,-0.6376,-0.658,-0.6739,-0.6851,-0.6868,-0.6868,-0.6868,-0.682,-0.6787,-0.6787,-0.6732,-0.6702,-0.6702,-0.6702,-0.6702,-0.6702,-0.6702,-0.6702,-0.6702,-0.6533,-0.6284,-0.5993,-0.5868,-0.5667,-0.5507,-0.5507,-0.5507,-0.5504,-0.5458,-0.5436,-0.5436,-0.5436,-0.5436,-0.5447,-0.5526,-0.5575,-0.5583,-0.5659,-0.5688,-0.5688,-0.5688,-0.5688,-0.5688,-0.5688,-0.5688,-0.5688,-0.5688,-0.5688,-0.5688,-0.5688,-0.5688,-0.5688,-0.5688,-0.5688,-0.5688,-0.5688,-0.5688,-0.5688,-0.5688,-0.5688,-0.5739,-0.5975,-0.6053,-0.6143,-0.6336,-0.6407,-0.6387,-0.6387,-0.6387,-0.6387,-0.6387,-0.6387,-0.6387,-0.6387,-0.6339,-0.627,-0.61,-0.5912,-0.5734,-0.5694,-0.5688,-0.5733,-0.5863,-0.5994,-0.6216,-0.6523,-0.6567,-0.6656,-0.6925,-0.6925,-0.6966,-0.7095,-0.7095,-0.7095,-0.7095,-0.7095,-0.7095,-0.3209,-0.3414,-0.3739,-0.3818,-0.4154,-0.4584,-0.4887,-0.4955,-0.5069,-0.5508,-0.5589,-0.5647,-0.5837,-0.5918,-0.604,-0.6327,-0.6535,-0.6647,-0.6695,-0.6702,-0.6702,-0.6702,-0.6658,-0.6627,-0.6627,-0.6586,-0.6563,-0.6563,-0.6563,-0.6563,-0.6563,-0.6563,-0.6563,-0.6563,-0.6478,-0.6272,-0.5868,-0.5825,-0.5621,-0.5257,-0.5257,-0.5339,-0.541,-0.5372,-0.5353,-0.5353,-0.5353,-0.5353,-0.5364,-0.5442,-0.5472,-0.5521,-0.5642,-0.5688,-0.5688,-0.5688,-0.5688,-0.5688,-0.5688,-0.5688,-0.5688,-0.5688,-0.5688,-0.5688,-0.5688,-0.5688,-0.5688,-0.5688,-0.5688,-0.5688,-0.5688,-0.5688,-0.5688,-0.5688,-0.5715,-0.5841,-0.6043,-0.6116,-0.6192,-0.6352,-0.6363,-0.6376,-0.6388,-0.6363,-0.6387,-0.6387,-0.6387,-0.6387,-0.6387,-0.6369,-0.626,-0.6102,-0.5907,-0.5729,-0.5691,-0.5688,-0.5688,-0.5688,-0.5863,-0.6083,-0.6299,-0.6299,-0.6435,-0.6659,-0.6748,-0.6881,-0.701,-0.7051,-0.7095,-0.7095,-0.7095,-0.7095,-0.3528,-0.3587,-0.3842,-0.4059,-0.4301,-0.4614,-0.5001,-0.51,-0.5191,-0.5532,-0.5596,-0.5684,-0.5939,-0.5905,-0.5949,-0.6436,-0.6508,-0.6562,-0.6675,-0.6698,-0.6698,-0.6698,-0.6563,-0.6511,-0.6511,-0.6381,-0.63,-0.63,-0.63,-0.63,-0.63,-0.63,-0.63,-0.63,-0.6022,-0.5786,-0.5598,-0.5401,-0.5207,-0.5018,-0.5018,-0.514,-0.5405,-0.5241,-0.5184,-0.5184,-0.5184,-0.5184,-0.5195,-0.5358,-0.5439,-0.5518,-0.564,-0.5688,-0.5688,-0.5688,-0.5688,-0.5688,-0.5688,-0.5688,-0.5688,-0.5688,-0.5688,-0.5688,-0.5688,-0.5688,-0.5688,-0.5688,-0.5688,-0.5688,-0.5688,-0.5688,-0.5688,-0.5688,-0.582,-0.5934,-0.6056,-0.6181,-0.6314,-0.6317,-0.6358,-0.6399,-0.629,-0.6363,-0.6387,-0.6387,-0.6387,-0.6387,-0.6384,-0.6384,-0.6344,-0.6111,-0.5975,-0.5855,-0.5699,-0.5688,-0.5688,-0.5688,-0.5688,-0.5822,-0.6083,-0.6083,-0.6169,-0.6384,-0.6656,-0.6795,-0.6795,-0.701,-0.7095,-0.7095,-0.7095,-0.7095,-0.3193,-0.339,-0.3757,-0.3929,-0.4301,-0.4706,-0.5032,-0.5298,-0.5569,-0.6016,-0.5976,-0.5888,-0.5976,-0.5956,-0.5969,-0.6139,-0.6254,-0.6378,-0.6426,-0.6429,-0.6429,-0.6429,-0.6388,-0.6364,-0.6364,-0.6323,-0.63,-0.63,-0.63,-0.63,-0.63,-0.63,-0.63,-0.63,-0.6022,-0.5786,-0.5598,-0.5401,-0.5207,-0.5018,-0.5018,-0.5053,-0.5121,-0.5083,-0.5067,-0.5067,-0.5067,-0.5067,-0.5075,-0.5195,-0.5311,-0.5434,-0.5516,-0.5561,-0.5572,-0.5656,-0.5688,-0.5688,-0.5688,-0.5688,-0.5688,-0.5688,-0.5688,-0.5688,-0.5688,-0.5688,-0.5688,-0.5688,-0.5688,-0.5688,-0.5688,-0.5688,-0.5688,-0.5688,-0.5715,-0.5814,-0.5931,-0.5986,-0.6062,-0.6284,-0.6295,-0.6333,-0.638,-0.6365,-0.6387,-0.6387,-0.6387,-0.6357,-0.6328,-0.632,-0.6227,-0.5983,-0.5923,-0.5855,-0.5699,-0.5688,-0.5688,-0.5688,-0.5688,-0.5733,-0.5822,-0.5822,-0.5952,-0.6169,-0.626,-0.6482,-0.6795,-0.6881,-0.6969,-0.7095,-0.7095,-0.7095,-0.3252,-0.3496,-0.3869,-0.408,-0.4428,-0.4813,-0.5197,-0.5501,-0.5786,-0.6218,-0.6139,-0.6013,-0.6108,-0.6071,-0.6013,-0.6112,-0.6238,-0.63,-0.63,-0.63,-0.6276,-0.6176,-0.6262,-0.6252,-0.6126,-0.6132,-0.6142,-0.6119,-0.6115,-0.6115,-0.6115,-0.6115,-0.6115,-0.6115,-0.5849,-0.5689,-0.5516,-0.5322,-0.5156,-0.5018,-0.5018,-0.5018,-0.5018,-0.5018,-0.5018,-0.5018,-0.5018,-0.5018,-0.5026,-0.514,-0.523,-0.535,-0.5431,-0.5467,-0.5516,-0.5588,-0.5648,-0.5688,-0.5688,-0.5688,-0.5688,-0.5688,-0.5688,-0.5688,-0.5688,-0.5688,-0.5688,-0.5688,-0.5688,-0.5688,-0.5688,-0.5688,-0.5688,-0.5688,-0.5723,-0.582,-0.5888,-0.5942,-0.6005,-0.6105,-0.6162,-0.6217,-0.6285,-0.6336,-0.6369,-0.6369,-0.6369,-0.6361,-0.6339,-0.6295,-0.624,-0.5996,-0.5931,-0.5855,-0.5699,-0.5688,-0.5688,-0.5688,-0.5688,-0.5688,-0.5688,-0.5688,-0.5777,-0.5952,-0.6038,-0.626,-0.6526,-0.6615,-0.6745,-0.6966,-0.6966,-0.701,-0.343,-0.3723,-0.4067,-0.4388,-0.4611,-0.491,-0.5457,-0.5691,-0.5864,-0.6197,-0.6105,-0.6051,-0.6231,-0.6105,-0.6054,-0.6235,-0.6255,-0.6255,-0.6255,-0.6255,-0.6204,-0.599,-0.6132,-0.6146,-0.5827,-0.5928,-0.5912,-0.5813,-0.58,-0.58,-0.58,-0.58,-0.58,-0.58,-0.5591,-0.5438,-0.5374,-0.5184,-0.5019,-0.4982,-0.4993,-0.4999,-0.4999,-0.5012,-0.5018,-0.5018,-0.5018,-0.5018,-0.5026,-0.5129,-0.517,-0.5184,-0.5344,-0.5426,-0.5491,-0.5502,-0.5583,-0.5688,-0.5688,-0.5688,-0.5688,-0.5688,-0.5688,-0.5688,-0.5688,-0.5688,-0.5688,-0.5688,-0.5688,-0.5688,-0.5599,-0.5555,-0.5555,-0.5466,-0.5676,-0.5888,-0.5888,-0.5975,-0.6026,-0.5937,-0.601,-0.6092,-0.6113,-0.6208,-0.6285,-0.6187,-0.6079,-0.6061,-0.6221,-0.6199,-0.6136,-0.61,-0.5986,-0.5869,-0.5699,-0.5688,-0.5688,-0.5688,-0.5688,-0.5688,-0.5688,-0.5688,-0.5688,-0.5688,-0.5952,-0.6083,-0.6083,-0.6299,-0.6523,-0.6748,-0.6795,-0.6881,-0.2504,-0.3122,-0.392,-0.4254,-0.4797,-0.5321,-0.5542,-0.5613,-0.5684,-0.5864,-0.5874,-0.5861,-0.5895,-0.5874,-0.5861,-0.5895,-0.5901,-0.5901,-0.5901,-0.5901,-0.5888,-0.5854,-0.5881,-0.5874,-0.581,-0.583,-0.5837,-0.5803,-0.58,-0.58,-0.58,-0.58,-0.58,-0.58,-0.5444,-0.524,-0.5234,-0.4944,-0.4778,0.0,-0.4828,-0.4836,-0.4839,-0.4936,-0.5018,-0.5018,-0.5018,-0.5018,-0.5018,-0.5045,-0.5053,-0.5064,-0.5181,-0.5301,-0.542,-0.5472,-0.5583,-0.5688,-0.5688,-0.5688,-0.5688,-0.5688,-0.5688,-0.5688,-0.5688,-0.5688,-0.5688,-0.5688,-0.5688,-0.551,-0.479,-0.4612,-0.4433,-0.3673,-0.4672,-0.5726,-0.5726,-0.5748,-0.5855,-0.6015,-0.6067,-0.6146,-0.6331,-0.6382,-0.6101,-0.5255,-0.4398,-0.4188,-0.5022,-0.5118,-0.5384,-0.6013,-0.6062,-0.5961,-0.5707,-0.5688,-0.5688,-0.5688,-0.5688,-0.5688,-0.5688,-0.5688,-0.5688,-0.5688,-0.5777,-0.5908,-0.6083,-0.6127,-0.6257,-0.6476,-0.6704,-0.6836,-0.2324,-0.2884,-0.352,-0.4176,-0.4431,-0.4665,-0.5106,-0.5033,-0.4947,-0.5362,-0.5631,-0.58,-0.58,-0.58,-0.58,-0.58,-0.58,-0.58,-0.58,-0.58,-0.5776,-0.5708,-0.5762,-0.5745,-0.5603,-0.5657,-0.5671,-0.5631,-0.5624,-0.5624,-0.5624,-0.5624,-0.5624,-0.5624,-0.5209,-0.5034,-0.5098,-0.4779,-0.4629,-0.469,-0.4716,-0.4779,-0.4801,-0.4922,-0.5018,-0.5018,-0.5018,-0.5018,-0.5018,-0.5018,-0.5018,-0.5023,-0.5083,-0.5178,-0.5295,-0.542,-0.5497,-0.561,-0.5669,-0.5688,-0.5688,-0.5688,-0.5374,-0.5015,-0.5015,-0.4701,-0.4344,-0.4344,-0.4344,-0.4253,-0.3762,-0.3628,-0.3494,-0.3001,-0.3628,-0.4344,-0.4344,-0.4344,-0.4416,-0.4555,-0.4562,-0.462,-0.4762,-0.4779,-0.4615,-0.4111,-0.3518,-0.3316,-0.3964,-0.4447,-0.4931,-0.5362,-0.5782,-0.5947,-0.5825,-0.5721,-0.5688,-0.5688,-0.5688,-0.5688,-0.5688,-0.5688,-0.5688,-0.5688,-0.5688,-0.5777,-0.5908,-0.5908,-0.6038,-0.6257,-0.6393,-0.6526,-0.2207,-0.2699,-0.3177,-0.4112,-0.4066,-0.3912,-0.4471,-0.4273,-0.4118,-0.4586,-0.5239,-0.5725,-0.5725,-0.5725,-0.5725,-0.5725,-0.5725,-0.5725,-0.5725,-0.5725,-0.5681,-0.5562,-0.5654,-0.563,-0.5419,-0.5511,-0.5532,-0.5402,-0.5395,-0.5395,-0.5395,-0.5395,-0.5395,-0.5359,-0.4997,-0.4852,-0.493,-0.4617,-0.4525,-0.4627,-0.4649,-0.472,-0.4769,-0.4906,-0.4977,-0.5018,-0.5018,-0.5018,-0.4979,-0.4859,-0.4779,-0.4779,-0.4623,-0.4649,-0.4794,-0.4906,-0.4964,-0.5064,-0.5193,-0.5228,-0.5213,-0.5233,-0.4701,-0.4074,-0.4074,-0.3494,-0.2911,-0.2911,-0.2911,-0.2867,-0.2688,-0.2644,-0.2598,-0.2419,-0.2419,-0.251,-0.2822,-0.2911,-0.2918,-0.2894,-0.2943,-0.2982,-0.3029,-0.2872,-0.2806,-0.292,-0.2649,-0.2604,-0.2907,-0.3626,-0.4224,-0.4405,-0.4991,-0.5395,-0.5378,-0.528,-0.522,-0.522,-0.5206,-0.5285,-0.5466,-0.5466,-0.5555,-0.5688,-0.5688,-0.5688,-0.5688,-0.5688,-0.5822,-0.6041,-0.6083,-0.6169,-0.1176,-0.2134,-0.327,-0.4036,-0.4348,-0.4342,-0.3872,-0.3788,-0.3687,-0.3147,-0.4308,-0.5453,-0.5453,-0.5453,-0.5453,-0.5453,-0.5453,-0.5453,-0.5453,-0.5453,-0.5446,-0.5429,-0.5443,-0.544,-0.5399,-0.5416,-0.5419,-0.5395,-0.5395,-0.5395,-0.5395,-0.5395,-0.5326,-0.5156,-0.4927,-0.4737,-0.4651,-0.4423,-0.4333,-0.4349,-0.4482,-0.4594,-0.4714,-0.4731,-0.4817,-0.5018,-0.5018,-0.5018,-0.4937,-0.4265,-0.3949,-0.3871,-0.3129,-0.2898,-0.3049,-0.3036,-0.3152,-0.3264,-0.3269,-0.3274,-0.3277,-0.3295,-0.3181,-0.3092,-0.3092,-0.3001,-0.2911,-0.2911,-0.2911,-0.2688,-0.1838,-0.1614,-0.1391,-0.0584,-0.0404,-0.0853,-0.2555,-0.2911,-0.2897,-0.2999,-0.3067,-0.3158,-0.3158,-0.2409,-0.1778,-0.1802,-0.1012,-0.0724,-0.1706,-0.1911,-0.2344,-0.3138,-0.3312,-0.3376,-0.3317,-0.3299,-0.326,-0.326,-0.3255,-0.3628,-0.4433,-0.4478,-0.4882,-0.5688,-0.5688,-0.5688,-0.5688,-0.5688,-0.5733,-0.5777,-0.5997,-0.6127,-0.0908,-0.193,-0.298,-0.3366,-0.3505,-0.359,-0.3748,-0.3334,-0.2914,-0.301,-0.3475,-0.3915,-0.3982,-0.4084,-0.4287,-0.4722,-0.4791,-0.4791,-0.4791,-0.4791,-0.4791,-0.4791,-0.4721,-0.4806,-0.5201,-0.5159,-0.5114,-0.5114,-0.5189,-0.5233,-0.5233,-0.5245,-0.519,-0.5087,-0.4827,-0.4661,-0.4592,-0.4398,-0.43,-0.43,-0.3939,-0.3843,-0.3947,-0.3555,-0.3914,-0.4876,-0.4416,-0.4253,-0.4265,-0.3402,-0.309,-0.3049,-0.2659,-0.2519,-0.2592,-0.2653,-0.2717,-0.2812,-0.2864,-0.2919,-0.2901,-0.2887,-0.2528,-0.207,-0.207,-0.1688,-0.1256,-0.1256,-0.1256,-0.1166,-0.0718,-0.0629,-0.0494,-0.009,0.0,-0.0225,-0.1077,-0.1256,-0.1267,-0.1303,-0.1366,-0.1423,-0.1423,-0.1028,-0.07,-0.0721,-0.0287,-0.0193,-0.0653,-0.121,-0.1759,-0.2192,-0.271,-0.2975,-0.2949,-0.2942,-0.2893,-0.2906,-0.2882,-0.3082,-0.3496,-0.3494,-0.3717,-0.4119,-0.5151,-0.5688,-0.5688,-0.5688,-0.5688,-0.5688,-0.5822,-0.5594,-0.0807,-0.1591,-0.2301,-0.256,-0.2577,-0.266,-0.3227,-0.2737,-0.2256,-0.2603,-0.25,-0.2315,-0.2233,-0.2689,-0.3274,-0.3848,-0.3941,-0.3964,-0.4004,-0.4001,-0.4001,-0.4001,-0.3892,-0.4029,-0.4536,-0.4513,-0.4458,-0.4458,-0.4547,-0.4602,-0.4602,-0.4566,-0.4504,-0.4471,-0.4177,-0.4025,-0.3954,-0.3825,-0.3828,-0.4028,-0.3286,-0.2982,-0.3042,-0.2492,-0.2946,-0.4114,-0.3568,-0.3394,-0.3411,-0.2536,-0.2192,-0.2192,-0.1957,-0.1879,-0.1885,-0.197,-0.2021,-0.2019,-0.212,-0.2176,-0.2167,-0.2179,-0.1663,-0.1043,-0.1043,-0.0574,0.0,0.0,0.0,0.0,0.0,0.0,0.0,0.0,0.0,0.0,0.0,0.0,0.0,0.0,0.0,0.0,0.0,0.0,0.0,0.0,0.0,0.0,0.0,-0.0707,-0.1211,-0.1211,-0.1842,-0.222,-0.222,-0.2171,-0.2173,-0.214,-0.2164,-0.2275,-0.2511,-0.251,-0.2644,-0.2911,-0.4253,-0.4971,-0.4971,-0.4971,-0.4971,-0.4971,-0.4971,-0.4612,-0.0763,-0.0939,-0.1141,-0.171,-0.195,-0.201,-0.193,-0.1962,-0.1821,-0.1172,-0.1169,-0.112,-0.053,-0.1681,-0.2786,-0.2938,-0.2989,-0.3027,-0.3133,-0.3153,-0.3153,-0.3153,-0.3149,-0.3177,-0.3208,-0.3204,-0.3199,-0.3199,-0.3206,-0.3208,-0.3208,-0.3087,-0.2912,-0.2736,-0.2577,-0.2414,-0.2246,-0.2213,-0.2581,-0.3251,-0.2514,-0.2149,-0.2151,-0.2118,-0.2221,-0.2429,-0.2517,-0.2569,-0.2498,-0.1706,-0.1371,-0.1293,-0.0471,-0.0118,-0.0118,-0.0121,-0.016,-0.0158,-0.0166,-0.0166,-0.0164,-0.0167,-0.0128,-0.0087,-0.0087,-0.0044,0.0,0.0,0.0,0.0,0.0,0.0,0.0,0.0,0.0,0.0,0.0,0.0,0.0,0.0,0.0,0.0,0.0,0.0,0.0,0.0,0.0,0.0,0.0,-0.0051,-0.0101,-0.0101,-0.0151,-0.0151,-0.0151,-0.0146,-0.0143,-0.0143,-0.0138,-0.0539,-0.1436,-0.148,-0.1928,-0.2867,-0.3001,-0.3045,-0.3045,-0.3045,-0.3045,-0.3045,-0.3045,-0.3001,-0.0318,-0.0644,-0.0947,-0.1159,-0.156,-0.1849,-0.1805,-0.1525,-0.1225,-0.0956,-0.0644,-0.0375,-0.0155,-0.0765,-0.1457,-0.1978,-0.2062,-0.2087,-0.2127,-0.2216,-0.2277,-0.2277,-0.2268,-0.245,-0.2926,-0.2813,-0.275,-0.2836,-0.2832,-0.2837,-0.2837,-0.2768,-0.2626,-0.2468,-0.2291,-0.2183,-0.2112,-0.2114,-0.2246,-0.248,-0.1779,-0.1444,-0.1444,-0.0975,-0.0778,-0.0821,-0.0888,-0.1211,-0.1661,-0.0801,-0.0464,-0.0432,-0.0118,0.0,0.0,0.0,0.0,0.0,0.0,0.0,0.0,0.0,0.0,0.0,0.0,0.0,0.0,0.0,0.0,0.0,0.0,0.0,0.0,0.0,0.0,0.0,0.0,0.0,0.0,0.0,0.0,0.0,0.0,0.0,0.0,0.0,0.0,0.0,0.0,0.0,0.0,0.0,0.0,0.0,0.0,0.0,0.0,0.0,0.0,-0.0137,-0.0494,-0.0494,-0.0673,-0.1032,-0.1032,-0.166,-0.2911,-0.2911,-0.2911,-0.2911,-0.2911,-0.2553,-0.006,-0.0318,-0.06,-0.0596,-0.0904,-0.1246,-0.1456,-0.1183,-0.09,-0.0892,-0.0594,-0.0242,-0.003,-0.0184,-0.0498,-0.1035,-0.1123,-0.1148,-0.1196,-0.1284,-0.1344,-0.1344,-0.1319,-0.1533,-0.2023,-0.1897,-0.1845,-0.1928,-0.194,0.0,-0.1935,-0.1858,-0.1737,-0.1605,-0.1466,-0.151,-0.1753,-0.1522,-0.153,-0.1745,-0.1076,-0.074,-0.0706,-0.0236,0.0,0.0,0.0,-0.0319,-0.0812,-0.0225,0.0,0.0,0.0,0.0,0.0,0.0,0.0,0.0,0.0,0.0,0.0,0.0,0.0,0.0,0.0,0.0,0.0,0.0,0.0,0.0,0.0,0.0,0.0,0.0,0.0,0.0,0.0,0.0,0.0,0.0,0.0,0.0,0.0,0.0,0.0,0.0,0.0,0.0,0.0,0.0,0.0,0.0,0.0,0.0,0.0,0.0,0.0,0.0,0.0,0.0,0.0,0.0,0.0,0.0,0.0,-0.0629,-0.1928,-0.1928,-0.1928,-0.1928,-0.1928,-0.1569,0.0,0.0,0.0,0.0,0.0,-0.0147,-0.0744,0.0,-0.0873,-0.0883,-0.086,-0.0696,-0.0113,0.0,-0.0029,-0.0176,-0.0206,-0.0233,-0.0366,-0.0393,-0.0393,-0.0393,-0.0393,-0.0393,-0.0393,-0.0393,-0.0393,-0.0393,-0.0393,-0.0393,-0.0393,-0.028,-0.0142,0.0,0.0,-0.0344,-0.1061,-0.0355,-0.036,-0.1074,-0.0337,0.0,0.0,0.0,0.0,0.0,0.0,0.0,0.0,0.0,0.0,0.0,0.0,0.0,0.0,0.0,0.0,0.0,0.0,0.0,0.0,0.0,0.0,0.0,0.0,0.0,0.0,0.0,0.0,0.0,0.0,0.0,0.0,0.0,0.0,0.0,0.0,0.0,0.0,0.0,0.0,0.0,0.0,0.0,0.0,0.0,0.0,0.0,0.0,0.0,0.0,0.0,0.0,0.0,0.0,0.0,0.0,0.0,0.0,0.0,0.0,0.0,0.0,0.0,0.0,0.0,0.0,0.0,0.0,0.0,0.0,0.0,0.0,0.0,0.0,0.0,0.0,0.0,0.0,0.0,-0.0239,-0.0238,-0.024,-0.0187,-0.0028,0.0,0.0,-0.0057,-0.0057,-0.0057,-0.0112,-0.0196,-0.0252,-0.0252,-0.0336,-0.0393,-0.0393,-0.0308,-0.0308,0.0,-0.0308,-0.0252,-0.0252,-0.014,-0.0028,0.0,0.0,-0.0091,-0.0312,-0.0096,-0.0097,-0.0294,-0.01,0.0,0.0,0.0,0.0,0.0,0.0,0.0,0.0,0.0,0.0,0.0,0.0,0.0,0.0,0.0,0.0,0.0,0.0,0.0,0.0,0.0,0.0,0.0,0.0,0.0,0.0,0.0,0.0,0.0,0.0,0.0,0.0,0.0,0.0,0.0,0.0,0.0,0.0,0.0,0.0,0.0,0.0,0.0,0.0,0.0,0.0,0.0,0.0,0.0,0.0,0.0,0.0,0.0,0.0,0.0,0.0,0.0,0.0,0.0,0.0,0.0,0.0,0.0,0.0,0.0,0.0,0.0,0.0,0.0,0.0,0.0,0.0,0.0,0.0,0.0,0.0,0.0,0.0,0.0,0.0,0.0,0.0,0.0,0.0,0.0,0.0,0.0,0.0,0.0,0.0,-0.0056,-0.0112,-0.0112,-0.0196,-0.0224,-0.0224,-0.0168,-0.014,-0.0224,-0.0168,-0.0112,-0.0112,-0.0056,0.0,0.0,0.0,0.0,0.0,0.0,0.0,0.0,0.0,0.0,0.0,0.0,0.0,0.0,0.0,0.0,0.0,0.0,0.0,0.0,0.0,0.0,0.0,0.0,0.0,0.0,0.0,0.0,0.0,0.0,0.0,0.0,0.0,0.0,0.0,0.0,0.0,0.0,0.0,0.0,0.0,0.0,0.0,0.0,0.0,0.0,0.0,0.0,0.0,0.0,0.0,0.0,0.0,0.0,0.0,0.0,0.0,0.0,0.0,0.0,0.0,0.0,0.0,0.0,0.0,0.0,0.0,0.0,0.0,0.0,0.0,0.0,0.0,0.0,0.0,0.0,0.0,0.0,0.0,0.0,0.0,0.0,0.0,0.0,0.0,0.0,0.0,0.0,0.0,0.0,0.0,0.0,0.0,0.0,0.0,0.0,0.0,0.0,0.0,0.0,0.0,0.0,0.0,0.0,0.0,0.0,0.0,0.0,0.0,0.0,0.0,0.0,0.0,0.0,0.0,0.0,0.0,0.0,0.0,0.0,0.0,0.0,0.0,0.0,0.0,0.0,0.0,0.0,0.0,0.0,0.0,0.0,0.0,0.0,0.0,0.0,0.0,0.0,0.0,0.0,0.0,0.0,0.0,0.0,0.0,0.0,0.0,0.0,0.0,0.0,0.0,0.0,0.0,0.0,0.0,0.0,0.0,0.0,0.0,0.0,0.0,0.0,0.0,0.0,0.0,0.0,0.0,0.0,0.0,0.0,0.0,0.0,0.0,0.0,0.0,0.0,0.0,0.0,0.0,0.0,0.0,0.0,0.0,0.0,0.0,0.0,0.0,0.0,0.0,0.0,0.0,0.0,0.0,0.0,0.0,0.0,0.0,0.0,0.0,0.0,0.0,0.0,0.0,0.0,0.0,0.0,0.0,0.0,0.0,0.0,0.0,0.0,0.0,0.0,0.0,0.0,0.0,0.0,0.0,0.0,0.0,0.0,0.0,0.0,0.0,0.0,0.0,0.0,0.0,0.0,0.0,0.0,0.0,0.0,0.0,0.0,0.0,0.0,0.0,0.0,0.0,0.0,0.0,0.0,0.0,0.0,0.0,0.0,0.0,0.0,0.0,0.0,0.0,0.0,0.0,0.0,0.0,0.0,0.0,0.0,0.0,0.0,0.0,0.0,0.0,0.0,0.0,0.0,0.0,0.0,0.0,0.0,0.0,0.0,0.0,0.0,0.0,0.0,0.0,0.0,0.0,0.0,0.0,0.0,0.0,0.0,0.0,0.0,0.0,0.0,0.0,0.0,0.0,0.0,0.0,0.0,0.0,0.0,0.0,0.0,0.0,0.0,0.0,0.0,0.0,0.0,0.0,0.0,0.0,0.0,0.0,0.0,0.0,0.0,0.0,0.0,0.0,0.0,0.0,0.0,0.0,0.0,0.0,0.0,0.0,0.0,0.0,0.0,0.0,0.0,0.0,0.0,0.0,0.0,0.0,0.0,0.0,0.0,0.0,0.0,0.0,0.0,0.0,0.0,0.0,0.0,0.0,0.0,0.0,0.0,0.0,0.0,0.0,0.0,0.0,0.0,0.0,0.0,0.0,0.0,0.0,0.0,0.0,0.0,0.0,0.0,0.0,0.0,0.0,0.0,0.0,0.0,0.0,0.0,0.0,0.0,0.0,0.0,0.0,0.0,0.0,0.0,0.0,0.0,0.0,0.0,0.0,0.0,0.0,0.0,0.0,0.0,0.0,0.0,0.0,0.0,0.0,0.0,0.0,0.0,0.0,0.0,0.0,0.0,0.0,0.0,0.0,0.0,0.0,0.0,0.0,0.0,0.0,0.0,0.0,0.0,0.0,0.0,0.0,0.0,0.0,0.0,0.0,0.0,0.0,0.0,0.0,0.0,0.0,0.0,0.0,0.0,0.0,0.0,0.0,0.0,0.0,0.0,0.0,0.0,0.0,0.0,0.0,0.0,0.0,0.0,0.0,0.0,0.0,0.0,0.0,0.0,0.0,0.0,0.0,0.0,0.0,0.0,0.0,0.0,0.0,0.0,0.0,0.0,0.0,0.0,0.0,0.0,0.0,0.0,0.0,0.0,0.0,0.0,0.0,0.0,0.0,0.0,0.0,0.0,0.0,0.0,0.0,0.0,0.0,0.0,0.0,0.0,0.0,0.0,0.0,0.0,0.0,0.0,0.0,0.0,0.0,0.0,0.0,0.0,0.0,0.0,0.0,0.0,0.0,0.0,0.0,0.0,0.0,0.0,0.0,0.0,0.0,0.0,0.0,0.0,0.0,0.0,0.0,0.0,0.0,0.0,0.0,0.0,0.0,0.0,0.0,0.0,0.0,0.0,0.0,0.0,0.0,0.0,0.0,0.0,0.0,0.0,0.0,0.0,0.0,0.0,0.0,0.0,0.0,0.0,0.0,0.0,0.0,0.0,0.0,0.0,0.0,0.0,0.0,0.0,0.0,0.0,0.0,0.0,0.0,0.0,0.0,0.0,0.0,0.0,0.0,0.0,0.0,0.0,0.0,0.0,0.0,0.0,0.0,0.0,0.0,0.0,0.0,0.0,0.0,0.0,0.0,0.0,0.0,0.0,0.0,0.0,0.0,0.0,0.0,0.0,0.0,0.0,0.0,0.0,0.0,0.0,0.0,0.0,0.0,0.0,0.0,0.0,0.0,0.0,0.0,0.0,0.0,0.0,0.0,0.0,0.0,0.0,0.0,0.0,0.0,0.0,0.0,0.0,0.0,0.0,0.0,0.0,0.0,0.0,0.0,0.0,0.0,0.0,0.0,0.0,0.0,0.0,0.0,0.0,0.0,0.0,0.0,0.0,0.0,0.0,0.0,0.0,0.0,0.0,0.0,0.0,0.0,0.0,0.0,0.0,0.0,0.0,0.0,0.0,0.0,0.0,0.0,0.0,0.0,0.0,0.0,0.0,0.0,0.0,0.0,0.0,0.0,0.0,0.0,0.0,0.0,0.0,0.0,0.0,0.0,0.0,0.0,0.0,0.0,0.0,0.0,0.0,0.0,0.0,0.0,0.0,0.0,0.0,0.0,0.0,0.0,0.0,0.0,0.0,0.0,0.0,0.0,0.0,0.0,0.0,0.0,0.0,0.0,0.0,0.0,0.0,0.0,0.0,0.0,0.0,0.0,0.0,0.0,0.0,0.0,0.0,0.0,0.0,0.0,0.0,0.0,0.0,0.0,0.0,0.0,0.0,0.0,0.0,0.0,0.0,0.0,0.0,0.0,0.0,0.0,0.0,0.0,0.0,0.0,0.0,0.0,0.0,0.0,0.0,0.0,0.0,0.0,0.0,0.0,0.0,0.0,0.0,0.0,0.0,0.0,0.0,0.0,0.0,0.0,0.0,0.0,0.0,0.0,0.0,0.0,0.0,0.0,0.0,0.0,0.0,0.0,0.0,0.0,0.0,0.0,0.0,0.0,0.0,0.0,0.0,0.0,0.0,0.0,0.0,0.0,0.0,0.0,0.0,0.0,0.0,0.0,0.0,0.0,0.0,0.0,0.0,0.0,0.0,0.0,0.0,0.0,0.0,0.0,0.0,0.0,0.0,0.0,0.0,0.0,0.0,0.0,0.0,0.0,0.0,0.0,0.0,0.0,0.0,0.0,0.0,0.0,0.0,0.0,0.0,0.0,0.0,0.0,0.0,0.0,0.0,0.0,0.0,0.0,0.0,0.0,0.0,0.0,0.0,0.0,0.0,0.0,0.0,0.0,0.0,0.0,0.0,0.0,0.0,0.0,0.0,0.0,0.0,0.0,0.0,0.0,0.0,0.0,0.0,0.0,0.0,0.0,0.0,0.0,0.0,0.0,0.0039,0.0,0.0,0.0,0.0,0.0154,0.0,0.0,0.0,0.0,0.0,0.0,0.0,0.0,0.0,0.0,0.0,0.0,0.0,0.0,0.0,0.0,0.0,0.0,0.0,0.0,0.0,0.0,0.0,0.0,0.0,0.0,0.0,0.0,0.0,0.0,0.0,0.0,0.0,0.0,0.0,0.0,0.0,0.0,0.0,0.0,0.0,0.0,0.0,0.0,0.0,0.0,0.0,0.0,0.0,0.0,0.0,0.0,0.0,0.0,0.0,0.0,0.0,0.0,0.0,0.0,0.0,0.0,0.0,0.0,0.0,0.0,0.0,0.0,0.0,0.0,0.0,0.0,0.0,0.0,0.0,0.0,0.0,0.0,0.0,0.0,0.0,0.0,0.0,0.0,0.0,0.0,0.0,0.0,0.0,0.0,0.0,0.0,0.0,0.0,0.0,0.0,0.0,0.0,0.0,0.0,0.0,0.0,0.0,0.0,0.0,0.1412,0.0982,0.0,0.0,0.0,0.0,0.0,0.0,0.0,0.0,0.0,0.0,0.0,0.0,0.0,0.0,0.0,0.0,0.0,0.0,0.0,0.0,0.0,0.0,0.0,0.0,0.0,0.0,0.0,0.0,0.0,0.0,0.0,0.0,0.0,0.0,0.0,0.0,0.0,0.0,0.0,0.0,0.0,0.0,0.0,0.0,0.0,0.0,0.0,0.0,0.0,0.0,0.0,0.0,0.0,0.0,0.0,0.0,0.0,0.0,0.0,0.0,0.0,0.0,0.0,0.0,0.0,0.0,0.0,0.0,0.0,0.0,0.0,0.0,0.0,0.0,0.0,0.0,0.0,0.0,0.0,0.0,0.0,0.0,0.0,0.0,0.0,0.0,0.0,0.0,0.0,0.0,0.0,0.0,0.0,0.0,0.0,0.0,0.0,0.0,0.0,0.0,0.0,0.0,0.0,0.0,0.0,0.0,0.0,0.0,0.2121,0.2245,0.0,0.1729,0.1629,0.0,0.1024,0.0,0.1021,0.0,0.0,0.0,0.0,0.0,0.0,0.0,0.0,0.0,0.0,0.0163,0.0,0.0,0.0,0.0,0.0,0.0,0.0,0.0,0.0,0.0,0.0,0.0,0.0,0.0,0.0,0.0,0.0,0.0,0.0,0.0,0.0,0.0,0.0,0.0,0.0,0.0,0.0,0.0,0.0,0.0,0.0,0.0,0.0,0.0,0.0,0.0,0.0,0.0,0.0,0.0,0.0,0.0,0.0,0.0,0.0,0.0,0.0,0.0,0.0,0.0,0.0,0.0,0.0,0.0,0.0,0.0,0.0,0.0,0.0,0.0,0.0,0.0,0.0,0.0,0.0,0.0,0.0,0.0,0.0,0.0,0.0,0.0,0.0,0.0,0.0,0.0,0.0,0.0,0.0,0.0,0.0,0.0,0.0,0.0,0.0,0.0,0.0,0.0,0.0,0.0,0.0,0.0]}]]